FW0022 Weather Reports


time (UTC)temp
C
wind
direction
speed
KPH
gust
KPH
rain 1hr
cm
rain 24hr
cm
rain mn
cm
humidity
%
barometer
mb
20260504035644 10 60 17.7 22.5 0.00 0.00 0.00 36 1014.0
20260504035619 10 18 9.7 12.9 0.00 0.00 0.00 36 1014.0
20260504035610 10 5 6.4 12.9 0.00 0.00 0.00 36 1014.0
20260504035553 10 36 6.4 12.9 0.00 0.00 0.00 36 1014.0
20260504035538 10 26 8.0 12.9 0.00 0.00 0.00 36 1014.0
20260504035530 10 26 8.0 16.1 0.00 0.00 0.00 36 1014.0
20260504035513 10 351 6.4 16.1 0.00 0.00 0.00 36 1014.0
20260504035459 10 20 6.4 16.1 0.00 0.00 0.00 36 1014.0
20260504035449 10 38 8.0 16.1 0.00 0.00 0.00 36 1014.0
20260504035426 10 19 8.0 16.1 0.00 0.00 0.00 35 1014.0
20260504035410 10 343 8.0 16.1 0.00 0.00 0.00 35 1014.0
20260504035347 10 335 9.7 16.1 0.00 0.00 0.00 35 1014.0
20260504035338 10 314 6.4 14.5 0.00 0.00 0.00 36 1014.0
20260504035322 10 357 8.0 14.5 0.00 0.00 0.00 36 1014.0
20260504035309 10 348 9.7 14.5 0.00 0.00 0.00 36 1014.0
20260504035301 10 348 9.7 16.1 0.00 0.00 0.00 36 1014.0
20260504035242 10 337 8.0 16.1 0.00 0.00 0.00 36 1014.0
20260504035226 10 20 9.7 16.1 0.00 0.00 0.00 35 1014.0
20260504035218 10 350 9.7 16.1 0.00 0.00 0.00 35 1014.0
20260504035202 10 2 11.3 16.1 0.00 0.00 0.00 35 1014.0
20260504035137 10 41 6.4 16.1 0.00 0.00 0.00 35 1014.0
20260504035124 10 26 11.3 16.1 0.00 0.00 0.00 35 1014.0
20260504035106 10 14 9.7 14.5 0.00 0.00 0.00 35 1014.0
20260504035051 10 199 6.4 14.5 0.00 0.00 0.00 35 1014.0
20260504035042 10 25 9.7 12.9 0.00 0.00 0.00 35 1014.0
20260504035022 10 25 8.0 16.1 0.00 0.00 0.00 35 1014.0
20260504035005 10 13 8.0 17.7 0.00 0.00 0.00 35 1014.0
20260504034930 10 332 8.0 17.7 0.00 0.00 0.00 35 1014.0
20260504034909 10 41 6.4 17.7 0.00 0.00 0.00 35 1014.0
20260504034833 10 52 14.5 17.7 0.00 0.00 0.00 35 1014.0
20260504034819 10 9 9.7 16.1 0.00 0.00 0.00 35 1014.0
20260504034802 10 355 11.3 16.1 0.00 0.00 0.00 35 1014.0
20260504034746 10 49 8.0 16.1 0.00 0.00 0.00 35 1014.0
20260504034738 10 353 8.0 16.1 0.00 0.00 0.00 35 1014.0
20260504034717 10 359 9.7 14.5 0.00 0.00 0.00 35 1014.0
20260504034700 10 20 11.3 14.5 0.00 0.00 0.00 35 1014.0
20260504034634 10 330 6.4 14.5 0.00 0.00 0.00 35 1014.0
20260504034626 10 330 6.4 16.1 0.00 0.00 0.00 35 1014.0
20260504034619 10 316 9.7 16.1 0.00 0.00 0.00 35 1014.0
20260504034538 10 10 8.0 20.9 0.00 0.00 0.00 34 1014.0
20260504034526 10 48 12.9 20.9 0.00 0.00 0.00 34 1014.0
20260504034518 10 11 12.9 20.9 0.00 0.00 0.00 34 1014.0
20260504034459 10 11 12.9 20.9 0.00 0.00 0.00 35 1014.0
20260504034450 10 33 11.3 20.9 0.00 0.00 0.00 35 1014.0
20260504034426 10 320 16.1 20.9 0.00 0.00 0.00 35 1014.0
20260504034411 10 357 9.7 17.7 0.00 0.00 0.00 35 1014.0
20260504034403 10 333 4.8 16.1 0.00 0.00 0.00 34 1014.0
20260504034354 10 333 4.8 16.1 0.00 0.00 0.00 34 1014.0
20260504034338 10 357 9.7 16.1 0.00 0.00 0.00 34 1014.0
20260504034330 10 28 9.7 12.9 0.00 0.00 0.00 34 1014.0
20260504034309 10 343 6.4 12.9 0.00 0.00 0.00 34 1014.0
20260504034252 10 0 6.4 14.5 0.00 0.00 0.00 34 1014.0
20260504034222 10 22 9.7 14.5 0.00 0.00 0.00 34 1014.0
20260504034148 10 18 8.0 14.5 0.00 0.00 0.00 35 1014.0
20260504034140 10 33 4.8 14.5 0.00 0.00 0.00 35 1014.0
20260504034115 10 53 11.3 14.5 0.00 0.00 0.00 35 1014.0
20260504034106 10 326 6.4 14.5 0.00 0.00 0.00 35 1014.0
20260504034044 10 60 4.8 17.7 0.00 0.00 0.00 34 1014.0
20260504034018 10 2 8.0 20.9 0.00 0.00 0.00 34 1014.0
20260504034009 10 10 9.7 20.9 0.00 0.00 0.00 34 1014.0
20260504033946 10 351 8.0 20.9 0.00 0.00 0.00 34 1014.0
20260504033930 10 7 12.9 20.9 0.00 0.00 0.00 34 1014.0
20260504033915 10 7 11.3 20.9 0.00 0.00 0.00 34 1014.0
20260504033906 10 0 12.9 20.9 0.00 0.00 0.00 34 1014.0
20260504033841 10 13 11.3 14.5 0.00 0.00 0.00 34 1014.0
20260504033826 10 2 8.0 17.7 0.00 0.00 0.00 34 1014.0
20260504033810 10 351 3.2 17.7 0.00 0.00 0.00 34 1014.0
20260504033801 10 20 8.0 24.1 0.00 0.00 0.00 34 1014.0
20260504033737 10 20 8.0 24.1 0.00 0.00 0.00 34 1014.0
20260504033722 10 44 8.0 24.1 0.00 0.00 0.00 34 1014.0
20260504033707 10 42 9.7 24.1 0.00 0.00 0.00 34 1014.0
20260504033657 10 22 14.5 24.1 0.00 0.00 0.00 34 1014.0
20260504033642 10 63 12.9 24.1 0.00 0.00 0.00 34 1014.0
20260504033633 10 63 12.9 24.1 0.00 0.00 0.00 35 1014.0
20260504033618 10 27 14.5 24.1 0.00 0.00 0.00 35 1014.0
20260504033603 10 26 17.7 24.1 0.00 0.00 0.00 35 1014.0
20260504033554 10 26 17.7 24.1 0.00 0.00 0.00 35 1014.0
20260504033539 10 317 11.3 22.5 0.00 0.00 0.00 35 1014.0
20260504033529 10 4 17.7 22.5 0.00 0.00 0.00 34 1014.0
20260504033513 10 352 9.7 17.7 0.00 0.00 0.00 34 1014.0
20260504033450 10 330 11.3 20.9 0.00 0.00 0.00 34 1014.0
20260504033435 10 13 12.9 20.9 0.00 0.00 0.00 34 1014.0
20260504033426 10 14 11.3 22.5 0.00 0.00 0.00 34 1014.0
20260504033409 10 17 11.3 22.5 0.00 0.00 0.00 34 1014.0
20260504033348 10 359 17.7 22.5 0.00 0.00 0.00 34 1014.0
20260504033317 10 29 12.9 22.5 0.00 0.00 0.00 34 1014.0
20260504033257 10 17 14.5 22.5 0.00 0.00 0.00 34 1014.0
20260504033244 10 39 14.5 22.5 0.00 0.00 0.00 34 1014.0
20260504033238 10 18 9.7 20.9 0.00 0.00 0.00 34 1014.0
20260504033201 11 304 6.4 20.9 0.00 0.00 0.00 34 1014.0
20260504033147 11 304 6.4 20.9 0.00 0.00 0.00 34 1014.0
20260504033137 11 16 8.0 20.9 0.00 0.00 0.00 34 1014.0
20260504033113 11 34 12.9 20.9 0.00 0.00 0.00 34 1014.0
20260504033058 11 32 12.9 20.9 0.00 0.00 0.00 34 1014.0
20260504033042 11 5 14.5 20.9 0.00 0.00 0.00 34 1014.0
20260504033033 11 348 6.4 17.7 0.00 0.00 0.00 34 1014.0
20260504033010 11 43 9.7 17.7 0.00 0.00 0.00 34 1014.0
20260504032953 11 15 16.1 17.7 0.00 0.00 0.00 34 1014.0
20260504032939 11 65 9.7 16.1 0.00 0.00 0.00 34 1014.0
20260504032929 11 21 8.0 16.1 0.00 0.00 0.00 34 1014.0
20260504032916 11 18 9.7 16.1 0.00 0.00 0.00 34 1014.0
20260504032850 11 46 6.4 17.7 0.00 0.00 0.00 33 1014.0
20260504032835 11 340 9.7 17.7 0.00 0.00 0.00 33 1014.0
20260504032825 11 348 12.9 17.7 0.00 0.00 0.00 33 1014.0
20260504032811 11 359 11.3 17.7 0.00 0.00 0.00 33 1014.0
20260504032803 11 359 11.3 24.1 0.00 0.00 0.00 33 1014.0
20260504032754 11 353 12.9 24.1 0.00 0.00 0.00 33 1014.0
20260504032740 11 48 11.3 24.1 0.00 0.00 0.00 33 1014.0
20260504032707 11 11 14.5 24.1 0.00 0.00 0.00 33 1014.0
20260504032657 11 38 11.3 24.1 0.00 0.00 0.00 33 1014.0
20260504032633 11 331 12.9 24.1 0.00 0.00 0.00 33 1014.0
20260504032620 11 3 17.7 24.1 0.00 0.00 0.00 33 1014.0
20260504032613 11 55 8.0 14.5 0.00 0.00 0.00 33 1014.0
20260504032553 11 55 8.0 16.1 0.00 0.00 0.00 33 1014.0
20260504032538 11 38 9.7 16.1 0.00 0.00 0.00 33 1014.0
20260504032513 11 16 9.7 16.1 0.00 0.00 0.00 33 1014.0
20260504032458 11 16 11.3 16.1 0.00 0.00 0.00 33 1014.0
20260504032449 11 12 9.7 16.1 0.00 0.00 0.00 33 1014.0
20260504032433 11 26 9.7 16.1 0.00 0.00 0.00 33 1014.0
20260504032409 11 5 11.3 22.5 0.00 0.00 0.00 33 1014.0
20260504032355 11 3 8.0 22.5 0.00 0.00 0.00 33 1014.0
20260504032338 11 323 11.3 22.5 0.00 0.00 0.00 34 1014.0
20260504032323 11 4 9.7 22.5 0.00 0.00 0.00 34 1014.0
20260504032313 11 34 16.1 22.5 0.00 0.00 0.00 34 1014.0
20260504032259 11 34 16.1 22.5 0.00 0.00 0.00 34 1014.0
20260504032251 11 24 11.3 22.5 0.00 0.00 0.00 34 1014.0
20260504032241 11 24 11.3 22.5 0.00 0.00 0.00 33 1014.0
20260504032226 11 1 12.9 22.5 0.00 0.00 0.00 33 1014.0
20260504032217 11 359 12.9 22.5 0.00 0.00 0.00 33 1014.0
20260504032207 11 40 11.3 22.5 0.00 0.00 0.00 33 1014.0
20260504032138 11 322 17.7 22.5 0.00 0.00 0.00 33 1014.0
20260504032128 11 357 11.3 17.7 0.00 0.00 0.00 33 1014.0
20260504032100 11 30 8.0 17.7 0.00 0.00 0.00 33 1014.0
20260504032033 11 309 9.7 17.7 0.00 0.00 0.00 34 1014.0
20260504032021 11 8 12.9 17.7 0.00 0.00 0.00 34 1014.0
20260504032003 11 7 9.7 14.5 0.00 0.00 0.00 34 1014.0
20260504031953 11 46 4.8 14.5 0.00 0.00 0.00 34 1014.0
20260504031930 11 7 9.7 14.5 0.00 0.00 0.00 34 1014.0
20260504031913 11 19 9.7 14.5 0.00 0.00 0.00 34 1014.0
20260504031858 11 44 8.0 17.7 0.00 0.00 0.00 34 1014.0
20260504031834 11 349 6.4 17.7 0.00 0.00 0.00 34 1014.0
20260504031825 11 20 9.7 17.7 0.00 0.00 0.00 34 1014.0
20260504031809 11 26 11.3 17.7 0.00 0.00 0.00 34 1014.0
20260504031745 11 8 9.7 20.9 0.00 0.00 0.00 34 1014.0
20260504031731 11 5 14.5 20.9 0.00 0.00 0.00 34 1014.0
20260504031714 11 19 12.9 20.9 0.00 0.00 0.00 34 1014.0
20260504031658 11 46 6.4 20.9 0.00 0.00 0.00 34 1014.0
20260504031649 11 20 8.0 20.9 0.00 0.00 0.00 34 1014.0
20260504031635 11 301 9.7 20.9 0.00 0.00 0.00 34 1014.0
20260504031627 11 301 9.7 20.9 0.00 0.00 0.00 34 1013.0
20260504031602 11 346 14.5 20.9 0.00 0.00 0.00 33 1013.0
20260504031553 11 346 14.5 20.9 0.00 0.00 0.00 33 1013.0
20260504031541 11 25 11.3 16.1 0.00 0.00 0.00 33 1013.0
20260504031534 11 331 8.0 17.7 0.00 0.00 0.00 33 1013.0
20260504031506 11 294 9.7 17.7 0.00 0.00 0.00 34 1013.0
20260504031451 11 2 6.4 17.7 0.00 0.00 0.00 34 1013.0
20260504031418 11 32 9.7 17.7 0.00 0.00 0.00 34 1014.0
20260504031409 11 32 9.7 17.7 0.00 0.00 0.00 33 1014.0
20260504031354 11 23 14.5 20.9 0.00 0.00 0.00 33 1014.0
20260504031345 11 18 8.0 20.9 0.00 0.00 0.00 33 1014.0
20260504031327 11 338 14.5 20.9 0.00 0.00 0.00 33 1014.0
20260504031311 11 24 8.0 20.9 0.00 0.00 0.00 33 1014.0
20260504031241 11 326 14.5 20.9 0.00 0.00 0.00 33 1014.0
20260504031231 11 18 11.3 16.1 0.00 0.00 0.00 33 1013.0
20260504031203 11 334 14.5 16.1 0.00 0.00 0.00 33 1013.0
20260504031145 11 40 9.7 16.1 0.00 0.00 0.00 33 1013.0
20260504031130 11 27 11.3 16.1 0.00 0.00 0.00 33 1014.0
20260504031121 11 30 6.4 16.1 0.00 0.00 0.00 33 1014.0
20260504031106 11 359 9.7 16.1 0.00 0.00 0.00 33 1014.0
20260504031058 11 359 9.7 16.1 0.00 0.00 0.00 33 1014.0
20260504031041 11 10 8.0 16.1 0.00 0.00 0.00 33 1014.0
20260504031026 11 17 12.9 22.5 0.00 0.00 0.00 33 1014.0
20260504031017 11 4 12.9 22.5 0.00 0.00 0.00 33 1014.0
20260504031003 11 357 11.3 22.5 0.00 0.00 0.00 33 1014.0
20260504030953 11 357 11.3 22.5 0.00 0.00 0.00 33 1014.0
20260504030937 11 32 8.0 22.5 0.00 0.00 0.00 33 1014.0
20260504030924 11 16 8.0 22.5 0.00 0.00 0.00 33 1014.0
20260504030859 11 7 11.3 22.5 0.00 0.00 0.00 33 1014.0
20260504030842 11 18 12.9 22.5 0.00 0.00 0.00 33 1014.0
20260504030828 11 31 19.3 22.5 0.00 0.00 0.00 33 1013.0
20260504030803 11 25 8.0 30.6 0.00 0.00 0.00 33 1013.0
20260504030756 11 25 8.0 30.6 0.00 0.00 0.00 33 1013.0
20260504030708 11 7 9.7 30.6 0.00 0.00 0.00 33 1013.0
20260504030701 11 24 12.9 30.6 0.00 0.00 0.00 33 1013.0
20260504030641 11 5 11.3 30.6 0.00 0.00 0.00 33 1013.0
20260504030625 11 347 16.1 30.6 0.00 0.00 0.00 33 1013.0
20260504030613 11 34 9.7 17.7 0.00 0.00 0.00 33 1013.0
20260504030553 11 293 8.0 14.5 0.00 0.00 0.00 33 1013.0
20260504030523 11 15 9.7 14.5 0.00 0.00 0.00 33 1013.0
20260504030449 11 10 8.0 17.7 0.00 0.00 0.00 33 1013.0
20260504030434 11 10 11.3 17.7 0.00 0.00 0.00 33 1013.0
20260504030417 11 3 11.3 20.9 0.00 0.00 0.00 33 1014.0
20260504030351 11 13 9.7 24.1 0.00 0.00 0.00 33 1014.0
20260504030314 11 1 14.5 24.1 0.00 0.00 0.00 33 1013.0
20260504030258 11 7 12.9 24.1 0.00 0.00 0.00 33 1013.0
20260504030250 11 1 16.1 24.1 0.00 0.00 0.00 33 1013.0
20260504030235 11 33 19.3 24.1 0.00 0.00 0.00 33 1013.0
20260504030226 11 33 19.3 24.1 0.00 0.00 0.00 32 1013.0
20260504030209 11 5 11.3 17.7 0.00 0.00 0.00 32 1013.0
20260504030158 11 351 11.3 17.7 0.00 0.00 0.00 32 1013.0
20260504030150 11 343 12.9 17.7 0.00 0.00 0.00 32 1013.0
20260504030121 11 9 9.7 17.7 0.00 0.00 0.00 32 1013.0
20260504030107 11 31 11.3 17.7 0.00 0.00 0.00 32 1013.0
20260504030058 11 31 11.3 17.7 0.00 0.00 0.00 32 1013.0
20260504030043 11 22 11.3 17.7 0.00 0.00 0.00 32 1013.0
20260504030035 11 13 16.1 17.7 0.00 0.00 0.00 32 1013.0
20260504030026 11 13 16.1 25.7 0.00 0.00 0.00 32 1013.0
20260504030013 11 1 12.9 25.7 0.00 0.00 0.00 32 1013.0
20260504025939 11 30 12.9 25.7 0.00 0.00 0.00 32 1013.0
20260504025929 11 339 14.5 25.7 0.00 0.00 0.00 32 1013.0
20260504025914 11 350 16.1 25.7 0.00 0.00 0.00 32 1013.0
20260504025901 11 334 12.9 17.7 0.00 0.00 0.00 32 1013.0
20260504025854 11 334 12.9 17.7 0.00 0.00 0.00 32 1013.0
20260504025819 11 359 12.9 17.7 0.00 0.00 0.00 32 1013.0
20260504025810 11 7 16.1 17.7 0.00 0.00 0.00 32 1013.0
20260504025753 11 19 14.5 17.7 0.00 0.00 0.00 32 1013.0
20260504025729 11 18 9.7 17.7 0.00 0.00 0.00 32 1013.0
20260504025715 11 337 8.0 17.7 0.00 0.00 0.00 32 1013.0
20260504025706 11 312 8.0 17.7 0.00 0.00 0.00 33 1013.0
20260504025634 11 312 8.0 17.7 0.00 0.00 0.00 33 1013.0
20260504025625 11 359 14.5 17.7 0.00 0.00 0.00 33 1013.0
20260504025610 11 342 8.0 17.7 0.00 0.00 0.00 33 1013.0
20260504025602 12 342 8.0 17.7 0.00 0.00 0.00 33 1013.0
20260504025545 12 319 9.7 17.7 0.00 0.00 0.00 33 1013.0
20260504025531 12 20 11.3 17.7 0.00 0.00 0.00 33 1013.0
20260504025522 12 8 12.9 17.7 0.00 0.00 0.00 33 1013.0
20260504025508 12 30 12.9 17.7 0.00 0.00 0.00 33 1013.0
20260504025459 12 30 12.9 17.7 0.00 0.00 0.00 33 1013.0
20260504025450 12 33 12.9 17.7 0.00 0.00 0.00 33 1013.0
20260504025426 12 25 9.7 17.7 0.00 0.00 0.00 33 1013.0
20260504025411 12 16 12.9 17.7 0.00 0.00 0.00 33 1013.0
20260504025404 12 32 16.1 17.7 0.00 0.00 0.00 33 1013.0
20260504025339 12 350 9.7 16.1 0.00 0.00 0.00 33 1013.0
20260504025330 12 325 12.9 16.1 0.00 0.00 0.00 33 1013.0
20260504025310 12 17 11.3 16.1 0.00 0.00 0.00 33 1013.0
20260504025251 12 6 11.3 17.7 0.00 0.00 0.00 33 1013.0
20260504025242 12 352 11.3 17.7 0.00 0.00 0.00 33 1013.0
20260504025217 12 24 9.7 24.1 0.00 0.00 0.00 33 1013.0
20260504025203 12 344 9.7 24.1 0.00 0.00 0.00 33 1013.0
20260504025154 12 344 9.7 24.1 0.00 0.00 0.00 33 1013.0
20260504025146 12 29 11.3 24.1 0.00 0.00 0.00 33 1013.0
20260504025125 12 330 12.9 24.1 0.00 0.00 0.00 33 1013.0
20260504025105 12 357 12.9 24.1 0.00 0.00 0.00 33 1013.0
20260504025051 12 37 19.3 24.1 0.00 0.00 0.00 33 1013.0
20260504025034 12 323 11.3 22.5 0.00 0.00 0.00 33 1013.0
20260504025018 12 14 12.9 22.5 0.00 0.00 0.00 33 1013.0
20260504025010 12 348 11.3 22.5 0.00 0.00 0.00 33 1013.0
20260504024947 12 30 17.7 22.5 0.00 0.00 0.00 33 1013.0
20260504024937 12 36 11.3 20.9 0.00 0.00 0.00 33 1013.0
20260504024913 12 4 16.1 20.9 0.00 0.00 0.00 33 1013.0
20260504024859 12 347 8.0 17.7 0.00 0.00 0.00 33 1013.0
20260504024842 12 12 8.0 17.7 0.00 0.00 0.00 33 1013.0
20260504024828 12 340 8.0 22.5 0.00 0.00 0.00 33 1013.0
20260504024803 12 356 11.3 30.6 0.00 0.00 0.00 33 1013.0
20260504024745 12 356 11.3 30.6 0.00 0.00 0.00 33 1013.0
20260504024729 12 9 12.9 30.6 0.00 0.00 0.00 33 1013.0
20260504024715 12 29 8.0 30.6 0.00 0.00 0.00 33 1013.0
20260504024705 12 0 17.7 30.6 0.00 0.00 0.00 33 1013.0
20260504024651 12 25 16.1 30.6 0.00 0.00 0.00 33 1013.0
20260504024629 12 80 20.9 30.6 0.00 0.00 0.00 33 1013.0
20260504024623 12 27 11.3 20.9 0.00 0.00 0.00 33 1013.0
20260504024603 12 4 8.0 22.5 0.00 0.00 0.00 33 1013.0
20260504024554 12 4 8.0 22.5 0.00 0.00 0.00 33 1013.0
20260504024539 12 17 8.0 22.5 0.00 0.00 0.00 33 1013.0
20260504024529 12 33 16.1 29.0 0.00 0.00 0.00 33 1013.0
20260504024509 12 20 16.1 29.0 0.00 0.00 0.00 33 1013.0
20260504024452 12 31 16.1 30.6 0.00 0.00 0.00 33 1013.0
20260504024418 12 8 11.3 30.6 0.00 0.00 0.00 33 1013.0
20260504024405 12 28 14.5 30.6 0.00 0.00 0.00 33 1013.0
20260504024345 12 26 17.7 30.6 0.00 0.00 0.00 33 1013.0
20260504024324 12 359 19.3 30.6 0.00 0.00 0.00 33 1013.0
20260504024300 12 35 12.9 25.7 0.00 0.00 0.00 34 1013.0
20260504024251 12 35 12.9 25.7 0.00 0.00 0.00 34 1013.0
20260504024243 12 8 14.5 25.7 0.00 0.00 0.00 34 1013.0
20260504024219 12 14 12.9 25.7 0.00 0.00 0.00 34 1013.0
20260504024210 12 37 9.7 25.7 0.00 0.00 0.00 33 1013.0
20260504024153 12 13 14.5 25.7 0.00 0.00 0.00 33 1013.0
20260504024129 12 355 11.3 25.7 0.00 0.00 0.00 33 1013.0
20260504024114 12 45 19.3 25.7 0.00 0.00 0.00 33 1013.0
20260504024106 12 16 16.1 20.9 0.00 0.00 0.00 34 1013.0
20260504024047 12 33 16.1 22.5 0.00 0.00 0.00 34 1013.0
20260504024017 12 26 12.9 24.1 0.00 0.00 0.00 34 1013.0
20260504024002 12 15 9.7 33.8 0.00 0.00 0.00 33 1013.0
20260504023948 12 339 6.4 33.8 0.00 0.00 0.00 33 1013.0
20260504023922 12 45 9.7 33.8 0.00 0.00 0.00 33 1013.0
20260504023913 12 5 12.9 33.8 0.00 0.00 0.00 33 1013.0
20260504023901 12 7 16.1 33.8 0.00 0.00 0.00 34 1013.0
20260504023841 12 7 16.1 33.8 0.00 0.00 0.00 34 1013.0
20260504023813 12 50 19.3 33.8 0.00 0.00 0.00 34 1013.0
20260504023754 12 3 17.7 24.1 0.00 0.00 0.00 34 1013.0
20260504023737 12 343 14.5 20.9 0.00 0.00 0.00 34 1013.0
20260504023725 12 359 12.9 25.7 0.00 0.00 0.00 34 1013.0
20260504023705 12 7 12.9 25.7 0.00 0.00 0.00 34 1013.0
20260504023650 12 339 11.3 25.7 0.00 0.00 0.00 34 1013.0
20260504023636 12 35 12.9 25.7 0.00 0.00 0.00 34 1013.0
20260504023620 12 12 12.9 25.7 0.00 0.00 0.00 34 1013.0
20260504023546 12 30 19.3 25.7 0.00 0.00 0.00 34 1013.0
20260504023529 12 36 12.9 25.7 0.00 0.00 0.00 34 1013.0
20260504023516 12 359 16.1 25.7 0.00 0.00 0.00 34 1013.0
20260504023508 12 32 11.3 25.7 0.00 0.00 0.00 34 1013.0
20260504023441 12 20 14.5 25.7 0.00 0.00 0.00 34 1013.0
20260504023431 12 22 14.5 22.5 0.00 0.00 0.00 34 1013.0
20260504023401 12 43 9.7 22.5 0.00 0.00 0.00 34 1013.0
20260504023348 12 1 11.3 22.5 0.00 0.00 0.00 34 1013.0
20260504023330 12 57 16.1 22.5 0.00 0.00 0.00 34 1013.0
20260504023314 12 35 17.7 22.5 0.00 0.00 0.00 34 1013.0
20260504023305 12 13 14.5 22.5 0.00 0.00 0.00 34 1013.0
20260504023242 12 13 17.7 29.0 0.00 0.00 0.00 34 1013.0
20260504023234 12 68 17.7 29.0 0.00 0.00 0.00 34 1013.0
20260504023210 12 355 9.7 29.0 0.00 0.00 0.00 34 1013.0
20260504023155 12 24 14.5 29.0 0.00 0.00 0.00 34 1013.0
20260504023137 12 342 16.1 29.0 0.00 0.00 0.00 34 1013.0
20260504023124 12 8 19.3 25.7 0.00 0.00 0.00 35 1013.0
20260504023050 12 22 12.9 20.9 0.00 0.00 0.00 35 1013.0
20260504023041 12 41 11.3 20.9 0.00 0.00 0.00 35 1013.0
20260504023026 12 14 14.5 20.9 0.00 0.00 0.00 34 1013.0
20260504023013 12 25 11.3 20.9 0.00 0.00 0.00 34 1013.0
20260504023003 12 25 11.3 24.1 0.00 0.00 0.00 34 1013.0
20260504022956 12 25 11.3 24.1 0.00 0.00 0.00 34 1013.0
20260504022930 12 77 16.1 24.1 0.00 0.00 0.00 34 1013.0
20260504022922 12 77 16.1 24.1 0.00 0.00 0.00 35 1013.0
20260504022905 12 25 12.9 24.1 0.00 0.00 0.00 35 1013.0
20260504022850 12 16 12.9 24.1 0.00 0.00 0.00 35 1013.0
20260504022841 12 53 11.3 24.1 0.00 0.00 0.00 35 1013.0
20260504022828 12 346 16.1 24.1 0.00 0.00 0.00 35 1013.0
20260504022801 12 38 16.1 22.5 0.00 0.00 0.00 35 1013.0
20260504022745 12 4 8.0 22.5 0.00 0.00 0.00 35 1013.0
20260504022737 12 19 8.0 22.5 0.00 0.00 0.00 35 1013.0
20260504022641 12 28 12.9 35.4 0.00 0.00 0.00 34 1013.0
20260504022627 12 26 16.1 35.4 0.00 0.00 0.00 34 1013.0
20260504022618 12 340 14.5 35.4 0.00 0.00 0.00 34 1013.0
20260504022609 12 340 14.5 35.4 0.00 0.00 0.00 35 1013.0
20260504022545 12 40 20.9 35.4 0.00 0.00 0.00 35 1013.0
20260504022532 12 58 16.1 33.8 0.00 0.00 0.00 35 1013.0
20260504022525 12 12 17.7 33.8 0.00 0.00 0.00 35 1013.0
20260504022506 12 16 16.1 27.4 0.00 0.00 0.00 35 1013.0
20260504022449 12 53 9.7 27.4 0.00 0.00 0.00 35 1013.0
20260504022427 12 22 16.1 27.4 0.00 0.00 0.00 35 1013.0
20260504022417 12 4 17.7 27.4 0.00 0.00 0.00 35 1013.0
20260504022401 12 2 17.7 27.4 0.00 0.00 0.00 35 1013.0
20260504022339 12 61 22.5 27.4 0.00 0.00 0.00 35 1013.0
20260504022331 12 313 14.5 22.5 0.00 0.00 0.00 35 1013.0
20260504022306 12 75 14.5 22.5 0.00 0.00 0.00 35 1013.0
20260504022258 12 346 12.9 22.5 0.00 0.00 0.00 35 1013.0
20260504022241 12 7 19.3 22.5 0.00 0.00 0.00 35 1013.0
20260504022217 12 9 16.1 20.9 0.00 0.00 0.00 35 1013.0
20260504022202 12 4 9.7 17.7 0.00 0.00 0.00 35 1013.0
20260504022154 12 3 11.3 17.7 0.00 0.00 0.00 35 1013.0
20260504022137 12 25 8.0 17.7 0.00 0.00 0.00 35 1013.0
20260504022113 12 41 11.3 17.7 0.00 0.00 0.00 35 1013.0
20260504022049 12 356 9.7 17.7 0.00 0.00 0.00 35 1013.0
20260504022033 12 353 12.9 17.7 0.00 0.00 0.00 35 1013.0
20260504022018 12 357 12.9 20.9 0.00 0.00 0.00 35 1013.0
20260504022009 12 25 14.5 20.9 0.00 0.00 0.00 35 1013.0
20260504021956 12 9 11.3 20.9 0.00 0.00 0.00 35 1013.0
20260504021931 12 8 11.3 20.9 0.00 0.00 0.00 35 1013.0
20260504021914 12 24 12.9 20.9 0.00 0.00 0.00 35 1013.0
20260504021858 12 347 14.5 20.9 0.00 0.00 0.00 35 1013.0
20260504021849 12 22 9.7 16.1 0.00 0.00 0.00 35 1013.0
20260504021826 12 350 6.4 12.9 0.00 0.00 0.00 35 1013.0
20260504021817 12 358 6.4 12.9 0.00 0.00 0.00 35 1013.0
20260504021803 12 41 6.4 24.1 0.00 0.00 0.00 35 1013.0
20260504021753 12 41 6.4 24.1 0.00 0.00 0.00 35 1013.0
20260504021743 12 8 11.3 24.1 0.00 0.00 0.00 35 1013.0
20260504021723 12 39 9.7 29.0 0.00 0.00 0.00 35 1013.0
20260504021715 12 12 8.0 29.0 0.00 0.00 0.00 35 1013.0
20260504021642 12 26 9.7 29.0 0.00 0.00 0.00 35 1013.0
20260504021628 12 353 9.7 29.0 0.00 0.00 0.00 35 1013.0
20260504021621 12 349 14.5 29.0 0.00 0.00 0.00 35 1013.0
20260504021538 12 32 24.1 29.0 0.00 0.00 0.00 35 1013.0
20260504021530 12 347 19.3 24.1 0.00 0.00 0.00 35 1013.0
20260504021505 12 355 17.7 22.5 0.00 0.00 0.00 35 1013.0
20260504021451 12 29 17.7 22.5 0.00 0.00 0.00 35 1013.0
20260504021443 12 7 11.3 20.9 0.00 0.00 0.00 35 1013.0
20260504021417 12 330 9.7 29.0 0.00 0.00 0.00 36 1013.0
20260504021408 12 22 16.1 33.8 0.00 0.00 0.00 36 1013.0
20260504021346 12 2 12.9 33.8 0.00 0.00 0.00 36 1013.0
20260504021337 12 24 9.7 33.8 0.00 0.00 0.00 36 1013.0
20260504021233 12 27 22.5 33.8 0.00 0.00 0.00 36 1013.0
20260504021218 12 15 14.5 17.7 0.00 0.00 0.00 36 1013.0
20260504021209 12 354 12.9 17.7 0.00 0.00 0.00 36 1013.0
20260504021145 12 5 11.3 16.1 0.00 0.00 0.00 36 1013.0
20260504021131 12 50 11.3 16.1 0.00 0.00 0.00 36 1013.0
20260504021105 12 41 8.0 16.1 0.00 0.00 0.00 36 1013.0
20260504021052 12 30 8.0 16.1 0.00 0.00 0.00 36 1013.0
20260504021033 12 32 9.7 16.1 0.00 0.00 0.00 36 1013.0
20260504021017 12 32 11.3 16.1 0.00 0.00 0.00 36 1013.0
20260504021005 12 29 8.0 16.1 0.00 0.00 0.00 36 1013.0
20260504020956 12 29 8.0 16.1 0.00 0.00 0.00 36 1013.0
20260504020937 12 355 9.7 16.1 0.00 0.00 0.00 36 1013.0
20260504020922 12 10 9.7 17.7 0.00 0.00 0.00 36 1013.0
20260504020913 12 23 6.4 17.7 0.00 0.00 0.00 36 1013.0
20260504020857 12 17 9.7 17.7 0.00 0.00 0.00 36 1013.0
20260504020835 12 39 8.0 17.7 0.00 0.00 0.00 36 1013.0
20260504020809 12 13 8.0 17.7 0.00 0.00 0.00 36 1013.0
20260504020756 12 2 9.7 17.7 0.00 0.00 0.00 36 1013.0
20260504020739 12 5 12.9 17.7 0.00 0.00 0.00 36 1013.0
20260504020715 12 29 6.4 14.5 0.00 0.00 0.00 36 1013.0
20260504020649 12 26 4.8 17.7 0.00 0.00 0.00 36 1013.0
20260504020635 12 53 8.0 17.7 0.00 0.00 0.00 36 1013.0
20260504020627 12 4 8.0 17.7 0.00 0.00 0.00 36 1013.0
20260504020601 12 11 6.4 20.9 0.00 0.00 0.00 36 1013.0
20260504020548 12 5 11.3 20.9 0.00 0.00 0.00 35 1013.0
20260504020539 12 38 14.5 20.9 0.00 0.00 0.00 35 1013.0
20260504020531 12 38 14.5 22.5 0.00 0.00 0.00 35 1013.0
20260504020506 12 50 9.7 22.5 0.00 0.00 0.00 35 1013.0
20260504020457 12 50 9.7 22.5 0.00 0.00 0.00 35 1013.0
20260504020443 12 44 11.3 22.5 0.00 0.00 0.00 35 1013.0
20260504020434 12 22 17.7 22.5 0.00 0.00 0.00 35 1013.0
20260504020425 12 22 17.7 33.8 0.00 0.00 0.00 35 1013.0
20260504020411 12 68 16.1 33.8 0.00 0.00 0.00 35 1013.0
20260504020404 12 318 12.9 33.8 0.00 0.00 0.00 35 1013.0
20260504020332 12 38 12.9 33.8 0.00 0.00 0.00 35 1013.0
20260504020323 12 37 11.3 33.8 0.00 0.00 0.00 35 1013.0
20260504020259 12 18 12.9 33.8 0.00 0.00 0.00 35 1013.0
20260504020250 12 16 22.5 33.8 0.00 0.00 0.00 35 1013.0
20260504020234 12 22 25.7 27.4 0.00 0.00 0.00 35 1013.0
20260504020209 12 35 16.1 22.5 0.00 0.00 0.00 35 1013.0
20260504020155 12 18 12.9 22.5 0.00 0.00 0.00 35 1013.0
20260504020146 12 37 16.1 22.5 0.00 0.00 0.00 35 1013.0
20260504020130 12 46 11.3 22.5 0.00 0.00 0.00 36 1013.0
20260504020105 12 42 16.1 22.5 0.00 0.00 0.00 36 1013.0
20260504020051 12 14 11.3 16.1 0.00 0.00 0.00 36 1013.0
20260504020043 12 62 11.3 16.1 0.00 0.00 0.00 36 1013.0
20260504020034 12 62 11.3 16.1 0.00 0.00 0.00 35 1013.0
20260504020020 12 320 6.4 16.1 0.00 0.00 0.00 35 1013.0
20260504015947 12 3 8.0 29.0 0.00 0.00 0.00 35 1013.0
20260504015938 12 6 11.3 29.0 0.00 0.00 0.00 35 1013.0
20260504015917 12 38 8.0 29.0 0.00 0.00 0.00 35 1013.0
20260504015857 12 116 9.7 29.0 0.00 0.00 0.00 35 1013.0
20260504015836 12 1 17.7 29.0 0.00 0.00 0.00 35 1013.0
20260504015809 12 31 20.9 29.0 0.00 0.00 0.00 35 1013.0
20260504015800 12 20 14.5 25.7 0.00 0.00 0.00 35 1013.0
20260504015717 12 355 11.3 25.7 0.00 0.00 0.00 36 1013.0
20260504015709 12 31 11.3 25.7 0.00 0.00 0.00 36 1013.0
20260504015650 12 31 11.3 25.7 0.00 0.00 0.00 36 1013.0
20260504015635 12 5 14.5 24.1 0.00 0.00 0.00 36 1013.0
20260504015627 12 5 14.5 27.4 0.00 0.00 0.00 36 1013.0
20260504015618 12 28 11.3 27.4 0.00 0.00 0.00 35 1013.0
20260504015603 12 15 17.7 27.4 0.00 0.00 0.00 35 1013.0
20260504015554 12 15 17.7 27.4 0.00 0.00 0.00 35 1013.0
20260504015539 12 324 16.1 27.4 0.00 0.00 0.00 35 1013.0
20260504015522 12 44 14.5 27.4 0.00 0.00 0.00 35 1013.0
20260504015501 12 5 22.5 27.4 0.00 0.00 0.00 35 1013.0
20260504015442 12 68 17.7 27.4 0.00 0.00 0.00 35 1013.0
20260504015428 12 13 12.9 24.1 0.00 0.00 0.00 35 1013.0
20260504015420 12 343 8.0 22.5 0.00 0.00 0.00 35 1013.0
20260504015355 12 20 9.7 22.5 0.00 0.00 0.00 35 1013.0
20260504015345 12 20 8.0 22.5 0.00 0.00 0.00 35 1013.0
20260504015323 12 59 11.3 22.5 0.00 0.00 0.00 35 1013.0
20260504015314 12 34 14.5 22.5 0.00 0.00 0.00 35 1013.0
20260504015250 12 350 8.0 17.7 0.00 0.00 0.00 35 1013.0
20260504015236 12 42 4.8 17.7 0.00 0.00 0.00 35 1013.0
20260504015218 12 98 11.3 17.7 0.00 0.00 0.00 35 1013.0
20260504015204 12 325 9.7 17.7 0.00 0.00 0.00 35 1013.0
20260504015139 12 18 11.3 17.7 0.00 0.00 0.00 35 1013.0
20260504015131 12 18 11.3 20.9 0.00 0.00 0.00 35 1013.0
20260504015122 12 348 12.9 20.9 0.00 0.00 0.00 35 1013.0
20260504015105 12 15 11.3 20.9 0.00 0.00 0.00 35 1013.0
20260504015045 12 17 9.7 20.9 0.00 0.00 0.00 35 1013.0
20260504015026 12 3 9.7 20.9 0.00 0.00 0.00 35 1013.0
20260504015001 12 18 17.7 20.9 0.00 0.00 0.00 35 1013.0
20260504014945 12 4 12.9 17.7 0.00 0.00 0.00 35 1013.0
20260504014930 12 338 8.0 20.9 0.00 0.00 0.00 35 1013.0
20260504014921 12 25 8.0 20.9 0.00 0.00 0.00 35 1013.0
20260504014907 12 49 9.7 20.9 0.00 0.00 0.00 35 1013.0
20260504014858 12 49 9.7 25.7 0.00 0.00 0.00 35 1013.0
20260504014850 12 48 9.7 25.7 0.00 0.00 0.00 35 1013.0
20260504014825 12 13 6.4 25.7 0.00 0.00 0.00 35 1013.0
20260504014812 12 354 12.9 25.7 0.00 0.00 0.00 35 1013.0
20260504014802 12 350 14.5 25.7 0.00 0.00 0.00 35 1013.0
20260504014753 12 350 14.5 25.7 0.00 0.00 0.00 35 1013.0
20260504014739 12 346 14.5 25.7 0.00 0.00 0.00 35 1013.0
20260504014729 12 37 17.7 25.7 0.00 0.00 0.00 35 1013.0
20260504014710 12 100 9.7 25.7 0.00 0.00 0.00 35 1013.0
20260504014634 13 12 12.9 25.7 0.00 0.00 0.00 35 1013.0
20260504014619 13 5 14.5 29.0 0.00 0.00 0.00 35 1013.0
20260504014610 13 349 12.9 29.0 0.00 0.00 0.00 35 1013.0
20260504014602 13 349 12.9 33.8 0.00 0.00 0.00 35 1013.0
20260504014546 13 348 19.3 33.8 0.00 0.00 0.00 35 1013.0
20260504014534 13 34 19.3 33.8 0.00 0.00 0.00 35 1013.0
20260504014516 13 22 14.5 33.8 0.00 0.00 0.00 35 1013.0
20260504014450 13 21 17.7 33.8 0.00 0.00 0.00 35 1013.0
20260504014442 13 55 20.9 33.8 0.00 0.00 0.00 35 1013.0
20260504014425 13 40 11.3 29.0 0.00 0.00 0.00 35 1013.0
20260504014414 13 351 17.7 29.0 0.00 0.00 0.00 35 1013.0
20260504014338 13 25 17.7 29.0 0.00 0.00 0.00 35 1013.0
20260504014317 13 2 20.9 29.0 0.00 0.00 0.00 35 1013.0
20260504014257 13 25 22.5 27.4 0.00 0.00 0.00 35 1013.0
20260504014242 13 50 16.1 27.4 0.00 0.00 0.00 35 1013.0
20260504014233 13 29 19.3 27.4 0.00 0.00 0.00 35 1013.0
20260504014217 13 25 20.9 25.7 0.00 0.00 0.00 34 1013.0
20260504014203 13 12 14.5 25.7 0.00 0.00 0.00 34 1013.0
20260504014129 13 12 14.5 25.7 0.00 0.00 0.00 34 1013.0
20260504014117 13 47 9.7 25.7 0.00 0.00 0.00 34 1013.0
20260504014107 13 17 11.3 25.7 0.00 0.00 0.00 34 1013.0
20260504014059 13 17 11.3 25.7 0.00 0.00 0.00 34 1013.0
20260504014050 13 354 9.7 25.7 0.00 0.00 0.00 34 1013.0
20260504014030 13 29 14.5 25.7 0.00 0.00 0.00 34 1013.0
20260504014009 13 343 14.5 25.7 0.00 0.00 0.00 34 1013.0
20260504013957 13 14 16.1 24.1 0.00 0.00 0.00 34 1013.0
20260504013939 13 41 14.5 24.1 0.00 0.00 0.00 34 1013.0
20260504013922 13 32 11.3 24.1 0.00 0.00 0.00 34 1013.0
20260504013906 13 27 17.7 24.1 0.00 0.00 0.00 34 1013.0
20260504013857 13 29 17.7 24.1 0.00 0.00 0.00 34 1013.0
20260504013835 13 52 19.3 24.1 0.00 0.00 0.00 34 1013.0
20260504013825 13 26 12.9 22.5 0.00 0.00 0.00 34 1013.0
20260504013801 13 42 16.1 22.5 0.00 0.00 0.00 34 1013.0
20260504013748 13 45 17.7 22.5 0.00 0.00 0.00 34 1013.0
20260504013741 13 7 12.9 16.1 0.00 0.00 0.00 34 1013.0
20260504013706 13 14 6.4 16.1 0.00 0.00 0.00 34 1013.0
20260504013651 13 31 9.7 33.8 0.00 0.00 0.00 34 1013.0
20260504013633 13 58 12.9 33.8 0.00 0.00 0.00 34 1013.0
20260504013618 13 34 6.4 33.8 0.00 0.00 0.00 34 1013.0
20260504013604 13 2 9.7 33.8 0.00 0.00 0.00 33 1013.0
20260504013557 13 28 9.7 33.8 0.00 0.00 0.00 33 1013.0
20260504013514 13 35 24.1 33.8 0.00 0.00 0.00 33 1013.0
20260504013459 13 20 19.3 29.0 0.00 0.00 0.00 33 1013.0
20260504013441 13 26 9.7 29.0 0.00 0.00 0.00 33 1013.0
20260504013430 13 11 14.5 29.0 0.00 0.00 0.00 33 1013.0
20260504013356 13 28 16.1 33.8 0.00 0.00 0.00 33 1013.0
20260504013349 13 26 14.5 33.8 0.00 0.00 0.00 33 1013.0
20260504013329 13 41 14.5 33.8 0.00 0.00 0.00 33 1013.0
20260504013305 13 17 12.9 33.8 0.00 0.00 0.00 33 1013.0
20260504013249 13 350 19.3 33.8 0.00 0.00 0.00 33 1013.0
20260504013226 13 20 14.5 33.8 0.00 0.00 0.00 33 1013.0
20260504013210 13 27 16.1 33.8 0.00 0.00 0.00 33 1013.0
20260504013202 13 25 17.7 25.7 0.00 0.00 0.00 33 1013.0
20260504013145 13 357 16.1 22.5 0.00 0.00 0.00 33 1013.0
20260504013121 13 5 19.3 22.5 0.00 0.00 0.00 33 1013.0
20260504013108 13 13 11.3 20.9 0.00 0.00 0.00 33 1013.0
20260504013042 13 53 9.7 20.9 0.00 0.00 0.00 33 1013.0
20260504013019 13 2 12.9 25.7 0.00 0.00 0.00 33 1012.0
20260504013009 13 359 12.9 25.7 0.00 0.00 0.00 33 1012.0
20260504012953 13 47 12.9 25.7 0.00 0.00 0.00 33 1012.0
20260504012941 13 33 11.3 25.7 0.00 0.00 0.00 33 1012.0
20260504012931 13 33 11.3 27.4 0.00 0.00 0.00 33 1012.0
20260504012923 13 43 11.3 27.4 0.00 0.00 0.00 33 1012.0
20260504012859 13 28 12.9 27.4 0.00 0.00 0.00 33 1012.0
20260504012835 13 16 16.1 27.4 0.00 0.00 0.00 33 1012.0
20260504012817 13 16 16.1 27.4 0.00 0.00 0.00 33 1013.0
20260504012801 13 8 16.1 27.4 0.00 0.00 0.00 33 1013.0
20260504012753 13 39 20.9 27.4 0.00 0.00 0.00 33 1013.0
20260504012708 13 347 14.5 24.1 0.00 0.00 0.00 33 1012.0
20260504012650 13 29 17.7 24.1 0.00 0.00 0.00 33 1012.0
20260504012609 13 32 4.8 24.1 0.00 0.00 0.00 32 1013.0
20260504012554 13 24 11.3 30.6 0.00 0.00 0.00 32 1013.0
20260504012545 13 1 14.5 30.6 0.00 0.00 0.00 32 1013.0
20260504012529 13 6 17.7 30.6 0.00 0.00 0.00 32 1012.0
20260504012505 13 6 11.3 30.6 0.00 0.00 0.00 33 1012.0
20260504012452 13 323 14.5 30.6 0.00 0.00 0.00 33 1012.0
20260504012425 13 355 12.9 22.5 0.00 0.00 0.00 33 1012.0
20260504012410 13 310 14.5 20.9 0.00 0.00 0.00 32 1012.0
20260504012401 13 310 14.5 24.1 0.00 0.00 0.00 32 1012.0
20260504012337 13 357 9.7 24.1 0.00 0.00 0.00 32 1012.0
20260504012321 13 59 9.7 24.1 0.00 0.00 0.00 32 1012.0
20260504012309 13 8 12.9 24.1 0.00 0.00 0.00 32 1012.0
20260504012249 13 5 14.5 25.7 0.00 0.00 0.00 32 1012.0
20260504012234 13 25 17.7 25.7 0.00 0.00 0.00 32 1012.0
20260504012226 13 36 16.1 29.0 0.00 0.00 0.00 32 1013.0
20260504012208 13 55 14.5 29.0 0.00 0.00 0.00 32 1013.0
20260504012152 13 31 12.9 29.0 0.00 0.00 0.00 32 1013.0
20260504012122 13 46 17.7 29.0 0.00 0.00 0.00 32 1013.0
20260504012105 13 345 17.7 29.0 0.00 0.00 0.00 32 1013.0
20260504012041 13 357 20.9 29.0 0.00 0.00 0.00 32 1013.0
20260504012026 13 56 11.3 33.8 0.00 0.00 0.00 32 1013.0
20260504012018 13 12 11.3 33.8 0.00 0.00 0.00 32 1013.0
20260504012006 13 7 12.9 33.8 0.00 0.00 0.00 33 1013.0
20260504011959 13 7 12.9 33.8 0.00 0.00 0.00 33 1013.0
20260504011940 13 6 17.7 33.8 0.00 0.00 0.00 33 1013.0
20260504011921 13 55 14.5 33.8 0.00 0.00 0.00 33 1012.0
20260504011905 13 35 17.7 33.8 0.00 0.00 0.00 33 1012.0
20260504011841 13 0 14.5 33.8 0.00 0.00 0.00 33 1012.0
20260504011826 13 50 20.9 33.8 0.00 0.00 0.00 33 1012.0
20260504011818 13 38 9.7 25.7 0.00 0.00 0.00 33 1012.0
20260504011801 13 35 8.0 29.0 0.00 0.00 0.00 33 1012.0
20260504011741 13 55 11.3 29.0 0.00 0.00 0.00 33 1012.0
20260504011722 13 17 14.5 30.6 0.00 0.00 0.00 33 1012.0
20260504011713 13 33 14.5 30.6 0.00 0.00 0.00 33 1012.0
20260504011700 13 24 20.9 30.6 0.00 0.00 0.00 33 1012.0
20260504011640 13 23 14.5 30.6 0.00 0.00 0.00 33 1012.0
20260504011601 13 31 17.7 30.6 0.00 0.00 0.00 33 1013.0
20260504011546 13 347 17.7 30.6 0.00 0.00 0.00 33 1013.0
20260504011537 13 353 19.3 25.7 0.00 0.00 0.00 33 1013.0
20260504011523 13 353 19.3 41.8 0.00 0.00 0.00 33 1012.0
20260504011505 13 6 12.9 41.8 0.00 0.00 0.00 33 1012.0
20260504011450 13 340 6.4 41.8 0.00 0.00 0.00 33 1012.0
20260504011441 13 328 11.3 41.8 0.00 0.00 0.00 33 1012.0
20260504011421 13 12 14.5 41.8 0.00 0.00 0.00 33 1012.0
20260504011402 13 74 12.9 41.8 0.00 0.00 0.00 33 1012.0
20260504011348 13 357 27.4 41.8 0.00 0.00 0.00 33 1012.0
20260504011329 13 35 19.3 35.4 0.00 0.00 0.00 33 1012.0
20260504011315 13 30 17.7 25.7 0.00 0.00 0.00 33 1012.0
20260504011306 13 43 19.3 25.7 0.00 0.00 0.00 33 1012.0
20260504011257 13 43 19.3 25.7 0.00 0.00 0.00 33 1012.0
20260504011242 13 6 8.0 24.1 0.00 0.00 0.00 33 1012.0
20260504011233 13 341 8.0 24.1 0.00 0.00 0.00 33 1012.0
20260504011213 13 12 11.3 24.1 0.00 0.00 0.00 33 1012.0
20260504011154 13 2 11.3 25.7 0.00 0.00 0.00 33 1012.0
20260504011137 13 47 6.4 25.7 0.00 0.00 0.00 33 1012.0
20260504011122 13 335 12.9 25.7 0.00 0.00 0.00 34 1012.0
20260504011113 13 20 17.7 25.7 0.00 0.00 0.00 34 1012.0
20260504011049 13 29 6.4 25.7 0.00 0.00 0.00 34 1012.0
20260504011033 13 28 9.7 25.7 0.00 0.00 0.00 34 1012.0
20260504011009 13 15 17.7 25.7 0.00 0.00 0.00 34 1012.0
20260504010954 13 30 12.9 25.7 0.00 0.00 0.00 34 1012.0
20260504010929 13 12 6.4 25.7 0.00 0.00 0.00 34 1012.0
20260504010905 13 38 9.7 25.7 0.00 0.00 0.00 34 1012.0
20260504010850 13 21 11.3 27.4 0.00 0.00 0.00 34 1012.0
20260504010841 13 42 12.9 27.4 0.00 0.00 0.00 34 1012.0
20260504010825 13 28 12.9 27.4 0.00 0.00 0.00 34 1012.0
20260504010801 13 37 17.7 27.4 0.00 0.00 0.00 34 1012.0
20260504010747 13 41 16.1 27.4 0.00 0.00 0.00 34 1012.0
20260504010740 13 20 20.9 27.4 0.00 0.00 0.00 34 1012.0
20260504010715 13 22 19.3 27.4 0.00 0.00 0.00 34 1012.0
20260504010644 13 6 17.7 22.5 0.00 0.00 0.00 34 1012.0
20260504010618 13 33 12.9 22.5 0.00 0.00 0.00 34 1012.0
20260504010609 13 314 11.3 22.5 0.00 0.00 0.00 34 1012.0
20260504010549 13 22 9.7 22.5 0.00 0.00 0.00 34 1012.0
20260504010530 13 22 12.9 22.5 0.00 0.00 0.00 34 1012.0
20260504010522 13 17 17.7 22.5 0.00 0.00 0.00 34 1012.0
20260504010506 13 27 11.3 17.7 0.00 0.00 0.00 34 1012.0
20260504010457 13 27 11.3 17.7 0.00 0.00 0.00 34 1012.0
20260504010446 13 0 9.7 17.7 0.00 0.00 0.00 34 1012.0
20260504010410 13 343 14.5 22.5 0.00 0.00 0.00 34 1012.0
20260504010401 13 348 12.9 22.5 0.00 0.00 0.00 33 1012.0
20260504010340 13 22 16.1 22.5 0.00 0.00 0.00 33 1012.0
20260504010316 13 342 9.7 22.5 0.00 0.00 0.00 33 1012.0
20260504010252 13 42 12.9 22.5 0.00 0.00 0.00 34 1012.0
20260504010234 13 39 16.1 20.9 0.00 0.00 0.00 34 1012.0
20260504010217 13 26 16.1 20.9 0.00 0.00 0.00 34 1012.0
20260504010205 13 8 12.9 25.7 0.00 0.00 0.00 34 1012.0
20260504010157 13 8 12.9 25.7 0.00 0.00 0.00 34 1012.0
20260504010138 13 45 14.5 25.7 0.00 0.00 0.00 34 1012.0
20260504010122 13 309 11.3 25.7 0.00 0.00 0.00 34 1012.0
20260504010114 13 40 11.3 25.7 0.00 0.00 0.00 34 1012.0
20260504010100 13 4 12.9 25.7 0.00 0.00 0.00 34 1012.0
20260504010034 13 26 16.1 25.7 0.00 0.00 0.00 34 1012.0
20260504010019 13 27 12.9 22.5 0.00 0.00 0.00 34 1012.0
20260504010003 13 334 8.0 22.5 0.00 0.00 0.00 34 1012.0
20260504005947 13 1 9.7 22.5 0.00 0.00 0.00 34 1012.0
20260504005938 13 29 6.4 22.5 0.00 0.00 0.00 34 1012.0
20260504005914 13 0 9.7 22.5 0.00 0.00 0.00 34 1012.0
20260504005905 13 7 12.9 22.5 0.00 0.00 0.00 34 1012.0
20260504005842 13 16 12.9 22.5 0.00 0.00 0.00 34 1012.0
20260504005828 13 10 6.4 24.1 0.00 0.00 0.00 34 1012.0
20260504005821 13 17 9.7 24.1 0.00 0.00 0.00 34 1012.0
20260504005802 13 7 11.3 27.4 0.00 0.00 0.00 34 1012.0
20260504005730 13 29 16.1 27.4 0.00 0.00 0.00 34 1012.0
20260504005722 13 1 17.7 27.4 0.00 0.00 0.00 34 1012.0
20260504005708 13 4 9.7 27.4 0.00 0.00 0.00 34 1012.0
20260504005641 13 24 16.1 27.4 0.00 0.00 0.00 34 1012.0
20260504005627 13 20 19.3 27.4 0.00 0.00 0.00 34 1012.0
20260504005609 13 354 12.9 17.7 0.00 0.00 0.00 34 1012.0
20260504005553 13 358 12.9 20.9 0.00 0.00 0.00 34 1012.0
20260504005542 13 329 12.9 20.9 0.00 0.00 0.00 34 1012.0
20260504005508 13 13 11.3 20.9 0.00 0.00 0.00 35 1012.0
20260504005450 13 344 11.3 20.9 0.00 0.00 0.00 35 1012.0
20260504005434 13 351 12.9 20.9 0.00 0.00 0.00 35 1012.0
20260504005425 13 325 14.5 20.9 0.00 0.00 0.00 35 1012.0
20260504005405 13 2 6.4 14.5 0.00 0.00 0.00 35 1012.0
20260504005346 13 345 9.7 14.5 0.00 0.00 0.00 35 1012.0
20260504005329 13 8 6.4 25.7 0.00 0.00 0.00 35 1012.0
20260504005306 13 28 9.7 25.7 0.00 0.00 0.00 35 1012.0
20260504005250 13 17 11.3 25.7 0.00 0.00 0.00 35 1012.0
20260504005242 13 341 11.3 25.7 0.00 0.00 0.00 35 1012.0
20260504005225 13 14 11.3 25.7 0.00 0.00 0.00 35 1012.0
20260504005202 13 356 17.7 25.7 0.00 0.00 0.00 35 1012.0
20260504005146 13 23 17.7 24.1 0.00 0.00 0.00 35 1012.0
20260504005140 13 38 11.3 24.1 0.00 0.00 0.00 35 1012.0
20260504005121 13 4 14.5 24.1 0.00 0.00 0.00 35 1012.0
20260504005106 13 7 17.7 24.1 0.00 0.00 0.00 34 1012.0
20260504005057 13 7 17.7 24.1 0.00 0.00 0.00 34 1012.0
20260504005043 13 53 12.9 20.9 0.00 0.00 0.00 34 1012.0
20260504005034 13 357 8.0 14.5 0.00 0.00 0.00 34 1012.0
20260504005018 13 351 9.7 14.5 0.00 0.00 0.00 34 1012.0
20260504005002 13 14 12.9 22.5 0.00 0.00 0.00 35 1012.0
20260504004954 13 14 12.9 22.5 0.00 0.00 0.00 35 1012.0
20260504004938 13 5 9.7 22.5 0.00 0.00 0.00 35 1012.0
20260504004930 13 357 8.0 22.5 0.00 0.00 0.00 35 1012.0
20260504004914 13 18 9.7 22.5 0.00 0.00 0.00 35 1012.0
20260504004850 13 8 9.7 22.5 0.00 0.00 0.00 35 1012.0
20260504004826 13 18 12.9 22.5 0.00 0.00 0.00 35 1012.0
20260504004810 13 357 14.5 22.5 0.00 0.00 0.00 35 1012.0
20260504004754 13 7 9.7 17.7 0.00 0.00 0.00 35 1012.0
20260504004745 13 19 12.9 17.7 0.00 0.00 0.00 35 1012.0
20260504004722 13 62 9.7 17.7 0.00 0.00 0.00 35 1012.0
20260504004709 13 8 11.3 17.7 0.00 0.00 0.00 35 1012.0
20260504004650 13 39 9.7 17.7 0.00 0.00 0.00 36 1012.0
20260504004635 13 3 8.0 17.7 0.00 0.00 0.00 36 1012.0
20260504004628 13 10 8.0 17.7 0.00 0.00 0.00 36 1012.0
20260504004603 13 314 12.9 22.5 0.00 0.00 0.00 36 1012.0
20260504004554 13 359 9.7 22.5 0.00 0.00 0.00 35 1012.0
20260504004543 13 332 12.9 22.5 0.00 0.00 0.00 35 1012.0
20260504004514 13 20 11.3 22.5 0.00 0.00 0.00 35 1012.0
20260504004457 13 26 9.7 24.1 0.00 0.00 0.00 35 1012.0
20260504004444 13 310 12.9 24.1 0.00 0.00 0.00 35 1012.0
20260504004434 13 41 11.3 24.1 0.00 0.00 0.00 35 1012.0
20260504004425 13 41 11.3 27.4 0.00 0.00 0.00 35 1012.0
20260504004412 13 56 16.1 27.4 0.00 0.00 0.00 35 1012.0
20260504004406 13 56 16.1 33.8 0.00 0.00 0.00 35 1012.0
20260504004346 13 37 11.3 33.8 0.00 0.00 0.00 35 1012.0
20260504004332 13 4 11.3 33.8 0.00 0.00 0.00 35 1012.0
20260504004326 13 16 14.5 33.8 0.00 0.00 0.00 35 1012.0
20260504004249 13 350 16.1 33.8 0.00 0.00 0.00 35 1012.0
20260504004226 13 358 17.7 33.8 0.00 0.00 0.00 35 1012.0
20260504004210 13 41 19.3 30.6 0.00 0.00 0.00 35 1012.0
20260504004201 13 17 22.5 30.6 0.00 0.00 0.00 35 1012.0
20260504004145 13 3 22.5 30.6 0.00 0.00 0.00 35 1012.0
20260504004124 13 26 17.7 30.6 0.00 0.00 0.00 35 1012.0
20260504004058 13 29 9.7 30.6 0.00 0.00 0.00 35 1012.0
20260504004038 13 351 8.0 30.6 0.00 0.00 0.00 35 1012.0
20260504004017 13 350 17.7 30.6 0.00 0.00 0.00 35 1012.0
20260504004004 13 31 11.3 22.5 0.00 0.00 0.00 35 1012.0
20260504003941 13 354 14.5 22.5 0.00 0.00 0.00 35 1012.0
20260504003921 14 6 6.4 20.9 0.00 0.00 0.00 35 1012.0
20260504003908 14 331 6.4 20.9 0.00 0.00 0.00 35 1012.0
20260504003850 14 11 9.7 20.9 0.00 0.00 0.00 35 1012.0
20260504003835 14 5 9.7 20.9 0.00 0.00 0.00 35 1012.0
20260504003805 14 5 11.3 24.1 0.00 0.00 0.00 34 1012.0
20260504003746 14 7 11.3 24.1 0.00 0.00 0.00 34 1012.0
20260504003729 14 38 9.7 24.1 0.00 0.00 0.00 34 1012.0
20260504003714 14 47 12.9 24.1 0.00 0.00 0.00 34 1012.0
20260504003705 14 38 16.1 24.1 0.00 0.00 0.00 34 1012.0
20260504003642 14 18 14.5 24.1 0.00 0.00 0.00 34 1012.0
20260504003626 14 17 17.7 24.1 0.00 0.00 0.00 34 1012.0
20260504003610 14 39 11.3 17.7 0.00 0.00 0.00 34 1012.0
20260504003601 14 30 11.3 17.7 0.00 0.00 0.00 34 1012.0
20260504003538 14 2 12.9 17.7 0.00 0.00 0.00 34 1012.0
20260504003522 14 339 8.0 24.1 0.00 0.00 0.00 34 1012.0
20260504003506 14 339 6.4 24.1 0.00 0.00 0.00 33 1012.0
20260504003458 14 339 6.4 24.1 0.00 0.00 0.00 33 1012.0
20260504003444 14 30 8.0 24.1 0.00 0.00 0.00 33 1012.0
20260504003417 14 359 14.5 24.1 0.00 0.00 0.00 33 1012.0
20260504003403 14 24 17.7 24.1 0.00 0.00 0.00 34 1012.0
20260504003353 14 24 17.7 24.1 0.00 0.00 0.00 34 1012.0
20260504003338 14 350 12.9 24.1 0.00 0.00 0.00 34 1012.0
20260504003313 14 1 9.7 20.9 0.00 0.00 0.00 34 1012.0
20260504003249 14 17 14.5 25.7 0.00 0.00 0.00 34 1012.0
20260504003234 14 34 9.7 25.7 0.00 0.00 0.00 34 1012.0
20260504003225 14 4 9.7 25.7 0.00 0.00 0.00 34 1012.0
20260504003202 14 348 16.1 25.7 0.00 0.00 0.00 34 1012.0
20260504003153 14 54 12.9 25.7 0.00 0.00 0.00 34 1012.0
20260504003133 14 28 14.5 25.7 0.00 0.00 0.00 34 1012.0
20260504003114 14 31 14.5 25.7 0.00 0.00 0.00 34 1012.0
20260504003101 14 338 12.9 37.0 0.00 0.00 0.00 34 1012.0
20260504003052 14 338 12.9 37.0 0.00 0.00 0.00 34 1012.0
20260504003044 14 16 12.9 37.0 0.00 0.00 0.00 34 1012.0
20260504003024 14 355 12.9 37.0 0.00 0.00 0.00 34 1012.0
20260504003002 14 7 12.9 37.0 0.00 0.00 0.00 34 1012.0
20260504002949 14 323 22.5 37.0 0.00 0.00 0.00 34 1012.0
20260504002929 14 358 19.3 37.0 0.00 0.00 0.00 34 1012.0
20260504002914 14 23 19.3 33.8 0.00 0.00 0.00 34 1012.0
20260504002906 14 342 19.3 33.8 0.00 0.00 0.00 34 1012.0
20260504002844 14 15 20.9 29.0 0.00 0.00 0.00 34 1012.0
20260504002817 14 17 14.5 27.4 0.00 0.00 0.00 34 1012.0
20260504002808 14 2 17.7 27.4 0.00 0.00 0.00 34 1012.0
20260504002750 14 290 20.9 24.1 0.00 0.00 0.00 34 1012.0
20260504002721 14 348 12.9 29.0 0.00 0.00 0.00 34 1012.0
20260504002708 14 24 11.3 29.0 0.00 0.00 0.00 34 1012.0
20260504002643 14 34 9.7 29.0 0.00 0.00 0.00 34 1012.0
20260504002625 14 347 12.9 29.0 0.00 0.00 0.00 34 1012.0
20260504002609 14 29 12.9 29.0 0.00 0.00 0.00 34 1012.0
20260504002558 14 5 9.7 29.0 0.00 0.00 0.00 34 1012.0
20260504002539 14 351 19.3 29.0 0.00 0.00 0.00 35 1012.0
20260504002529 14 37 16.1 20.9 0.00 0.00 0.00 35 1012.0
20260504002516 14 18 9.7 16.1 0.00 0.00 0.00 35 1012.0
20260504002449 14 6 6.4 16.1 0.00 0.00 0.00 35 1012.0
20260504002434 14 335 9.7 16.1 0.00 0.00 0.00 35 1012.0
20260504002425 14 23 11.3 22.5 0.00 0.00 0.00 35 1012.0
20260504002401 14 9 8.0 22.5 0.00 0.00 0.00 35 1012.0
20260504002345 14 355 9.7 22.5 0.00 0.00 0.00 35 1012.0
20260504002331 14 74 6.4 22.5 0.00 0.00 0.00 34 1012.0
20260504002313 14 327 12.9 22.5 0.00 0.00 0.00 34 1012.0
20260504002257 14 39 12.9 22.5 0.00 0.00 0.00 34 1012.0
20260504002244 14 356 17.7 22.5 0.00 0.00 0.00 34 1012.0
20260504002237 14 15 16.1 22.5 0.00 0.00 0.00 34 1012.0
20260504002217 14 15 16.1 25.7 0.00 0.00 0.00 34 1012.0
20260504002202 14 20 16.1 25.7 0.00 0.00 0.00 34 1012.0
20260504002154 14 311 14.5 25.7 0.00 0.00 0.00 34 1012.0
20260504002140 14 347 9.7 25.7 0.00 0.00 0.00 34 1012.0
20260504002122 14 5 12.9 25.7 0.00 0.00 0.00 35 1012.0
20260504002110 14 25 17.7 25.7 0.00 0.00 0.00 35 1012.0
20260504002028 14 6 11.3 25.7 0.00 0.00 0.00 35 1012.0
20260504002010 14 39 11.3 25.7 0.00 0.00 0.00 35 1012.0
20260504001954 14 355 17.7 25.7 0.00 0.00 0.00 35 1012.0
20260504001945 14 7 20.9 25.7 0.00 0.00 0.00 35 1012.0
20260504001929 14 24 12.9 29.0 0.00 0.00 0.00 35 1012.0
20260504001908 14 2 16.1 29.0 0.00 0.00 0.00 35 1012.0
20260504001841 14 33 9.7 29.0 0.00 0.00 0.00 35 1012.0
20260504001817 14 319 12.9 29.0 0.00 0.00 0.00 35 1012.0
20260504001802 14 22 16.1 29.0 0.00 0.00 0.00 35 1012.0
20260504001753 14 22 16.1 29.0 0.00 0.00 0.00 35 1012.0
20260504001739 14 9 19.3 29.0 0.00 0.00 0.00 35 1012.0
20260504001721 14 26 16.1 25.7 0.00 0.00 0.00 35 1012.0
20260504001706 14 32 14.5 25.7 0.00 0.00 0.00 35 1012.0
20260504001657 14 43 12.9 25.7 0.00 0.00 0.00 35 1012.0
20260504001636 14 352 20.9 25.7 0.00 0.00 0.00 35 1012.0
20260504001601 14 326 9.7 17.7 0.00 0.00 0.00 35 1012.0
20260504001546 14 353 12.9 17.7 0.00 0.00 0.00 35 1012.0
20260504001537 14 59 14.5 17.7 0.00 0.00 0.00 35 1012.0
20260504001521 14 349 9.7 16.1 0.00 0.00 0.00 35 1012.0
20260504001506 14 14 8.0 16.1 0.00 0.00 0.00 35 1012.0
20260504001457 14 14 8.0 16.1 0.00 0.00 0.00 35 1012.0
20260504001443 14 4 9.7 16.1 0.00 0.00 0.00 35 1012.0
20260504001426 14 14 6.4 16.1 0.00 0.00 0.00 35 1012.0
20260504001410 14 332 12.9 16.1 0.00 0.00 0.00 35 1012.0
20260504001401 14 44 6.4 12.9 0.00 0.00 0.00 35 1012.0
20260504001339 13 317 3.2 12.9 0.00 0.00 0.00 35 1012.0
20260504001315 13 280 6.4 12.9 0.00 0.00 0.00 35 1012.0
20260504001245 13 344 9.7 25.7 0.00 0.00 0.00 35 1012.0
20260504001226 13 6 8.0 25.7 0.00 0.00 0.00 35 1012.0
20260504001218 13 347 11.3 25.7 0.00 0.00 0.00 35 1012.0
20260504001202 13 17 11.3 25.7 0.00 0.00 0.00 35 1012.0
20260504001153 13 17 11.3 25.7 0.00 0.00 0.00 35 1012.0
20260504001139 13 1 8.0 25.7 0.00 0.00 0.00 35 1012.0
20260504001121 13 340 14.5 25.7 0.00 0.00 0.00 35 1012.0
20260504001106 13 355 12.9 17.7 0.00 0.00 0.00 35 1012.0
20260504001057 13 12 11.3 20.9 0.00 0.00 0.00 35 1012.0
20260504001034 13 359 9.7 20.9 0.00 0.00 0.00 35 1012.0
20260504001025 13 36 9.7 22.5 0.00 0.00 0.00 35 1012.0
20260504001012 13 12 12.9 22.5 0.00 0.00 0.00 35 1012.0
20260504000947 13 2 11.3 22.5 0.00 0.00 0.00 35 1012.0
20260504000940 13 4 12.9 22.5 0.00 0.00 0.00 35 1012.0
20260504000913 13 331 12.9 24.1 0.00 0.00 0.00 35 1012.0
20260504000900 13 3 17.7 24.1 0.00 0.00 0.00 35 1012.0
20260504000851 13 3 17.7 24.1 0.00 0.00 0.00 35 1012.0
20260504000843 13 22 8.0 24.1 0.00 0.00 0.00 35 1012.0
20260504000818 13 353 12.9 24.1 0.00 0.00 0.00 35 1012.0
20260504000809 13 32 17.7 24.1 0.00 0.00 0.00 35 1012.0
20260504000753 13 350 17.7 22.5 0.00 0.00 0.00 35 1012.0
20260504000738 13 41 11.3 16.1 0.00 0.00 0.00 35 1012.0
20260504000729 14 41 11.3 16.1 0.00 0.00 0.00 34 1012.0
20260504000714 14 341 12.9 16.1 0.00 0.00 0.00 34 1012.0
20260504000705 14 20 12.9 14.5 0.00 0.00 0.00 34 1012.0
20260504000652 14 359 11.3 22.5 0.00 0.00 0.00 34 1012.0
20260504000633 14 11 8.0 22.5 0.00 0.00 0.00 34 1012.0
20260504000601 14 337 11.3 22.5 0.00 0.00 0.00 35 1012.0
20260504000537 14 24 16.1 22.5 0.00 0.00 0.00 35 1012.0
20260504000527 14 352 12.9 20.9 0.00 0.00 0.00 35 1012.0
20260504000441 14 354 4.8 14.5 0.00 0.00 0.00 35 1012.0
20260504000427 14 347 3.2 14.5 0.00 0.00 0.00 35 1012.0
20260504000403 14 20 9.7 14.5 0.00 0.00 0.00 35 1012.0
20260504000354 14 20 9.7 14.5 0.00 0.00 0.00 35 1012.0
20260504000346 14 4 11.3 14.5 0.00 0.00 0.00 35 1012.0
20260504000322 14 322 8.0 16.1 0.00 0.00 0.00 35 1012.0
20260504000244 14 14 11.3 24.1 0.00 0.00 0.00 34 1012.0
20260504000219 14 354 6.4 24.1 0.00 0.00 0.00 34 1012.0
20260504000146 14 356 9.7 24.1 0.00 0.00 0.00 35 1012.0
20260504000138 14 42 12.9 24.1 0.00 0.00 0.00 35 1012.0
20260504000113 14 343 20.9 24.1 0.00 0.00 0.00 35 1012.0
20260504000100 14 34 16.1 20.9 0.00 0.00 0.00 35 1012.0
20260504000041 14 25 14.5 20.9 0.00 0.00 0.00 35 1012.0
20260504000017 14 356 12.9 16.1 0.00 0.00 0.00 35 1012.0
20260504000006 14 30 4.8 20.9 0.00 0.00 0.00 35 1012.0
20260503235957 14 314 4.8 20.9 0.00 0.00 0.00 35 1012.0
20260503235937 14 20 8.0 20.9 0.00 0.00 0.00 35 1012.0
20260503235917 14 8 8.0 22.5 0.00 0.00 0.00 35 1012.0
20260503235858 14 330 8.0 22.5 0.00 0.00 0.00 35 1012.0
20260503235849 14 0 9.7 22.5 0.00 0.00 0.00 35 1012.0
20260503235836 14 15 6.4 22.5 0.00 0.00 0.00 35 1012.0
20260503235815 14 323 14.5 22.5 0.00 0.00 0.00 35 1012.0
20260503235807 14 43 14.5 22.5 0.00 0.00 0.00 35 1012.0
20260503235749 14 20 6.4 16.1 0.00 0.00 0.00 35 1012.0
20260503235721 14 10 9.7 16.1 0.00 0.00 0.00 35 1012.0
20260503235706 14 351 12.9 16.1 0.00 0.00 0.00 35 1012.0
20260503235634 14 354 9.7 20.9 0.00 0.00 0.00 35 1012.0
20260503235625 14 7 9.7 24.1 0.00 0.00 0.00 35 1012.0
20260503235603 14 352 11.3 24.1 0.00 0.00 0.00 35 1012.0
20260503235555 14 352 11.3 24.1 0.00 0.00 0.00 35 1012.0
20260503235521 14 346 11.3 24.1 0.00 0.00 0.00 35 1012.0
20260503235505 14 24 12.9 24.1 0.00 0.00 0.00 35 1012.0
20260503235450 14 11 19.3 25.7 0.00 0.00 0.00 35 1012.0
20260503235441 14 354 14.5 25.7 0.00 0.00 0.00 35 1012.0
20260503235409 14 17 12.9 25.7 0.00 0.00 0.00 35 1012.0
20260503235345 14 353 12.9 25.7 0.00 0.00 0.00 35 1012.0
20260503235330 14 12 9.7 25.7 0.00 0.00 0.00 35 1012.0
20260503235314 14 356 14.5 25.7 0.00 0.00 0.00 35 1012.0
20260503235305 14 18 12.9 16.1 0.00 0.00 0.00 35 1012.0
20260503235243 14 37 9.7 22.5 0.00 0.00 0.00 35 1012.0
20260503235234 14 12 9.7 22.5 0.00 0.00 0.00 35 1012.0
20260503235209 14 39 11.3 22.5 0.00 0.00 0.00 35 1012.0
20260503235154 14 359 9.7 22.5 0.00 0.00 0.00 35 1012.0
20260503235138 14 328 9.7 22.5 0.00 0.00 0.00 35 1012.0
20260503235129 14 328 9.7 25.7 0.00 0.00 0.00 35 1012.0
20260503235115 14 2 11.3 25.7 0.00 0.00 0.00 35 1012.0
20260503235049 14 355 8.0 25.7 0.00 0.00 0.00 35 1012.0
20260503235027 14 289 12.9 25.7 0.00 0.00 0.00 35 1012.0
20260503235001 14 354 11.3 25.7 0.00 0.00 0.00 35 1012.0
20260503234937 14 327 16.1 25.7 0.00 0.00 0.00 35 1012.0
20260503234923 14 0 19.3 24.1 0.00 0.00 0.00 34 1012.0
20260503234914 14 18 16.1 24.1 0.00 0.00 0.00 34 1012.0
20260503234903 14 8 20.9 24.1 0.00 0.00 0.00 34 1012.0
20260503234855 14 8 20.9 24.1 0.00 0.00 0.00 34 1012.0
20260503234837 14 44 14.5 24.1 0.00 0.00 0.00 34 1012.0
20260503234819 14 335 16.1 24.1 0.00 0.00 0.00 35 1012.0
20260503234755 14 353 11.3 24.1 0.00 0.00 0.00 35 1012.0
20260503234731 14 359 12.9 37.0 0.00 0.00 0.00 35 1012.0
20260503234713 14 21 9.7 37.0 0.00 0.00 0.00 35 1012.0
20260503234650 14 9 16.1 37.0 0.00 0.00 0.00 35 1012.0
20260503234634 14 33 12.9 37.0 0.00 0.00 0.00 35 1012.0
20260503234626 14 85 16.1 37.0 0.00 0.00 0.00 35 1012.0
20260503234604 14 52 11.3 37.0 0.00 0.00 0.00 34 1012.0
20260503234546 14 3 22.5 37.0 0.00 0.00 0.00 34 1012.0
20260503234537 14 18 17.7 27.4 0.00 0.00 0.00 34 1012.0
20260503234514 14 43 9.7 27.4 0.00 0.00 0.00 34 1012.0
20260503234459 14 25 14.5 29.0 0.00 0.00 0.00 35 1012.0
20260503234450 14 349 12.9 29.0 0.00 0.00 0.00 35 1012.0
20260503234434 14 322 12.9 29.0 0.00 0.00 0.00 35 1012.0
20260503234408 14 12 19.3 29.0 0.00 0.00 0.00 35 1012.0
20260503234356 14 22 16.1 29.0 0.00 0.00 0.00 34 1012.0
20260503234338 14 31 17.7 29.0 0.00 0.00 0.00 34 1012.0
20260503234322 14 14 20.9 29.0 0.00 0.00 0.00 34 1012.0
20260503234312 14 19 12.9 29.0 0.00 0.00 0.00 34 1012.0
20260503234242 14 20 16.1 29.0 0.00 0.00 0.00 34 1012.0
20260503234225 14 18 11.3 29.0 0.00 0.00 0.00 34 1012.0
20260503234209 14 348 17.7 29.0 0.00 0.00 0.00 34 1012.0
20260503234201 14 14 17.7 25.7 0.00 0.00 0.00 34 1012.0
20260503234137 14 69 14.5 25.7 0.00 0.00 0.00 35 1012.0
20260503234122 14 9 11.3 29.0 0.00 0.00 0.00 35 1012.0
20260503234106 14 45 16.1 29.0 0.00 0.00 0.00 35 1012.0
20260503234058 14 340 22.5 29.0 0.00 0.00 0.00 35 1012.0
20260503234034 14 16 11.3 29.0 0.00 0.00 0.00 34 1012.0
20260503234018 14 17 9.7 29.0 0.00 0.00 0.00 34 1012.0
20260503234003 14 30 12.9 29.0 0.00 0.00 0.00 34 1012.0
20260503233947 14 34 17.7 29.0 0.00 0.00 0.00 34 1012.0
20260503233941 14 22 17.7 24.1 0.00 0.00 0.00 34 1012.0
20260503233921 14 5 11.3 20.9 0.00 0.00 0.00 34 1012.0
20260503233907 14 10 11.3 20.9 0.00 0.00 0.00 34 1012.0
20260503233859 14 10 11.3 20.9 0.00 0.00 0.00 34 1012.0
20260503233850 14 73 12.9 20.9 0.00 0.00 0.00 34 1012.0
20260503233835 14 36 11.3 20.9 0.00 0.00 0.00 34 1012.0
20260503233809 14 25 16.1 20.9 0.00 0.00 0.00 34 1012.0
20260503233747 14 14 12.9 20.9 0.00 0.00 0.00 34 1012.0
20260503233738 14 25 14.5 20.9 0.00 0.00 0.00 34 1012.0
20260503233722 14 35 16.1 25.7 0.00 0.00 0.00 34 1012.0
20260503233710 14 25 11.3 25.7 0.00 0.00 0.00 34 1012.0
20260503233652 14 14 14.5 25.7 0.00 0.00 0.00 34 1012.0
20260503233626 15 43 14.5 25.7 0.00 0.00 0.00 34 1012.0
20260503233617 15 357 9.7 25.7 0.00 0.00 0.00 34 1012.0
20260503233555 15 26 17.7 25.7 0.00 0.00 0.00 34 1012.0
20260503233545 15 26 11.3 16.1 0.00 0.00 0.00 34 1012.0
20260503233506 15 10 11.3 27.4 0.00 0.00 0.00 34 1012.0
20260503233452 15 10 9.7 27.4 0.00 0.00 0.00 34 1012.0
20260503233433 15 26 8.0 27.4 0.00 0.00 0.00 34 1012.0
20260503233417 15 40 8.0 27.4 0.00 0.00 0.00 34 1012.0
20260503233409 15 25 12.9 27.4 0.00 0.00 0.00 34 1012.0
20260503233323 15 48 20.9 29.0 0.00 0.00 0.00 34 1012.0
20260503233314 15 28 11.3 29.0 0.00 0.00 0.00 34 1012.0
20260503233303 15 32 16.1 29.0 0.00 0.00 0.00 34 1012.0
20260503233226 15 348 16.1 29.0 0.00 0.00 0.00 34 1012.0
20260503233217 15 348 16.1 29.0 0.00 0.00 0.00 33 1012.0
20260503233202 15 28 17.7 29.0 0.00 0.00 0.00 33 1012.0
20260503233149 15 37 19.3 29.0 0.00 0.00 0.00 33 1012.0
20260503233132 15 22 9.7 17.7 0.00 0.00 0.00 33 1012.0
20260503233106 15 27 11.3 17.7 0.00 0.00 0.00 33 1012.0
20260503233058 15 27 11.3 24.1 0.00 0.00 0.00 33 1012.0
20260503233042 15 0 6.4 24.1 0.00 0.00 0.00 33 1012.0
20260503233027 15 355 8.0 24.1 0.00 0.00 0.00 33 1012.0
20260503233017 15 350 9.7 24.1 0.00 0.00 0.00 33 1012.0
20260503233004 15 14 11.3 24.1 0.00 0.00 0.00 34 1012.0
20260503232954 15 14 11.3 24.1 0.00 0.00 0.00 34 1012.0
20260503232938 15 48 17.7 24.1 0.00 0.00 0.00 34 1012.0
20260503232913 15 33 9.7 20.9 0.00 0.00 0.00 34 1012.0
20260503232859 15 3 12.9 27.4 0.00 0.00 0.00 33 1012.0
20260503232850 15 0 12.9 27.4 0.00 0.00 0.00 33 1012.0
20260503232834 15 32 16.1 27.4 0.00 0.00 0.00 33 1012.0
20260503232810 15 62 16.1 27.4 0.00 0.00 0.00 33 1012.0
20260503232756 15 61 12.9 27.4 0.00 0.00 0.00 33 1012.0
20260503232730 15 47 19.3 27.4 0.00 0.00 0.00 33 1012.0
20260503232705 15 34 11.3 20.9 0.00 0.00 0.00 33 1012.0
20260503232652 15 13 9.7 17.7 0.00 0.00 0.00 33 1012.0
20260503232618 15 359 9.7 17.7 0.00 0.00 0.00 33 1012.0
20260503232609 15 19 12.9 17.7 0.00 0.00 0.00 33 1012.0
20260503232547 15 22 8.0 16.1 0.00 0.00 0.00 32 1012.0
20260503232537 15 348 9.7 16.1 0.00 0.00 0.00 32 1012.0
20260503232524 15 20 8.0 17.7 0.00 0.00 0.00 32 1012.0
20260503232500 15 18 9.7 17.7 0.00 0.00 0.00 32 1012.0
20260503232453 15 18 9.7 17.7 0.00 0.00 0.00 33 1012.0
20260503232434 15 14 9.7 17.7 0.00 0.00 0.00 33 1012.0
20260503232417 15 330 8.0 17.7 0.00 0.00 0.00 33 1012.0
20260503232404 15 33 12.9 17.7 0.00 0.00 0.00 33 1012.0
20260503232355 15 28 14.5 16.1 0.00 0.00 0.00 33 1012.0
20260503232345 15 28 14.5 16.1 0.00 0.00 0.00 32 1012.0
20260503232329 15 29 12.9 27.4 0.00 0.00 0.00 32 1012.0
20260503232317 15 353 9.7 27.4 0.00 0.00 0.00 32 1012.0
20260503232308 15 22 9.7 27.4 0.00 0.00 0.00 32 1012.0
20260503232300 15 22 9.7 27.4 0.00 0.00 0.00 32 1012.0
20260503232226 15 352 12.9 27.4 0.00 0.00 0.00 32 1012.0
20260503232209 15 39 11.3 27.4 0.00 0.00 0.00 32 1012.0
20260503232154 15 0 17.7 27.4 0.00 0.00 0.00 32 1012.0
20260503232146 15 9 12.9 24.1 0.00 0.00 0.00 32 1012.0
20260503232122 15 25 11.3 24.1 0.00 0.00 0.00 32 1012.0
20260503232112 15 4 19.3 24.1 0.00 0.00 0.00 32 1012.0
20260503232042 15 8 14.5 22.5 0.00 0.00 0.00 32 1012.0
20260503232033 15 9 12.9 22.5 0.00 0.00 0.00 32 1012.0
20260503232018 15 35 14.5 27.4 0.00 0.00 0.00 32 1012.0
20260503232003 15 8 14.5 27.4 0.00 0.00 0.00 32 1012.0
20260503231953 15 8 14.5 27.4 0.00 0.00 0.00 32 1012.0
20260503231937 15 355 16.1 27.4 0.00 0.00 0.00 32 1012.0
20260503231929 15 349 11.3 27.4 0.00 0.00 0.00 32 1012.0
20260503231857 15 350 19.3 27.4 0.00 0.00 0.00 32 1012.0
20260503231833 15 14 16.1 22.5 0.00 0.00 0.00 32 1012.0
20260503231819 15 32 11.3 22.5 0.00 0.00 0.00 32 1012.0
20260503231813 15 354 17.7 22.5 0.00 0.00 0.00 32 1012.0
20260503231746 15 34 17.7 22.5 0.00 0.00 0.00 32 1012.0
20260503231737 15 2 12.9 22.5 0.00 0.00 0.00 32 1012.0
20260503231714 15 357 16.1 22.5 0.00 0.00 0.00 32 1012.0
20260503231658 15 327 6.4 17.7 0.00 0.00 0.00 32 1012.0
20260503231642 15 3 12.9 17.7 0.00 0.00 0.00 32 1012.0
20260503231618 15 24 11.3 17.7 0.00 0.00 0.00 32 1012.0
20260503231609 15 16 12.9 17.7 0.00 0.00 0.00 32 1012.0
20260503231553 15 317 12.9 17.7 0.00 0.00 0.00 32 1012.0
20260503231530 15 353 8.0 17.7 0.00 0.00 0.00 32 1012.0
20260503231514 15 348 12.9 17.7 0.00 0.00 0.00 32 1012.0
20260503231505 15 15 11.3 17.7 0.00 0.00 0.00 32 1012.0
20260503231449 15 31 9.7 17.7 0.00 0.00 0.00 32 1012.0
20260503231427 15 20 9.7 17.7 0.00 0.00 0.00 32 1012.0
20260503231418 15 22 12.9 17.7 0.00 0.00 0.00 32 1012.0
20260503231401 15 357 9.7 22.5 0.00 0.00 0.00 32 1012.0
20260503231338 15 0 12.9 22.5 0.00 0.00 0.00 32 1012.0
20260503231324 15 23 6.4 22.5 0.00 0.00 0.00 32 1012.0
20260503231251 15 39 9.7 30.6 0.00 0.00 0.00 32 1012.0
20260503231218 15 5 14.5 30.6 0.00 0.00 0.00 32 1012.0
20260503231203 15 7 16.1 30.6 0.00 0.00 0.00 32 1012.0
20260503231157 15 7 16.1 30.6 0.00 0.00 0.00 32 1012.0
20260503231121 15 74 12.9 30.6 0.00 0.00 0.00 32 1012.0
20260503231106 15 11 16.1 20.9 0.00 0.00 0.00 32 1012.0
20260503231057 15 22 16.1 22.5 0.00 0.00 0.00 32 1012.0
20260503231045 15 42 12.9 22.5 0.00 0.00 0.00 32 1012.0
20260503231025 15 359 9.7 22.5 0.00 0.00 0.00 32 1012.0
20260503231002 15 60 12.9 22.5 0.00 0.00 0.00 32 1012.0
20260503230955 15 1 9.7 22.5 0.00 0.00 0.00 32 1012.0
20260503230913 15 50 17.7 24.1 0.00 0.00 0.00 32 1011.0
20260503230859 15 34 14.5 29.0 0.00 0.00 0.00 32 1011.0
20260503230853 15 5 14.5 29.0 0.00 0.00 0.00 31 1011.0
20260503230826 15 357 9.7 29.0 0.00 0.00 0.00 31 1012.0
20260503230817 15 294 17.7 29.0 0.00 0.00 0.00 31 1012.0
20260503230802 15 7 17.7 29.0 0.00 0.00 0.00 31 1012.0
20260503230754 15 7 17.7 29.0 0.00 0.00 0.00 31 1012.0
20260503230738 15 13 24.1 29.0 0.00 0.00 0.00 31 1012.0
20260503230713 15 338 22.5 25.7 0.00 0.00 0.00 31 1011.0
20260503230659 15 288 16.1 25.7 0.00 0.00 0.00 31 1011.0
20260503230642 15 327 16.1 25.7 0.00 0.00 0.00 31 1011.0
20260503230626 15 342 17.7 24.1 0.00 0.00 0.00 31 1012.0
20260503230617 15 17 19.3 24.1 0.00 0.00 0.00 31 1012.0
20260503230603 15 307 16.1 25.7 0.00 0.00 0.00 31 1012.0
20260503230554 15 307 16.1 25.7 0.00 0.00 0.00 31 1012.0
20260503230546 15 337 12.9 25.7 0.00 0.00 0.00 31 1012.0
20260503230521 15 332 12.9 25.7 0.00 0.00 0.00 31 1012.0
20260503230508 15 7 11.3 25.7 0.00 0.00 0.00 31 1012.0
20260503230502 15 333 12.9 35.4 0.00 0.00 0.00 31 1012.0
20260503230426 15 12 12.9 35.4 0.00 0.00 0.00 31 1011.0
20260503230401 15 10 9.7 35.4 0.00 0.00 0.00 31 1011.0
20260503230346 15 46 19.3 35.4 0.00 0.00 0.00 31 1011.0
20260503230337 15 14 27.4 35.4 0.00 0.00 0.00 31 1011.0
20260503230306 15 36 14.5 27.4 0.00 0.00 0.00 31 1012.0
20260503230257 15 359 9.7 27.4 0.00 0.00 0.00 31 1012.0
20260503230233 15 336 9.7 27.4 0.00 0.00 0.00 31 1012.0
20260503230220 15 34 17.7 27.4 0.00 0.00 0.00 31 1011.0
20260503230201 15 98 12.9 35.4 0.00 0.00 0.00 31 1011.0
20260503230147 15 15 17.7 35.4 0.00 0.00 0.00 31 1011.0
20260503230129 15 30 16.1 35.4 0.00 0.00 0.00 31 1011.0
20260503230114 15 87 14.5 35.4 0.00 0.00 0.00 31 1011.0
20260503230105 15 354 17.7 35.4 0.00 0.00 0.00 31 1011.0
20260503230045 15 351 17.7 35.4 0.00 0.00 0.00 31 1011.0
20260503230026 15 28 17.7 35.4 0.00 0.00 0.00 31 1011.0
20260503230018 15 322 19.3 35.4 0.00 0.00 0.00 31 1011.0
20260503230002 15 8 19.3 27.4 0.00 0.00 0.00 31 1011.0
20260503225953 15 8 19.3 27.4 0.00 0.00 0.00 31 1011.0
20260503225938 15 345 24.1 27.4 0.00 0.00 0.00 31 1011.0
20260503225929 15 20 12.9 24.1 0.00 0.00 0.00 31 1011.0
20260503225917 15 12 11.3 24.1 0.00 0.00 0.00 31 1011.0
20260503225844 15 358 11.3 24.1 0.00 0.00 0.00 31 1011.0
20260503225837 15 29 17.7 24.1 0.00 0.00 0.00 31 1011.0
20260503225818 15 20 20.9 24.1 0.00 0.00 0.00 31 1011.0
20260503225809 15 20 20.9 24.1 0.00 0.00 0.00 30 1011.0
20260503225754 15 350 12.9 16.1 0.00 0.00 0.00 30 1011.0
20260503225745 15 351 9.7 16.1 0.00 0.00 0.00 30 1011.0
20260503225725 15 351 9.7 25.7 0.00 0.00 0.00 30 1011.0
20260503225708 15 27 9.7 25.7 0.00 0.00 0.00 31 1011.0
20260503225633 15 2 11.3 25.7 0.00 0.00 0.00 31 1011.0
20260503225619 15 26 11.3 25.7 0.00 0.00 0.00 31 1012.0
20260503225612 15 359 17.7 25.7 0.00 0.00 0.00 31 1012.0
20260503225546 15 358 17.7 25.7 0.00 0.00 0.00 30 1012.0
20260503225537 15 349 19.3 25.7 0.00 0.00 0.00 30 1012.0
20260503225517 15 341 12.9 22.5 0.00 0.00 0.00 30 1011.0
20260503225500 16 6 19.3 24.1 0.00 0.00 0.00 30 1011.0
20260503225425 16 0 12.9 24.1 0.00 0.00 0.00 30 1011.0
20260503225401 16 4 8.0 24.1 0.00 0.00 0.00 30 1011.0
20260503225345 16 29 11.3 24.1 0.00 0.00 0.00 30 1011.0
20260503225330 16 24 12.9 24.1 0.00 0.00 0.00 30 1012.0
20260503225321 16 73 17.7 24.1 0.00 0.00 0.00 30 1012.0
20260503225306 16 27 9.7 22.5 0.00 0.00 0.00 30 1012.0
20260503225257 16 27 9.7 22.5 0.00 0.00 0.00 30 1012.0
20260503225243 16 328 11.3 22.5 0.00 0.00 0.00 30 1012.0
20260503225234 16 20 11.3 22.5 0.00 0.00 0.00 30 1012.0
20260503225225 16 20 11.3 27.4 0.00 0.00 0.00 30 1011.0
20260503225212 16 320 9.7 27.4 0.00 0.00 0.00 30 1011.0
20260503225204 16 2 9.7 27.4 0.00 0.00 0.00 30 1011.0
20260503225145 16 0 17.7 27.4 0.00 0.00 0.00 30 1011.0
20260503225123 16 49 12.9 27.4 0.00 0.00 0.00 30 1011.0
20260503225113 16 42 12.9 27.4 0.00 0.00 0.00 30 1011.0
20260503225049 16 33 22.5 27.4 0.00 0.00 0.00 30 1011.0
20260503225035 16 2 16.1 22.5 0.00 0.00 0.00 30 1011.0
20260503225017 16 359 12.9 22.5 0.00 0.00 0.00 30 1011.0
20260503225003 16 332 16.1 25.7 0.00 0.00 0.00 30 1011.0
20260503224955 16 332 16.1 25.7 0.00 0.00 0.00 30 1011.0
20260503224924 16 7 9.7 30.6 0.00 0.00 0.00 30 1011.0
20260503224906 16 30 16.1 30.6 0.00 0.00 0.00 30 1011.0
20260503224850 16 33 17.7 30.6 0.00 0.00 0.00 30 1011.0
20260503224842 16 24 17.7 30.6 0.00 0.00 0.00 30 1011.0
20260503224829 16 25 11.3 30.6 0.00 0.00 0.00 30 1011.0
20260503224810 16 15 19.3 30.6 0.00 0.00 0.00 30 1011.0
20260503224753 16 326 19.3 29.0 0.00 0.00 0.00 30 1011.0
20260503224729 16 15 16.1 29.0 0.00 0.00 0.00 30 1011.0
20260503224714 16 1 20.9 29.0 0.00 0.00 0.00 30 1011.0
20260503224705 16 22 22.5 29.0 0.00 0.00 0.00 30 1011.0
20260503224658 16 22 22.5 29.0 0.00 0.00 0.00 30 1011.0
20260503224617 16 333 16.1 20.9 0.00 0.00 0.00 30 1011.0
20260503224604 16 356 12.9 20.9 0.00 0.00 0.00 30 1011.0
20260503224555 16 356 12.9 20.9 0.00 0.00 0.00 30 1011.0
20260503224546 16 339 11.3 20.9 0.00 0.00 0.00 30 1011.0
20260503224529 16 339 11.3 25.7 0.00 0.00 0.00 30 1011.0
20260503224521 16 16 17.7 25.7 0.00 0.00 0.00 30 1011.0
20260503224507 16 353 11.3 25.7 0.00 0.00 0.00 30 1011.0
20260503224459 16 353 11.3 25.7 0.00 0.00 0.00 30 1011.0
20260503224450 16 325 9.7 25.7 0.00 0.00 0.00 30 1011.0
20260503224425 16 67 12.9 25.7 0.00 0.00 0.00 30 1011.0
20260503224410 16 344 14.5 25.7 0.00 0.00 0.00 30 1011.0
20260503224354 16 312 17.7 25.7 0.00 0.00 0.00 30 1011.0
20260503224337 16 292 17.7 25.7 0.00 0.00 0.00 30 1011.0
20260503224328 16 0 12.9 24.1 0.00 0.00 0.00 30 1011.0
20260503224304 16 355 8.0 24.1 0.00 0.00 0.00 29 1011.0
20260503224252 16 6 14.5 25.7 0.00 0.00 0.00 29 1011.0
20260503224234 16 10 9.7 25.7 0.00 0.00 0.00 29 1011.0
20260503224217 16 18 12.9 25.7 0.00 0.00 0.00 29 1011.0
20260503224209 16 348 11.3 25.7 0.00 0.00 0.00 29 1011.0
20260503224145 16 29 17.7 29.0 0.00 0.00 0.00 29 1011.0
20260503224132 16 356 12.9 29.0 0.00 0.00 0.00 29 1011.0
20260503224115 16 355 20.9 29.0 0.00 0.00 0.00 29 1011.0
20260503224107 16 355 20.9 29.0 0.00 0.00 0.00 30 1011.0
20260503224056 16 6 16.1 29.0 0.00 0.00 0.00 30 1011.0
20260503224033 16 331 24.1 29.0 0.00 0.00 0.00 30 1011.0
20260503224019 16 350 14.5 30.6 0.00 0.00 0.00 30 1011.0
20260503224010 16 327 17.7 30.6 0.00 0.00 0.00 30 1011.0
20260503223947 16 353 22.5 30.6 0.00 0.00 0.00 29 1011.0
20260503223937 16 330 16.1 30.6 0.00 0.00 0.00 29 1011.0
20260503223913 16 305 19.3 30.6 0.00 0.00 0.00 29 1011.0
20260503223858 16 287 14.5 30.6 0.00 0.00 0.00 29 1011.0
20260503223848 16 306 22.5 30.6 0.00 0.00 0.00 29 1011.0
20260503223825 16 6 14.5 29.0 0.00 0.00 0.00 29 1011.0
20260503223811 16 291 19.3 29.0 0.00 0.00 0.00 29 1011.0
20260503223802 16 2 12.9 29.0 0.00 0.00 0.00 29 1011.0
20260503223746 16 7 17.7 29.0 0.00 0.00 0.00 29 1011.0
20260503223727 16 333 16.1 27.4 0.00 0.00 0.00 29 1011.0
20260503223708 16 283 17.7 25.7 0.00 0.00 0.00 29 1011.0
20260503223640 16 12 14.5 25.7 0.00 0.00 0.00 29 1011.0
20260503223628 16 14 12.9 29.0 0.00 0.00 0.00 29 1011.0
20260503223605 16 357 9.7 30.6 0.00 0.00 0.00 29 1011.0
20260503223546 16 287 12.9 30.6 0.00 0.00 0.00 29 1011.0
20260503223521 16 322 17.7 30.6 0.00 0.00 0.00 29 1011.0
20260503223508 16 289 16.1 30.6 0.00 0.00 0.00 29 1011.0
20260503223450 16 283 20.9 30.6 0.00 0.00 0.00 29 1011.0
20260503223435 16 332 16.1 30.6 0.00 0.00 0.00 29 1011.0
20260503223426 16 54 14.5 38.6 0.00 0.00 0.00 29 1011.0
20260503223406 16 354 8.0 38.6 0.00 0.00 0.00 29 1011.0
20260503223347 16 342 16.1 38.6 0.00 0.00 0.00 29 1011.0
20260503223338 16 5 17.7 38.6 0.00 0.00 0.00 29 1011.0
20260503223313 16 31 19.3 38.6 0.00 0.00 0.00 29 1011.0
20260503223259 16 359 16.1 40.2 0.00 0.00 0.00 29 1011.0
20260503223241 16 15 24.1 40.2 0.00 0.00 0.00 29 1011.0
20260503223218 16 345 17.7 40.2 0.00 0.00 0.00 29 1011.0
20260503223207 16 342 19.3 40.2 0.00 0.00 0.00 29 1011.0
20260503223138 16 277 25.7 40.2 0.00 0.00 0.00 29 1011.0
20260503223115 16 322 24.1 30.6 0.00 0.00 0.00 29 1011.0
20260503223105 16 335 9.7 25.7 0.00 0.00 0.00 29 1011.0
20260503223044 16 2 9.7 30.6 0.00 0.00 0.00 29 1011.0
20260503223013 16 0 17.7 33.8 0.00 0.00 0.00 29 1011.0
20260503222954 16 10 16.1 33.8 0.00 0.00 0.00 29 1011.0
20260503222938 16 36 14.5 33.8 0.00 0.00 0.00 29 1011.0
20260503222930 16 6 24.1 33.8 0.00 0.00 0.00 29 1011.0
20260503222916 16 24 20.9 33.8 0.00 0.00 0.00 30 1011.0
20260503222859 16 6 19.3 33.8 0.00 0.00 0.00 30 1011.0
20260503222831 16 41 8.0 27.4 0.00 0.00 0.00 30 1011.0
20260503222810 16 22 8.0 27.4 0.00 0.00 0.00 29 1011.0
20260503222802 16 22 8.0 29.0 0.00 0.00 0.00 29 1011.0
20260503222737 16 336 9.7 29.0 0.00 0.00 0.00 29 1011.0
20260503222725 16 11 19.3 29.0 0.00 0.00 0.00 29 1011.0
20260503222719 16 12 14.5 29.0 0.00 0.00 0.00 29 1011.0
20260503222650 16 348 19.3 29.0 0.00 0.00 0.00 29 1011.0
20260503222635 16 2 24.1 29.0 0.00 0.00 0.00 29 1011.0
20260503222626 16 47 9.7 25.7 0.00 0.00 0.00 29 1011.0
20260503222609 16 74 14.5 25.7 0.00 0.00 0.00 29 1011.0
20260503222546 16 28 16.1 30.6 0.00 0.00 0.00 29 1011.0
20260503222537 16 335 11.3 30.6 0.00 0.00 0.00 29 1011.0
20260503222522 16 34 9.7 30.6 0.00 0.00 0.00 29 1011.0
20260503222506 16 8 16.1 30.6 0.00 0.00 0.00 30 1011.0
20260503222457 16 8 16.1 30.6 0.00 0.00 0.00 30 1011.0
20260503222442 16 31 12.9 30.6 0.00 0.00 0.00 30 1011.0
20260503222433 16 32 20.9 30.6 0.00 0.00 0.00 30 1011.0
20260503222413 16 37 20.9 25.7 0.00 0.00 0.00 30 1011.0
20260503222338 16 38 12.9 22.5 0.00 0.00 0.00 29 1011.0
20260503222324 16 339 11.3 22.5 0.00 0.00 0.00 29 1011.0
20260503222257 16 306 11.3 22.5 0.00 0.00 0.00 29 1011.0
20260503222242 16 329 9.7 22.5 0.00 0.00 0.00 29 1011.0
20260503222233 16 329 12.9 22.5 0.00 0.00 0.00 29 1011.0
20260503222220 16 343 14.5 22.5 0.00 0.00 0.00 29 1011.0
20260503222157 16 332 12.9 25.7 0.00 0.00 0.00 29 1011.0
20260503222138 16 64 11.3 25.7 0.00 0.00 0.00 29 1011.0
20260503222124 16 357 9.7 25.7 0.00 0.00 0.00 29 1011.0
20260503222105 16 6 12.9 25.7 0.00 0.00 0.00 29 1011.0
20260503222050 16 46 12.9 25.7 0.00 0.00 0.00 29 1011.0
20260503222041 16 17 17.7 25.7 0.00 0.00 0.00 29 1011.0
20260503222022 16 281 16.1 25.7 0.00 0.00 0.00 29 1011.0
20260503221945 16 332 11.3 16.1 0.00 0.00 0.00 29 1011.0
20260503221908 16 353 11.3 20.9 0.00 0.00 0.00 29 1011.0
20260503221835 16 349 11.3 22.5 0.00 0.00 0.00 29 1011.0
20260503221826 16 346 9.7 24.1 0.00 0.00 0.00 29 1011.0
20260503221812 16 342 12.9 24.1 0.00 0.00 0.00 29 1011.0
20260503221804 16 342 12.9 25.7 0.00 0.00 0.00 29 1011.0
20260503221731 16 352 16.1 25.7 0.00 0.00 0.00 29 1011.0
20260503221724 16 316 12.9 25.7 0.00 0.00 0.00 29 1011.0
20260503221658 16 339 17.7 25.7 0.00 0.00 0.00 29 1011.0
20260503221649 16 32 9.7 25.7 0.00 0.00 0.00 29 1011.0
20260503221633 16 350 12.9 25.7 0.00 0.00 0.00 29 1011.0
20260503221609 16 353 16.1 25.7 0.00 0.00 0.00 29 1011.0
20260503221554 16 14 9.7 22.5 0.00 0.00 0.00 29 1011.0
20260503221545 16 307 9.7 22.5 0.00 0.00 0.00 29 1011.0
20260503221529 16 330 9.7 27.4 0.00 0.00 0.00 29 1011.0
20260503221505 16 304 12.9 27.4 0.00 0.00 0.00 29 1011.0
20260503221441 16 34 11.3 27.4 0.00 0.00 0.00 29 1011.0
20260503221425 16 345 14.5 27.4 0.00 0.00 0.00 29 1011.0
20260503221412 16 22 12.9 27.4 0.00 0.00 0.00 29 1011.0
20260503221404 16 39 16.1 27.4 0.00 0.00 0.00 29 1011.0
20260503221338 16 342 12.9 25.7 0.00 0.00 0.00 29 1011.0
20260503221324 16 308 12.9 25.7 0.00 0.00 0.00 29 1011.0
20260503221307 16 328 16.1 25.7 0.00 0.00 0.00 29 1011.0
20260503221233 16 327 11.3 35.4 0.00 0.00 0.00 29 1011.0
20260503221217 16 335 9.7 35.4 0.00 0.00 0.00 29 1011.0
20260503221203 16 316 8.0 35.4 0.00 0.00 0.00 29 1011.0
20260503221132 16 327 17.7 35.4 0.00 0.00 0.00 29 1011.0
20260503221106 16 332 14.5 17.7 0.00 0.00 0.00 29 1011.0
20260503221057 16 332 14.5 17.7 0.00 0.00 0.00 29 1011.0
20260503221043 16 11 11.3 17.7 0.00 0.00 0.00 29 1011.0
20260503221026 16 357 11.3 17.7 0.00 0.00 0.00 29 1011.0
20260503221010 16 349 9.7 16.1 0.00 0.00 0.00 29 1011.0
20260503221001 16 349 9.7 29.0 0.00 0.00 0.00 29 1011.0
20260503220948 16 293 11.3 29.0 0.00 0.00 0.00 29 1011.0
20260503220941 16 25 8.0 29.0 0.00 0.00 0.00 29 1011.0
20260503220921 16 35 9.7 29.0 0.00 0.00 0.00 29 1011.0
20260503220905 16 7 9.7 29.0 0.00 0.00 0.00 29 1011.0
20260503220854 16 349 8.0 29.0 0.00 0.00 0.00 29 1011.0
20260503220833 16 17 16.1 29.0 0.00 0.00 0.00 29 1011.0
20260503220817 16 33 20.9 29.0 0.00 0.00 0.00 29 1011.0
20260503220804 16 341 17.7 29.0 0.00 0.00 0.00 29 1011.0
20260503220757 16 341 17.7 29.0 0.00 0.00 0.00 29 1011.0
20260503220737 16 9 17.7 29.0 0.00 0.00 0.00 29 1011.0
20260503220722 16 299 14.5 29.0 0.00 0.00 0.00 29 1011.0
20260503220713 16 294 17.7 29.0 0.00 0.00 0.00 29 1011.0
20260503220657 16 302 16.1 29.0 0.00 0.00 0.00 29 1011.0
20260503220633 16 16 17.7 29.0 0.00 0.00 0.00 29 1011.0
20260503220618 16 350 17.7 29.0 0.00 0.00 0.00 29 1011.0
20260503220609 16 287 9.7 29.0 0.00 0.00 0.00 29 1011.0
20260503220553 16 287 9.7 29.0 0.00 0.00 0.00 29 1011.0
20260503220538 16 3 14.5 29.0 0.00 0.00 0.00 29 1011.0
20260503220529 16 18 19.3 29.0 0.00 0.00 0.00 29 1011.0
20260503220505 16 24 17.7 25.7 0.00 0.00 0.00 29 1011.0
20260503220449 16 9 19.3 25.7 0.00 0.00 0.00 30 1011.0
20260503220435 16 24 16.1 20.9 0.00 0.00 0.00 30 1011.0
20260503220417 16 349 9.7 20.9 0.00 0.00 0.00 30 1011.0
20260503220402 16 312 12.9 20.9 0.00 0.00 0.00 30 1011.0
20260503220345 16 336 9.7 20.9 0.00 0.00 0.00 30 1011.0
20260503220317 16 343 6.4 17.7 0.00 0.00 0.00 30 1011.0
20260503220257 16 296 11.3 17.7 0.00 0.00 0.00 30 1011.0
20260503220241 16 336 14.5 17.7 0.00 0.00 0.00 29 1011.0
20260503220227 16 4 9.7 20.9 0.00 0.00 0.00 29 1011.0
20260503220218 16 323 11.3 20.9 0.00 0.00 0.00 29 1011.0
20260503220202 16 323 6.4 25.7 0.00 0.00 0.00 29 1011.0
20260503220153 16 323 6.4 25.7 0.00 0.00 0.00 29 1011.0
20260503220134 16 289 12.9 25.7 0.00 0.00 0.00 29 1011.0
20260503220115 16 0 14.5 25.7 0.00 0.00 0.00 29 1011.0
20260503220105 16 9 12.9 25.7 0.00 0.00 0.00 29 1011.0
20260503220049 16 26 14.5 25.7 0.00 0.00 0.00 29 1011.0
20260503220025 16 323 11.3 25.7 0.00 0.00 0.00 29 1011.0
20260503220010 16 9 17.7 25.7 0.00 0.00 0.00 29 1011.0
20260503220002 16 357 14.5 17.7 0.00 0.00 0.00 29 1011.0
20260503215951 16 306 11.3 17.7 0.00 0.00 0.00 29 1011.0
20260503215905 16 245 8.0 17.7 0.00 0.00 0.00 29 1011.0
20260503215850 16 7 8.0 17.7 0.00 0.00 0.00 29 1011.0
20260503215842 16 291 11.3 17.7 0.00 0.00 0.00 29 1011.0
20260503215825 16 338 11.3 17.7 0.00 0.00 0.00 29 1011.0
20260503215810 16 323 16.1 17.7 0.00 0.00 0.00 29 1011.0
20260503215801 16 323 16.1 25.7 0.00 0.00 0.00 29 1011.0
20260503215747 16 11 8.0 25.7 0.00 0.00 0.00 29 1011.0
20260503215738 16 291 9.7 25.7 0.00 0.00 0.00 29 1011.0
20260503215706 16 7 12.9 25.7 0.00 0.00 0.00 29 1011.0
20260503215700 16 26 14.5 25.7 0.00 0.00 0.00 29 1011.0
20260503215634 16 332 14.5 25.7 0.00 0.00 0.00 29 1011.0
20260503215617 16 337 12.9 20.9 0.00 0.00 0.00 29 1011.0
20260503215603 16 2 11.3 20.9 0.00 0.00 0.00 29 1011.0
20260503215546 16 343 9.7 20.9 0.00 0.00 0.00 29 1011.0
20260503215530 16 8 12.9 27.4 0.00 0.00 0.00 29 1011.0
20260503215517 16 2 8.0 27.4 0.00 0.00 0.00 29 1011.0
20260503215509 16 20 9.7 27.4 0.00 0.00 0.00 29 1011.0
20260503215449 16 22 9.7 27.4 0.00 0.00 0.00 29 1011.0
20260503215425 16 343 11.3 27.4 0.00 0.00 0.00 29 1011.0
20260503215411 16 319 9.7 27.4 0.00 0.00 0.00 29 1011.0
20260503215404 16 303 16.1 27.4 0.00 0.00 0.00 29 1011.0
20260503215339 16 320 14.5 22.5 0.00 0.00 0.00 29 1011.0
20260503215332 16 356 12.9 27.4 0.00 0.00 0.00 29 1011.0
20260503215306 16 334 16.1 27.4 0.00 0.00 0.00 30 1011.0
20260503215242 16 314 9.7 27.4 0.00 0.00 0.00 30 1011.0
20260503215233 16 354 9.7 27.4 0.00 0.00 0.00 30 1011.0
20260503215212 16 16 8.0 27.4 0.00 0.00 0.00 30 1011.0
20260503215137 16 27 12.9 29.0 0.00 0.00 0.00 29 1011.0
20260503215122 16 343 19.3 29.0 0.00 0.00 0.00 29 1011.0
20260503215113 16 333 12.9 29.0 0.00 0.00 0.00 29 1011.0
20260503215057 16 358 14.5 29.0 0.00 0.00 0.00 29 1011.0
20260503215033 16 322 19.3 29.0 0.00 0.00 0.00 29 1011.0
20260503215020 16 293 17.7 33.8 0.00 0.00 0.00 29 1011.0
20260503214946 16 343 20.9 33.8 0.00 0.00 0.00 29 1011.0
20260503214937 16 344 8.0 33.8 0.00 0.00 0.00 29 1011.0
20260503214916 16 310 14.5 33.8 0.00 0.00 0.00 29 1011.0
20260503214841 16 2 19.3 24.1 0.00 0.00 0.00 29 1011.0
20260503214826 16 333 14.5 27.4 0.00 0.00 0.00 29 1011.0
20260503214817 16 296 11.3 27.4 0.00 0.00 0.00 29 1011.0
20260503214803 16 296 11.3 38.6 0.00 0.00 0.00 29 1011.0
20260503214756 16 305 19.3 38.6 0.00 0.00 0.00 29 1011.0
20260503214730 16 332 11.3 38.6 0.00 0.00 0.00 29 1011.0
20260503214721 16 331 12.9 38.6 0.00 0.00 0.00 29 1011.0
20260503214706 16 12 17.7 38.6 0.00 0.00 0.00 29 1011.0
20260503214657 16 12 17.7 38.6 0.00 0.00 0.00 29 1011.0
20260503214641 16 345 16.1 38.6 0.00 0.00 0.00 29 1011.0
20260503214628 16 312 17.7 38.6 0.00 0.00 0.00 29 1011.0
20260503214621 16 323 24.1 38.6 0.00 0.00 0.00 29 1011.0
20260503214601 16 314 22.5 29.0 0.00 0.00 0.00 29 1011.0
20260503214538 16 313 9.7 24.1 0.00 0.00 0.00 29 1011.0
20260503214529 16 3 12.9 25.7 0.00 0.00 0.00 29 1011.0
20260503214515 16 332 12.9 25.7 0.00 0.00 0.00 29 1011.0
20260503214455 16 25 14.5 25.7 0.00 0.00 0.00 29 1011.0
20260503214435 16 345 8.0 25.7 0.00 0.00 0.00 30 1011.0
20260503214428 16 316 12.9 25.7 0.00 0.00 0.00 30 1011.0
20260503214403 16 30 12.9 25.7 0.00 0.00 0.00 30 1011.0
20260503214354 16 30 12.9 25.7 0.00 0.00 0.00 30 1011.0
20260503214337 16 7 20.9 25.7 0.00 0.00 0.00 30 1011.0
20260503214322 16 345 9.7 22.5 0.00 0.00 0.00 30 1011.0
20260503214313 16 335 12.9 22.5 0.00 0.00 0.00 30 1011.0
20260503214259 16 3 17.7 22.5 0.00 0.00 0.00 30 1011.0
20260503214233 16 345 14.5 22.5 0.00 0.00 0.00 30 1011.0
20260503214218 16 10 12.9 22.5 0.00 0.00 0.00 30 1011.0
20260503214209 16 307 12.9 22.5 0.00 0.00 0.00 30 1011.0
20260503214146 16 342 12.9 22.5 0.00 0.00 0.00 30 1011.0
20260503214129 16 3 11.3 24.1 0.00 0.00 0.00 30 1011.0
20260503214114 16 356 6.4 24.1 0.00 0.00 0.00 30 1011.0
20260503214105 16 303 6.4 24.1 0.00 0.00 0.00 30 1011.0
20260503214041 16 39 8.0 24.1 0.00 0.00 0.00 30 1011.0
20260503214027 16 33 12.9 24.1 0.00 0.00 0.00 30 1011.0
20260503214009 16 291 8.0 24.1 0.00 0.00 0.00 30 1011.0
20260503213955 16 359 17.7 27.4 0.00 0.00 0.00 30 1011.0
20260503213948 16 337 17.7 27.4 0.00 0.00 0.00 30 1011.0
20260503213923 16 1 12.9 30.6 0.00 0.00 0.00 30 1011.0
20260503213913 16 1 12.9 30.6 0.00 0.00 0.00 29 1011.0
20260503213858 16 309 11.3 30.6 0.00 0.00 0.00 29 1011.0
20260503213849 16 31 9.7 30.6 0.00 0.00 0.00 29 1011.0
20260503213837 16 250 14.5 30.6 0.00 0.00 0.00 29 1011.0
20260503213818 16 340 12.9 30.6 0.00 0.00 0.00 29 1011.0
20260503213802 16 340 24.1 30.6 0.00 0.00 0.00 29 1011.0
20260503213753 16 340 24.1 30.6 0.00 0.00 0.00 29 1011.0
20260503213739 16 359 14.5 27.4 0.00 0.00 0.00 29 1011.0
20260503213722 16 18 12.9 25.7 0.00 0.00 0.00 29 1011.0
20260503213706 16 24 14.5 25.7 0.00 0.00 0.00 29 1011.0
20260503213657 16 357 14.5 25.7 0.00 0.00 0.00 29 1011.0
20260503213634 16 314 12.9 25.7 0.00 0.00 0.00 29 1011.0
20260503213625 16 307 11.3 22.5 0.00 0.00 0.00 29 1011.0
20260503213612 16 2 11.3 22.5 0.00 0.00 0.00 29 1011.0
20260503213548 16 324 8.0 22.5 0.00 0.00 0.00 29 1011.0
20260503213540 16 20 12.9 22.5 0.00 0.00 0.00 29 1011.0
20260503213521 16 358 9.7 22.5 0.00 0.00 0.00 29 1011.0
20260503213505 16 333 9.7 16.1 0.00 0.00 0.00 29 1011.0
20260503213450 16 333 9.7 17.7 0.00 0.00 0.00 30 1011.0
20260503213441 16 341 11.3 17.7 0.00 0.00 0.00 30 1011.0
20260503213418 16 15 8.0 22.5 0.00 0.00 0.00 30 1011.0
20260503213409 16 29 11.3 22.5 0.00 0.00 0.00 30 1011.0
20260503213345 16 40 11.3 24.1 0.00 0.00 0.00 30 1011.0
20260503213331 16 28 11.3 24.1 0.00 0.00 0.00 30 1011.0
20260503213313 16 54 9.7 24.1 0.00 0.00 0.00 30 1011.0
20260503213258 16 344 16.1 24.1 0.00 0.00 0.00 30 1011.0
20260503213249 16 349 17.7 24.1 0.00 0.00 0.00 29 1011.0
20260503213230 16 10 14.5 24.1 0.00 0.00 0.00 29 1011.0
20260503213153 16 11 8.0 22.5 0.00 0.00 0.00 29 1011.0
20260503213138 16 11 8.0 22.5 0.00 0.00 0.00 30 1011.0
20260503213129 16 318 12.9 22.5 0.00 0.00 0.00 30 1011.0
20260503213105 16 349 14.5 22.5 0.00 0.00 0.00 30 1011.0
20260503213049 16 18 19.3 22.5 0.00 0.00 0.00 30 1011.0
20260503213025 16 3 11.3 22.5 0.00 0.00 0.00 29 1011.0
20260503213013 16 259 12.9 22.5 0.00 0.00 0.00 29 1011.0
20260503212957 16 51 9.7 22.5 0.00 0.00 0.00 29 1011.0
20260503212917 16 28 19.3 22.5 0.00 0.00 0.00 29 1011.0
20260503212825 16 355 6.4 38.6 0.00 0.00 0.00 29 1011.0
20260503212808 16 291 9.7 38.6 0.00 0.00 0.00 29 1011.0
20260503212751 16 345 8.0 38.6 0.00 0.00 0.00 29 1011.0
20260503212722 16 342 19.3 38.6 0.00 0.00 0.00 29 1011.0
20260503212706 16 359 25.7 38.6 0.00 0.00 0.00 29 1011.0
20260503212658 16 359 25.7 38.6 0.00 0.00 0.00 29 1011.0
20260503212645 16 342 19.3 27.4 0.00 0.00 0.00 29 1011.0
20260503212636 16 325 12.9 24.1 0.00 0.00 0.00 29 1011.0
20260503212628 16 325 12.9 24.1 0.00 0.00 0.00 30 1011.0
20260503212609 16 12 8.0 24.1 0.00 0.00 0.00 30 1011.0
20260503212546 16 12 9.7 27.4 0.00 0.00 0.00 30 1011.0
20260503212536 16 357 12.9 27.4 0.00 0.00 0.00 30 1011.0
20260503212518 16 338 9.7 27.4 0.00 0.00 0.00 30 1011.0
20260503212459 16 24 9.7 27.4 0.00 0.00 0.00 30 1011.0
20260503212428 16 316 17.7 27.4 0.00 0.00 0.00 30 1011.0
20260503212409 16 347 11.3 17.7 0.00 0.00 0.00 31 1011.0
20260503212356 16 18 9.7 20.9 0.00 0.00 0.00 31 1011.0
20260503212329 16 277 8.0 20.9 0.00 0.00 0.00 31 1011.0
20260503212305 16 3 9.7 20.9 0.00 0.00 0.00 30 1011.0
20260503212250 16 340 8.0 20.9 0.00 0.00 0.00 30 1011.0
20260503212241 16 22 14.5 20.9 0.00 0.00 0.00 30 1011.0
20260503212225 16 17 6.4 14.5 0.00 0.00 0.00 30 1011.0
20260503212202 16 330 6.4 14.5 0.00 0.00 0.00 30 1011.0
20260503212137 16 302 9.7 14.5 0.00 0.00 0.00 30 1011.0
20260503212124 16 324 12.9 20.9 0.00 0.00 0.00 30 1011.0
20260503212106 16 3 11.3 20.9 0.00 0.00 0.00 30 1011.0
20260503212057 16 336 9.7 20.9 0.00 0.00 0.00 30 1011.0
20260503212043 16 13 11.3 20.9 0.00 0.00 0.00 30 1011.0
20260503212021 16 303 6.4 25.7 0.00 0.00 0.00 30 1011.0
20260503212013 16 276 9.7 25.7 0.00 0.00 0.00 30 1011.0
20260503211945 16 339 14.5 25.7 0.00 0.00 0.00 30 1011.0
20260503211929 16 309 12.9 25.7 0.00 0.00 0.00 30 1011.0
20260503211915 16 293 6.4 25.7 0.00 0.00 0.00 30 1011.0
20260503211905 16 283 12.9 25.7 0.00 0.00 0.00 30 1011.0
20260503211851 16 285 17.7 25.7 0.00 0.00 0.00 30 1011.0
20260503211827 16 278 9.7 24.1 0.00 0.00 0.00 30 1011.0
20260503211809 16 336 12.9 24.1 0.00 0.00 0.00 30 1011.0
20260503211754 16 337 8.0 24.1 0.00 0.00 0.00 30 1011.0
20260503211745 16 312 16.1 24.1 0.00 0.00 0.00 30 1011.0
20260503211721 16 348 19.3 24.1 0.00 0.00 0.00 30 1011.0
20260503211705 16 345 17.7 24.1 0.00 0.00 0.00 30 1011.0
20260503211641 16 325 9.7 27.4 0.00 0.00 0.00 30 1011.0
20260503211626 16 319 8.0 29.0 0.00 0.00 0.00 30 1011.0
20260503211617 16 347 12.9 29.0 0.00 0.00 0.00 30 1011.0
20260503211601 16 24 9.7 29.0 0.00 0.00 0.00 30 1011.0
20260503211537 16 335 16.1 29.0 0.00 0.00 0.00 30 1011.0
20260503211523 16 279 19.3 29.0 0.00 0.00 0.00 30 1011.0
20260503211506 16 309 16.1 29.0 0.00 0.00 0.00 30 1011.0
20260503211450 16 330 22.5 29.0 0.00 0.00 0.00 30 1011.0
20260503211441 16 9 19.3 29.0 0.00 0.00 0.00 31 1011.0
20260503211418 16 4 6.4 14.5 0.00 0.00 0.00 31 1011.0
20260503211409 16 306 8.0 14.5 0.00 0.00 0.00 31 1011.0
20260503211345 16 31 11.3 14.5 0.00 0.00 0.00 31 1011.0
20260503211331 16 331 8.0 17.7 0.00 0.00 0.00 30 1011.0
20260503211313 16 0 6.4 17.7 0.00 0.00 0.00 30 1011.0
20260503211300 16 344 6.4 20.9 0.00 0.00 0.00 30 1011.0
20260503211238 16 45 8.0 20.9 0.00 0.00 0.00 30 1011.0
20260503211201 16 37 11.3 27.4 0.00 0.00 0.00 30 1011.0
20260503211148 16 43 12.9 27.4 0.00 0.00 0.00 30 1011.0
20260503211140 16 350 17.7 27.4 0.00 0.00 0.00 30 1011.0
20260503211106 16 43 12.9 27.4 0.00 0.00 0.00 30 1011.0
20260503211057 16 43 12.9 30.6 0.00 0.00 0.00 30 1011.0
20260503211048 16 32 16.1 30.6 0.00 0.00 0.00 30 1011.0
20260503211009 16 39 12.9 30.6 0.00 0.00 0.00 30 1011.0
20260503210956 16 20 17.7 30.6 0.00 0.00 0.00 30 1011.0
20260503210933 16 49 16.1 25.7 0.00 0.00 0.00 30 1011.0
20260503210925 16 49 16.1 25.7 0.00 0.00 0.00 29 1011.0
20260503210906 16 359 14.5 22.5 0.00 0.00 0.00 29 1011.0
20260503210842 16 336 12.9 17.7 0.00 0.00 0.00 29 1011.0
20260503210833 16 350 12.9 17.7 0.00 0.00 0.00 29 1011.0
20260503210815 16 295 9.7 20.9 0.00 0.00 0.00 30 1011.0
20260503210737 16 345 12.9 20.9 0.00 0.00 0.00 30 1011.0
20260503210725 16 26 9.7 20.9 0.00 0.00 0.00 30 1011.0
20260503210717 16 338 11.3 20.9 0.00 0.00 0.00 30 1011.0
20260503210659 16 353 14.5 20.9 0.00 0.00 0.00 30 1011.0
20260503210634 16 346 12.9 17.7 0.00 0.00 0.00 30 1011.0
20260503210625 16 12 12.9 24.1 0.00 0.00 0.00 30 1011.0
20260503210612 16 4 12.9 24.1 0.00 0.00 0.00 30 1011.0
20260503210606 16 4 12.9 30.6 0.00 0.00 0.00 30 1011.0
20260503210529 16 343 11.3 30.6 0.00 0.00 0.00 30 1011.0
20260503210514 16 300 12.9 30.6 0.00 0.00 0.00 30 1011.0
20260503210505 16 21 16.1 30.6 0.00 0.00 0.00 29 1011.0
20260503210441 16 26 12.9 30.6 0.00 0.00 0.00 29 1011.0
20260503210425 16 329 14.5 30.6 0.00 0.00 0.00 29 1011.0
20260503210411 16 321 19.3 25.7 0.00 0.00 0.00 29 1011.0
20260503210403 16 321 19.3 25.7 0.00 0.00 0.00 30 1011.0
20260503210354 16 311 11.3 24.1 0.00 0.00 0.00 30 1011.0
20260503210337 16 31 14.5 24.1 0.00 0.00 0.00 30 1011.0
20260503210313 16 91 14.5 24.1 0.00 0.00 0.00 30 1011.0
20260503210258 16 4 11.3 24.1 0.00 0.00 0.00 30 1011.0
20260503210249 16 11 9.7 24.1 0.00 0.00 0.00 30 1011.0
20260503210239 16 27 14.5 24.1 0.00 0.00 0.00 30 1011.0
20260503210202 16 50 9.7 27.4 0.00 0.00 0.00 30 1011.0
20260503210153 16 50 9.7 27.4 0.00 0.00 0.00 30 1011.0
20260503210140 16 324 9.7 27.4 0.00 0.00 0.00 30 1011.0
20260503210113 16 16 19.3 27.4 0.00 0.00 0.00 30 1011.0
20260503210041 16 20 9.7 35.4 0.00 0.00 0.00 29 1011.0
20260503210025 16 301 14.5 35.4 0.00 0.00 0.00 29 1011.0
20260503210002 16 359 12.9 35.4 0.00 0.00 0.00 29 1011.0
20260503205937 16 9 11.3 35.4 0.00 0.00 0.00 30 1011.0
20260503205923 16 281 17.7 35.4 0.00 0.00 0.00 30 1011.0
20260503205917 16 36 19.3 35.4 0.00 0.00 0.00 30 1011.0
20260503205851 16 1 24.1 35.4 0.00 0.00 0.00 30 1011.0
20260503205841 16 34 14.5 22.5 0.00 0.00 0.00 29 1011.0
20260503205829 16 329 14.5 22.5 0.00 0.00 0.00 29 1011.0
20260503205810 16 10 11.3 22.5 0.00 0.00 0.00 29 1011.0
20260503205755 16 6 12.9 27.4 0.00 0.00 0.00 29 1011.0
20260503205731 16 3 12.9 30.6 0.00 0.00 0.00 29 1011.0
20260503205714 16 7 11.3 30.6 0.00 0.00 0.00 29 1011.0
20260503205658 16 45 9.7 30.6 0.00 0.00 0.00 29 1011.0
20260503205649 16 5 17.7 30.6 0.00 0.00 0.00 29 1011.0
20260503205630 16 339 17.7 30.6 0.00 0.00 0.00 30 1011.0
20260503205553 16 2 11.3 27.4 0.00 0.00 0.00 30 1011.0
20260503205538 16 26 16.1 27.4 0.00 0.00 0.00 30 1011.0
20260503205514 16 22 16.1 33.8 0.00 0.00 0.00 30 1011.0
20260503205505 16 17 12.9 33.8 0.00 0.00 0.00 30 1011.0
20260503205449 16 2 11.3 33.8 0.00 0.00 0.00 30 1011.0
20260503205427 16 47 17.7 33.8 0.00 0.00 0.00 30 1011.0
20260503205417 16 16 12.9 33.8 0.00 0.00 0.00 30 1011.0
20260503205401 16 6 16.1 33.8 0.00 0.00 0.00 30 1011.0
20260503205341 16 356 12.9 30.6 0.00 0.00 0.00 30 1011.0
20260503205321 16 26 9.7 30.6 0.00 0.00 0.00 30 1011.0
20260503205306 16 5 17.7 30.6 0.00 0.00 0.00 30 1011.0
20260503205257 16 19 17.7 30.6 0.00 0.00 0.00 30 1011.0
20260503205241 16 45 14.5 30.6 0.00 0.00 0.00 30 1011.0
20260503205218 16 35 16.1 30.6 0.00 0.00 0.00 30 1011.0
20260503205209 16 11 20.9 25.7 0.00 0.00 0.00 30 1011.0
20260503205153 16 11 20.9 25.7 0.00 0.00 0.00 30 1011.0
20260503205133 16 34 11.3 24.1 0.00 0.00 0.00 30 1011.0
20260503205113 16 328 9.7 24.1 0.00 0.00 0.00 30 1011.0
20260503205049 16 350 17.7 30.6 0.00 0.00 0.00 30 1011.0
20260503205039 16 36 11.3 30.6 0.00 0.00 0.00 30 1011.0
20260503205020 16 10 16.1 30.6 0.00 0.00 0.00 30 1011.0
20260503205001 16 36 9.7 30.6 0.00 0.00 0.00 30 1011.0
20260503204949 16 9 12.9 30.6 0.00 0.00 0.00 30 1011.0
20260503204943 16 20 20.9 30.6 0.00 0.00 0.00 30 1011.0
20260503204913 16 11 19.3 25.7 0.00 0.00 0.00 30 1011.0
20260503204900 16 26 11.3 24.1 0.00 0.00 0.00 29 1011.0
20260503204833 16 337 12.9 24.1 0.00 0.00 0.00 29 1011.0
20260503204809 16 326 9.7 24.1 0.00 0.00 0.00 29 1011.0
20260503204756 16 324 9.7 24.1 0.00 0.00 0.00 29 1011.0
20260503204738 16 3 16.1 24.1 0.00 0.00 0.00 29 1011.0
20260503204724 16 20 16.1 22.5 0.00 0.00 0.00 29 1011.0
20260503204717 16 15 14.5 22.5 0.00 0.00 0.00 29 1011.0
20260503204658 16 13 14.5 22.5 0.00 0.00 0.00 30 1011.0
20260503204636 16 355 11.3 22.5 0.00 0.00 0.00 30 1011.0
20260503204610 16 61 16.1 30.6 0.00 0.00 0.00 30 1011.0
20260503204601 16 77 12.9 30.6 0.00 0.00 0.00 30 1011.0
20260503204538 16 8 14.5 30.6 0.00 0.00 0.00 30 1011.0
20260503204529 16 43 14.5 30.6 0.00 0.00 0.00 30 1011.0
20260503204505 16 8 24.1 30.6 0.00 0.00 0.00 30 1011.0
20260503204451 16 359 17.7 30.6 0.00 0.00 0.00 30 1011.0
20260503204433 16 321 16.1 29.0 0.00 0.00 0.00 30 1011.0
20260503204420 16 43 14.5 29.0 0.00 0.00 0.00 30 1011.0
20260503204413 16 6 17.7 29.0 0.00 0.00 0.00 30 1011.0
20260503204353 16 13 12.9 29.0 0.00 0.00 0.00 30 1011.0
20260503204342 16 65 12.9 29.0 0.00 0.00 0.00 30 1011.0
20260503204308 16 39 17.7 25.7 0.00 0.00 0.00 30 1011.0
20260503204243 16 16 11.3 24.1 0.00 0.00 0.00 30 1011.0
20260503204225 16 10 12.9 24.1 0.00 0.00 0.00 30 1011.0
20260503204201 16 37 12.9 24.1 0.00 0.00 0.00 30 1011.0
20260503204148 16 44 16.1 24.1 0.00 0.00 0.00 30 1011.0
20260503204140 16 37 17.7 24.1 0.00 0.00 0.00 30 1011.0
20260503204121 16 19 14.5 24.1 0.00 0.00 0.00 30 1011.0
20260503204105 16 8 17.7 22.5 0.00 0.00 0.00 30 1011.0
20260503204041 16 4 12.9 24.1 0.00 0.00 0.00 30 1011.0
20260503204026 16 6 9.7 30.6 0.00 0.00 0.00 30 1011.0
20260503204017 16 357 9.7 30.6 0.00 0.00 0.00 30 1011.0
20260503204001 16 355 9.7 30.6 0.00 0.00 0.00 30 1011.0
20260503203937 16 268 8.0 30.6 0.00 0.00 0.00 30 1011.0
20260503203922 16 348 16.1 30.6 0.00 0.00 0.00 30 1011.0
20260503203913 16 23 19.3 30.6 0.00 0.00 0.00 30 1011.0
20260503203857 16 38 19.3 30.6 0.00 0.00 0.00 30 1011.0
20260503203833 16 10 14.5 24.1 0.00 0.00 0.00 30 1011.0
20260503203818 16 18 14.5 25.7 0.00 0.00 0.00 30 1011.0
20260503203810 16 359 12.9 25.7 0.00 0.00 0.00 30 1011.0
20260503203738 16 11 16.1 27.4 0.00 0.00 0.00 30 1011.0
20260503203729 16 48 11.3 27.4 0.00 0.00 0.00 30 1011.0
20260503203718 16 24 12.9 27.4 0.00 0.00 0.00 30 1011.0
20260503203633 16 305 14.5 27.4 0.00 0.00 0.00 30 1011.0
20260503203619 16 357 16.1 37.0 0.00 0.00 0.00 30 1011.0
20260503203601 16 37 16.1 37.0 0.00 0.00 0.00 30 1011.0
20260503203546 16 8 12.9 37.0 0.00 0.00 0.00 30 1011.0
20260503203537 16 39 16.1 37.0 0.00 0.00 0.00 30 1011.0
20260503203517 16 20 9.7 38.6 0.00 0.00 0.00 30 1011.0
20260503203458 16 9 17.7 38.6 0.00 0.00 0.00 30 1011.0
20260503203450 16 7 20.9 38.6 0.00 0.00 0.00 30 1011.0
20260503203425 16 35 16.1 38.6 0.00 0.00 0.00 30 1011.0
20260503203411 16 49 20.9 38.6 0.00 0.00 0.00 30 1011.0
20260503203402 16 34 20.9 33.8 0.00 0.00 0.00 30 1011.0
20260503203353 16 34 20.9 33.8 0.00 0.00 0.00 30 1011.0
20260503203338 16 348 12.9 33.8 0.00 0.00 0.00 30 1011.0
20260503203315 16 2 17.7 33.8 0.00 0.00 0.00 30 1011.0
20260503203306 16 20 19.3 24.1 0.00 0.00 0.00 30 1011.0
20260503203257 16 20 19.3 25.7 0.00 0.00 0.00 30 1011.0
20260503203244 16 20 9.7 25.7 0.00 0.00 0.00 30 1011.0
20260503203210 16 10 11.3 25.7 0.00 0.00 0.00 30 1011.0
20260503203201 16 20 14.5 25.7 0.00 0.00 0.00 30 1011.0
20260503203145 16 329 17.7 25.7 0.00 0.00 0.00 30 1011.0
20260503203124 16 14 22.5 29.0 0.00 0.00 0.00 30 1011.0
20260503203105 16 353 19.3 29.0 0.00 0.00 0.00 30 1011.0
20260503203050 16 46 14.5 29.0 0.00 0.00 0.00 30 1011.0
20260503203041 16 33 12.9 29.0 0.00 0.00 0.00 30 1011.0
20260503203025 16 28 16.1 29.0 0.00 0.00 0.00 30 1011.0
20260503203003 16 20 16.1 29.0 0.00 0.00 0.00 30 1011.0
20260503202953 16 17 22.5 29.0 0.00 0.00 0.00 30 1011.0
20260503202937 16 37 14.5 24.1 0.00 0.00 0.00 30 1011.0
20260503202913 16 345 9.7 20.9 0.00 0.00 0.00 30 1011.0
20260503202849 16 331 9.7 22.5 0.00 0.00 0.00 30 1011.0
20260503202835 16 353 14.5 22.5 0.00 0.00 0.00 30 1011.0
20260503202829 16 44 11.3 22.5 0.00 0.00 0.00 30 1011.0
20260503202802 16 355 17.7 30.6 0.00 0.00 0.00 30 1011.0
20260503202753 16 22 12.9 30.6 0.00 0.00 0.00 30 1011.0
20260503202730 16 9 12.9 30.6 0.00 0.00 0.00 30 1011.0
20260503202722 16 25 14.5 30.6 0.00 0.00 0.00 30 1011.0
20260503202706 16 356 11.3 30.6 0.00 0.00 0.00 30 1011.0
20260503202657 16 356 11.3 30.6 0.00 0.00 0.00 30 1011.0
20260503202635 16 15 19.3 30.6 0.00 0.00 0.00 30 1011.0
20260503202611 16 69 14.5 30.6 0.00 0.00 0.00 30 1011.0
20260503202541 16 343 20.9 30.6 0.00 0.00 0.00 30 1011.0
20260503202521 16 24 19.3 30.6 0.00 0.00 0.00 30 1011.0
20260503202505 16 348 12.9 30.6 0.00 0.00 0.00 30 1011.0
20260503202453 16 15 24.1 30.6 0.00 0.00 0.00 30 1011.0
20260503202426 16 4 17.7 27.4 0.00 0.00 0.00 30 1011.0
20260503202417 16 9 16.1 27.4 0.00 0.00 0.00 30 1011.0
20260503202403 16 8 12.9 27.4 0.00 0.00 0.00 30 1011.0
20260503202339 16 355 12.9 27.4 0.00 0.00 0.00 30 1011.0
20260503202321 16 14 19.3 40.2 0.00 0.00 0.00 29 1011.0
20260503202307 16 13 12.9 40.2 0.00 0.00 0.00 29 1011.0
20260503202239 16 20 20.9 40.2 0.00 0.00 0.00 29 1011.0
20260503202223 16 39 14.5 40.2 0.00 0.00 0.00 30 1011.0
20260503202147 16 7 24.1 40.2 0.00 0.00 0.00 30 1011.0
20260503202113 16 6 19.3 25.7 0.00 0.00 0.00 30 1011.0
20260503202100 16 39 12.9 20.9 0.00 0.00 0.00 30 1011.0
20260503202054 16 57 11.3 20.9 0.00 0.00 0.00 30 1011.0
20260503202009 16 16 11.3 24.1 0.00 0.00 0.00 29 1011.0
20260503201953 16 14 9.7 24.1 0.00 0.00 0.00 29 1011.0
20260503201915 16 14 11.3 24.1 0.00 0.00 0.00 29 1011.0
20260503201906 16 13 19.3 24.1 0.00 0.00 0.00 29 1011.0
20260503201858 16 13 19.3 33.8 0.00 0.00 0.00 29 1011.0
20260503201842 16 36 19.3 33.8 0.00 0.00 0.00 29 1011.0
20260503201833 16 8 14.5 33.8 0.00 0.00 0.00 29 1011.0
20260503201820 16 3 17.7 33.8 0.00 0.00 0.00 29 1011.0
20260503201812 16 3 17.7 33.8 0.00 0.00 0.00 30 1011.0
20260503201754 16 20 16.1 33.8 0.00 0.00 0.00 30 1011.0
20260503201737 16 74 19.3 33.8 0.00 0.00 0.00 30 1011.0
20260503201722 16 25 25.7 33.8 0.00 0.00 0.00 30 1011.0
20260503201713 16 10 17.7 33.8 0.00 0.00 0.00 30 1011.0
20260503201652 16 2 22.5 33.8 0.00 0.00 0.00 30 1011.0
20260503201617 16 26 20.9 33.8 0.00 0.00 0.00 30 1011.0
20260503201602 16 40 14.5 33.8 0.00 0.00 0.00 30 1011.0
20260503201537 16 32 16.1 33.8 0.00 0.00 0.00 30 1011.0
20260503201523 16 6 17.7 33.8 0.00 0.00 0.00 30 1011.0
20260503201505 16 7 24.1 33.8 0.00 0.00 0.00 30 1011.0
20260503201449 16 55 11.3 27.4 0.00 0.00 0.00 30 1011.0
20260503201436 16 343 9.7 27.4 0.00 0.00 0.00 30 1011.0
20260503201419 16 1 19.3 27.4 0.00 0.00 0.00 30 1011.0
20260503201345 16 65 19.3 25.7 0.00 0.00 0.00 29 1011.0
20260503201329 16 18 14.5 24.1 0.00 0.00 0.00 29 1011.0
20260503201316 16 345 14.5 24.1 0.00 0.00 0.00 29 1011.0
20260503201257 16 359 17.7 30.6 0.00 0.00 0.00 29 1011.0
20260503201241 16 5 17.7 30.6 0.00 0.00 0.00 30 1011.0
20260503201226 16 18 17.7 30.6 0.00 0.00 0.00 30 1011.0
20260503201217 16 352 12.9 30.6 0.00 0.00 0.00 30 1011.0
20260503201202 16 125 14.5 30.6 0.00 0.00 0.00 30 1011.0
20260503201153 16 125 14.5 30.6 0.00 0.00 0.00 30 1011.0
20260503201139 16 357 17.7 30.6 0.00 0.00 0.00 30 1011.0
20260503201131 16 3 14.5 25.7 0.00 0.00 0.00 30 1011.0
20260503201106 16 13 14.5 25.7 0.00 0.00 0.00 30 1011.0
20260503201057 16 13 14.5 25.7 0.00 0.00 0.00 30 1011.0
20260503201045 16 47 17.7 25.7 0.00 0.00 0.00 30 1011.0
20260503201038 16 307 12.9 25.7 0.00 0.00 0.00 30 1011.0
20260503201019 16 16 14.5 25.7 0.00 0.00 0.00 30 1011.0
20260503200954 16 53 19.3 25.7 0.00 0.00 0.00 30 1011.0
20260503200945 16 30 16.1 25.7 0.00 0.00 0.00 30 1011.0
20260503200936 16 16 20.9 25.7 0.00 0.00 0.00 30 1011.0
20260503200907 16 13 17.7 22.5 0.00 0.00 0.00 30 1011.0
20260503200842 16 313 6.4 24.1 0.00 0.00 0.00 30 1011.0
20260503200833 16 313 6.4 24.1 0.00 0.00 0.00 29 1011.0
20260503200817 16 338 11.3 24.1 0.00 0.00 0.00 29 1011.0
20260503200802 16 29 12.9 37.0 0.00 0.00 0.00 29 1011.0
20260503200753 16 1 9.7 37.0 0.00 0.00 0.00 29 1011.0
20260503200740 16 338 14.5 37.0 0.00 0.00 0.00 29 1011.0
20260503200713 16 20 14.5 37.0 0.00 0.00 0.00 29 1011.0
20260503200649 16 12 12.9 37.0 0.00 0.00 0.00 29 1011.0
20260503200635 16 20 14.5 37.0 0.00 0.00 0.00 29 1011.0
20260503200609 16 53 24.1 35.4 0.00 0.00 0.00 29 1011.0
20260503200545 16 24 16.1 29.0 0.00 0.00 0.00 29 1011.0
20260503200529 16 27 24.1 37.0 0.00 0.00 0.00 29 1011.0
20260503200521 16 356 16.1 37.0 0.00 0.00 0.00 29 1011.0
20260503200505 16 13 16.1 37.0 0.00 0.00 0.00 29 1011.0
20260503200441 16 324 19.3 37.0 0.00 0.00 0.00 29 1011.0
20260503200425 16 31 24.1 37.0 0.00 0.00 0.00 29 1011.0
20260503200417 17 8 14.5 37.0 0.00 0.00 0.00 29 1011.0
20260503200401 17 357 20.9 37.0 0.00 0.00 0.00 29 1011.0
20260503200337 17 20 14.5 35.4 0.00 0.00 0.00 29 1011.0
20260503200322 17 334 16.1 35.4 0.00 0.00 0.00 29 1011.0
20260503200313 17 344 17.7 35.4 0.00 0.00 0.00 29 1011.0
20260503200257 17 26 22.5 35.4 0.00 0.00 0.00 29 1011.0
20260503200238 17 336 12.9 29.0 0.00 0.00 0.00 29 1011.0
20260503200209 17 24 14.5 30.6 0.00 0.00 0.00 28 1011.0
20260503200154 17 20 11.3 30.6 0.00 0.00 0.00 28 1011.0
20260503200145 17 14 12.9 30.6 0.00 0.00 0.00 28 1011.0
20260503200125 17 2 11.3 30.6 0.00 0.00 0.00 28 1011.0
20260503200106 17 20 17.7 30.6 0.00 0.00 0.00 29 1011.0
20260503200058 17 2 19.3 30.6 0.00 0.00 0.00 29 1011.0
20260503200037 17 32 25.7 30.6 0.00 0.00 0.00 29 1011.0
20260503200017 17 15 12.9 27.4 0.00 0.00 0.00 29 1011.0
20260503200004 17 0 19.3 27.4 0.00 0.00 0.00 29 1011.0
20260503195956 17 49 9.7 27.4 0.00 0.00 0.00 29 1011.0
20260503195930 17 24 16.1 27.4 0.00 0.00 0.00 29 1011.0
20260503195921 17 13 12.9 27.4 0.00 0.00 0.00 29 1011.0
20260503195906 17 27 9.7 27.4 0.00 0.00 0.00 29 1011.0
20260503195857 17 27 9.7 27.4 0.00 0.00 0.00 29 1011.0
20260503195841 17 0 16.1 27.4 0.00 0.00 0.00 29 1011.0
20260503195827 17 24 19.3 27.4 0.00 0.00 0.00 29 1011.0
20260503195809 17 7 17.7 27.4 0.00 0.00 0.00 29 1011.0
20260503195753 17 18 11.3 27.4 0.00 0.00 0.00 29 1011.0
20260503195733 17 48 12.9 27.4 0.00 0.00 0.00 29 1011.0
20260503195713 17 11 22.5 27.4 0.00 0.00 0.00 29 1011.0
20260503195658 17 22 17.7 27.4 0.00 0.00 0.00 29 1011.0
20260503195649 17 38 9.7 27.4 0.00 0.00 0.00 28 1011.0
20260503195633 17 40 14.5 27.4 0.00 0.00 0.00 28 1011.0
20260503195609 17 24 12.9 17.7 0.00 0.00 0.00 28 1010.0
20260503195545 17 7 14.5 17.7 0.00 0.00 0.00 28 1010.0
20260503195529 17 40 9.7 17.7 0.00 0.00 0.00 28 1011.0
20260503195506 17 14 12.9 17.7 0.00 0.00 0.00 28 1011.0
20260503195457 17 350 12.9 22.5 0.00 0.00 0.00 28 1011.0
20260503195441 17 67 12.9 22.5 0.00 0.00 0.00 28 1011.0
20260503195430 17 356 11.3 25.7 0.00 0.00 0.00 28 1011.0
20260503195411 17 359 9.7 25.7 0.00 0.00 0.00 28 1011.0
20260503195345 17 34 12.9 30.6 0.00 0.00 0.00 28 1011.0
20260503195337 17 34 12.9 30.6 0.00 0.00 0.00 27 1011.0
20260503195321 17 5 14.5 37.0 0.00 0.00 0.00 27 1011.0
20260503195306 17 307 14.5 37.0 0.00 0.00 0.00 27 1011.0
20260503195257 17 299 19.3 37.0 0.00 0.00 0.00 27 1011.0
20260503195233 17 356 24.1 37.0 0.00 0.00 0.00 27 1011.0
20260503195217 17 334 20.9 37.0 0.00 0.00 0.00 27 1011.0
20260503195203 17 326 25.7 37.0 0.00 0.00 0.00 27 1011.0
20260503195155 17 286 24.1 33.8 0.00 0.00 0.00 27 1011.0
20260503195128 17 329 12.9 30.6 0.00 0.00 0.00 26 1011.0
20260503195121 17 304 14.5 30.6 0.00 0.00 0.00 26 1011.0
20260503195102 17 304 25.7 30.6 0.00 0.00 0.00 26 1011.0
20260503195044 17 322 20.9 29.0 0.00 0.00 0.00 26 1011.0
20260503195025 17 316 19.3 29.0 0.00 0.00 0.00 27 1011.0
20260503195009 17 303 12.9 29.0 0.00 0.00 0.00 27 1011.0
20260503194953 17 313 16.1 35.4 0.00 0.00 0.00 27 1011.0
20260503194945 17 336 24.1 35.4 0.00 0.00 0.00 27 1011.0
20260503194921 17 315 17.7 35.4 0.00 0.00 0.00 27 1011.0
20260503194904 17 261 9.7 35.4 0.00 0.00 0.00 27 1011.0
20260503194841 17 31 12.9 35.4 0.00 0.00 0.00 27 1011.0
20260503194826 17 357 22.5 37.0 0.00 0.00 0.00 27 1011.0
20260503194817 17 19 27.4 37.0 0.00 0.00 0.00 27 1011.0
20260503194800 17 63 12.9 37.0 0.00 0.00 0.00 27 1011.0
20260503194738 17 354 19.3 37.0 0.00 0.00 0.00 27 1011.0
20260503194729 17 304 16.1 37.0 0.00 0.00 0.00 27 1010.0
20260503194713 17 26 17.7 37.0 0.00 0.00 0.00 27 1010.0
20260503194700 17 354 22.5 37.0 0.00 0.00 0.00 27 1010.0
20260503194650 17 354 22.5 37.0 0.00 0.00 0.00 27 1010.0
20260503194643 17 317 19.3 35.4 0.00 0.00 0.00 27 1010.0
20260503194618 17 325 12.9 22.5 0.00 0.00 0.00 27 1011.0
20260503194609 17 332 9.7 22.5 0.00 0.00 0.00 27 1011.0
20260503194546 17 348 14.5 25.7 0.00 0.00 0.00 27 1011.0
20260503194537 17 29 17.7 25.7 0.00 0.00 0.00 27 1011.0
20260503194513 17 3 19.3 37.0 0.00 0.00 0.00 27 1011.0
20260503194450 17 0 16.1 37.0 0.00 0.00 0.00 27 1011.0
20260503194441 17 16 16.1 37.0 0.00 0.00 0.00 27 1011.0
20260503194417 17 43 19.3 37.0 0.00 0.00 0.00 27 1011.0
20260503194404 17 51 25.7 37.0 0.00 0.00 0.00 27 1011.0
20260503194358 17 32 22.5 27.4 0.00 0.00 0.00 27 1011.0
20260503194329 17 50 20.9 27.4 0.00 0.00 0.00 27 1011.0
20260503194305 17 331 20.9 27.4 0.00 0.00 0.00 27 1011.0
20260503194249 17 311 20.9 27.4 0.00 0.00 0.00 28 1011.0
20260503194233 17 9 17.7 25.7 0.00 0.00 0.00 28 1011.0
20260503194224 17 9 17.7 33.8 0.00 0.00 0.00 28 1010.0
20260503194211 17 340 19.3 33.8 0.00 0.00 0.00 28 1010.0
20260503194202 17 5 19.3 33.8 0.00 0.00 0.00 28 1010.0
20260503194153 17 5 19.3 33.8 0.00 0.00 0.00 27 1010.0
20260503194139 17 22 12.9 33.8 0.00 0.00 0.00 27 1010.0
20260503194117 17 14 17.7 33.8 0.00 0.00 0.00 27 1011.0
20260503194032 17 345 24.1 29.0 0.00 0.00 0.00 28 1011.0
20260503194014 17 348 24.1 29.0 0.00 0.00 0.00 28 1011.0
20260503193937 17 23 19.3 27.4 0.00 0.00 0.00 27 1011.0
20260503193921 17 5 12.9 27.4 0.00 0.00 0.00 27 1010.0
20260503193912 17 58 20.9 27.4 0.00 0.00 0.00 27 1010.0
20260503193849 17 13 19.3 30.6 0.00 0.00 0.00 27 1010.0
20260503193834 17 33 12.9 30.6 0.00 0.00 0.00 27 1010.0
20260503193821 17 7 17.7 33.8 0.00 0.00 0.00 27 1011.0
20260503193800 17 353 17.7 33.8 0.00 0.00 0.00 27 1011.0
20260503193744 17 7 16.1 33.8 0.00 0.00 0.00 27 1011.0
20260503193729 17 36 14.5 33.8 0.00 0.00 0.00 28 1011.0
20260503193716 17 40 20.9 33.8 0.00 0.00 0.00 28 1011.0
20260503193657 17 310 20.9 33.8 0.00 0.00 0.00 28 1011.0
20260503193642 17 22 14.5 33.8 0.00 0.00 0.00 28 1011.0
20260503193633 17 325 12.9 33.8 0.00 0.00 0.00 27 1011.0
20260503193614 17 5 16.1 35.4 0.00 0.00 0.00 27 1011.0
20260503193556 17 16 16.1 40.2 0.00 0.00 0.00 27 1011.0
20260503193537 17 8 22.5 40.2 0.00 0.00 0.00 27 1011.0
20260503193521 17 343 19.3 40.2 0.00 0.00 0.00 27 1011.0
20260503193506 17 20 19.3 40.2 0.00 0.00 0.00 27 1011.0
20260503193458 17 20 19.3 40.2 0.00 0.00 0.00 27 1011.0
20260503193448 17 25 20.9 40.2 0.00 0.00 0.00 27 1011.0
20260503193434 17 34 14.5 40.2 0.00 0.00 0.00 27 1011.0
20260503193422 17 25 24.1 40.2 0.00 0.00 0.00 26 1010.0
20260503193352 17 330 20.9 33.8 0.00 0.00 0.00 26 1010.0
20260503193339 17 30 20.9 33.8 0.00 0.00 0.00 26 1010.0
20260503193332 17 2 17.7 27.4 0.00 0.00 0.00 26 1011.0
20260503193305 17 18 20.9 27.4 0.00 0.00 0.00 26 1011.0
20260503193256 17 347 16.1 30.6 0.00 0.00 0.00 26 1011.0
20260503193243 17 3 24.1 30.6 0.00 0.00 0.00 26 1011.0
20260503193220 18 298 17.7 30.6 0.00 0.00 0.00 26 1011.0
20260503193200 18 42 22.5 30.6 0.00 0.00 0.00 26 1011.0
20260503193145 18 13 19.3 30.6 0.00 0.00 0.00 26 1011.0
20260503193128 18 349 12.9 30.6 0.00 0.00 0.00 26 1010.0
20260503193105 18 9 16.1 30.6 0.00 0.00 0.00 26 1010.0
20260503193049 18 323 20.9 30.6 0.00 0.00 0.00 26 1010.0
20260503193041 18 0 14.5 30.6 0.00 0.00 0.00 26 1010.0
20260503193029 18 355 24.1 30.6 0.00 0.00 0.00 26 1010.0
20260503193009 18 44 9.7 25.7 0.00 0.00 0.00 26 1010.0
20260503192945 18 5 12.9 25.7 0.00 0.00 0.00 26 1010.0
20260503192930 18 352 12.9 27.4 0.00 0.00 0.00 26 1010.0
20260503192924 18 4 17.7 27.4 0.00 0.00 0.00 26 1010.0
20260503192857 18 342 17.7 27.4 0.00 0.00 0.00 26 1010.0
20260503192849 18 359 17.7 27.4 0.00 0.00 0.00 26 1010.0
20260503192833 18 16 17.7 27.4 0.00 0.00 0.00 26 1010.0
20260503192825 18 16 17.7 27.4 0.00 0.00 0.00 26 1011.0
20260503192809 18 16 19.3 27.4 0.00 0.00 0.00 26 1011.0
20260503192755 18 350 20.9 27.4 0.00 0.00 0.00 26 1011.0
20260503192736 18 283 12.9 22.5 0.00 0.00 0.00 26 1011.0
20260503192717 18 337 8.0 22.5 0.00 0.00 0.00 26 1011.0
20260503192657 18 20 8.0 22.5 0.00 0.00 0.00 26 1011.0
20260503192645 18 352 9.7 22.5 0.00 0.00 0.00 26 1011.0
20260503192636 18 349 12.9 22.5 0.00 0.00 0.00 26 1011.0
20260503192627 18 349 12.9 22.5 0.00 0.00 0.00 26 1010.0
20260503192619 18 299 11.3 22.5 0.00 0.00 0.00 26 1010.0
20260503192553 18 354 11.3 22.5 0.00 0.00 0.00 26 1010.0
20260503192544 18 304 9.7 22.5 0.00 0.00 0.00 26 1010.0
20260503192521 18 304 9.7 22.5 0.00 0.00 0.00 26 1011.0
20260503192505 18 12 11.3 22.5 0.00 0.00 0.00 26 1011.0
20260503192449 18 32 11.3 25.7 0.00 0.00 0.00 26 1011.0
20260503192434 18 7 16.1 25.7 0.00 0.00 0.00 26 1011.0
20260503192424 18 305 12.9 25.7 0.00 0.00 0.00 26 1011.0
20260503192400 18 37 8.0 25.7 0.00 0.00 0.00 26 1011.0
20260503192345 18 339 14.5 25.7 0.00 0.00 0.00 26 1011.0
20260503192336 18 22 17.7 25.7 0.00 0.00 0.00 26 1011.0
20260503192313 18 315 14.5 25.7 0.00 0.00 0.00 26 1010.0
20260503192251 18 331 17.7 24.1 0.00 0.00 0.00 26 1010.0
20260503192241 18 306 9.7 20.9 0.00 0.00 0.00 26 1010.0
20260503192219 18 31 11.3 20.9 0.00 0.00 0.00 26 1010.0
20260503192146 18 343 12.9 30.6 0.00 0.00 0.00 26 1010.0
20260503192130 18 28 9.7 30.6 0.00 0.00 0.00 26 1010.0
20260503192120 18 4 11.3 30.6 0.00 0.00 0.00 26 1010.0
20260503192106 18 349 14.5 30.6 0.00 0.00 0.00 26 1010.0
20260503192044 18 11 12.9 30.6 0.00 0.00 0.00 26 1010.0
20260503192024 18 316 19.3 30.6 0.00 0.00 0.00 26 1010.0
20260503192012 18 352 14.5 24.1 0.00 0.00 0.00 26 1010.0
20260503191943 18 2 17.7 25.7 0.00 0.00 0.00 26 1010.0
20260503191912 18 25 14.5 25.7 0.00 0.00 0.00 26 1010.0
20260503191857 18 17 17.7 25.7 0.00 0.00 0.00 26 1010.0
20260503191833 18 355 16.1 25.7 0.00 0.00 0.00 26 1010.0
20260503191810 18 299 16.1 25.7 0.00 0.00 0.00 27 1010.0
20260503191801 18 288 17.7 25.7 0.00 0.00 0.00 27 1010.0
20260503191736 18 354 12.9 25.7 0.00 0.00 0.00 27 1010.0
20260503191724 18 2 11.3 30.6 0.00 0.00 0.00 26 1011.0
20260503191706 18 355 12.9 30.6 0.00 0.00 0.00 26 1011.0
20260503191649 18 307 17.7 30.6 0.00 0.00 0.00 26 1011.0
20260503191634 18 30 14.5 30.6 0.00 0.00 0.00 26 1011.0
20260503191626 18 333 12.9 30.6 0.00 0.00 0.00 26 1010.0
20260503191604 18 346 20.9 30.6 0.00 0.00 0.00 26 1010.0
20260503191545 18 28 17.7 30.6 0.00 0.00 0.00 26 1010.0
20260503191529 18 352 19.3 30.6 0.00 0.00 0.00 26 1010.0
20260503191515 18 7 22.5 30.6 0.00 0.00 0.00 27 1010.0
20260503191505 18 7 14.5 25.7 0.00 0.00 0.00 27 1010.0
20260503191452 18 7 14.5 25.7 0.00 0.00 0.00 27 1010.0
20260503191428 18 35 19.3 25.7 0.00 0.00 0.00 27 1010.0
20260503191418 18 33 12.9 20.9 0.00 0.00 0.00 27 1010.0
20260503191410 18 33 12.9 20.9 0.00 0.00 0.00 26 1010.0
20260503191348 18 343 12.9 37.0 0.00 0.00 0.00 26 1010.0
20260503191313 18 316 9.7 37.0 0.00 0.00 0.00 26 1010.0
20260503191258 18 321 16.1 37.0 0.00 0.00 0.00 26 1010.0
20260503191249 18 294 12.9 37.0 0.00 0.00 0.00 26 1010.0
20260503191236 18 279 17.7 37.0 0.00 0.00 0.00 26 1010.0
20260503191226 18 279 17.7 37.0 0.00 0.00 0.00 26 1011.0
20260503191218 18 320 25.7 37.0 0.00 0.00 0.00 26 1011.0
20260503191203 18 270 16.1 35.4 0.00 0.00 0.00 25 1011.0
20260503191154 18 270 16.1 35.4 0.00 0.00 0.00 25 1011.0
20260503191139 18 312 27.4 35.4 0.00 0.00 0.00 25 1011.0
20260503191122 18 344 16.1 30.6 0.00 0.00 0.00 25 1011.0
20260503191105 18 297 14.5 30.6 0.00 0.00 0.00 25 1011.0
20260503191057 18 331 12.9 30.6 0.00 0.00 0.00 25 1011.0
20260503191016 18 312 16.1 35.4 0.00 0.00 0.00 25 1011.0
20260503191003 18 312 16.1 41.8 0.00 0.00 0.00 25 1011.0
20260503190955 18 353 19.3 41.8 0.00 0.00 0.00 26 1011.0
20260503190932 18 345 16.1 41.8 0.00 0.00 0.00 26 1011.0
20260503190907 18 345 17.7 41.8 0.00 0.00 0.00 26 1011.0
20260503190859 18 307 17.7 41.8 0.00 0.00 0.00 26 1011.0
20260503190849 18 307 17.7 41.8 0.00 0.00 0.00 26 1011.0
20260503190834 18 329 32.2 41.8 0.00 0.00 0.00 26 1011.0
20260503190825 18 299 17.7 33.8 0.00 0.00 0.00 26 1011.0
20260503190815 18 293 17.7 33.8 0.00 0.00 0.00 26 1011.0
20260503190738 18 21 20.9 33.8 0.00 0.00 0.00 27 1011.0
20260503190729 18 21 20.9 35.4 0.00 0.00 0.00 27 1010.0
20260503190716 18 313 16.1 35.4 0.00 0.00 0.00 27 1010.0
20260503190707 18 306 17.7 35.4 0.00 0.00 0.00 27 1010.0
20260503190657 18 306 17.7 35.4 0.00 0.00 0.00 27 1010.0
20260503190642 18 336 20.9 35.4 0.00 0.00 0.00 27 1010.0
20260503190634 18 317 17.7 35.4 0.00 0.00 0.00 27 1010.0
20260503190620 18 339 24.1 35.4 0.00 0.00 0.00 27 1010.0
20260503190553 18 325 14.5 30.6 0.00 0.00 0.00 27 1010.0
20260503190539 18 324 17.7 30.6 0.00 0.00 0.00 26 1010.0
20260503190532 18 303 22.5 30.6 0.00 0.00 0.00 26 1010.0
20260503190505 18 331 22.5 29.0 0.00 0.00 0.00 26 1010.0
20260503190451 18 284 20.9 35.4 0.00 0.00 0.00 26 1010.0
20260503190428 18 291 12.9 35.4 0.00 0.00 0.00 26 1010.0
20260503190407 18 312 19.3 37.0 0.00 0.00 0.00 26 1010.0
20260503190349 18 326 19.3 37.0 0.00 0.00 0.00 26 1010.0
20260503190329 18 285 22.5 37.0 0.00 0.00 0.00 25 1010.0
20260503190315 18 307 22.5 37.0 0.00 0.00 0.00 25 1010.0
20260503190249 18 326 14.5 37.0 0.00 0.00 0.00 25 1010.0
20260503190235 18 16 22.5 37.0 0.00 0.00 0.00 25 1010.0
20260503190217 18 286 17.7 33.8 0.00 0.00 0.00 26 1011.0
20260503190201 18 11 24.1 33.8 0.00 0.00 0.00 26 1011.0
20260503190148 18 276 12.9 29.0 0.00 0.00 0.00 26 1011.0
20260503190131 18 6 12.9 29.0 0.00 0.00 0.00 26 1011.0
20260503190106 18 17 20.9 29.0 0.00 0.00 0.00 26 1011.0
20260503190057 18 17 20.9 29.0 0.00 0.00 0.00 26 1011.0
20260503190041 18 242 14.5 29.0 0.00 0.00 0.00 26 1011.0
20260503190027 18 307 20.9 29.0 0.00 0.00 0.00 26 1011.0
20260503190020 18 307 20.9 29.0 0.00 0.00 0.00 27 1011.0
20260503185956 18 300 6.4 20.9 0.00 0.00 0.00 27 1011.0
20260503185931 18 13 14.5 20.9 0.00 0.00 0.00 27 1010.0
20260503185922 18 310 14.5 17.7 0.00 0.00 0.00 27 1010.0
20260503185913 18 310 14.5 17.7 0.00 0.00 0.00 28 1010.0
20260503185857 18 314 12.9 17.7 0.00 0.00 0.00 28 1010.0
20260503185847 18 273 11.3 17.7 0.00 0.00 0.00 28 1010.0
20260503185817 18 314 12.9 16.1 0.00 0.00 0.00 28 1010.0
20260503185803 18 331 9.7 25.7 0.00 0.00 0.00 27 1010.0
20260503185754 18 331 9.7 25.7 0.00 0.00 0.00 27 1010.0
20260503185745 18 329 8.0 25.7 0.00 0.00 0.00 27 1010.0
20260503185721 18 338 6.4 30.6 0.00 0.00 0.00 27 1010.0
20260503185709 18 13 6.4 30.6 0.00 0.00 0.00 26 1010.0
20260503185702 18 17 9.7 30.6 0.00 0.00 0.00 26 1010.0
20260503185634 18 323 16.1 30.6 0.00 0.00 0.00 26 1010.0
20260503185613 18 322 14.5 30.6 0.00 0.00 0.00 26 1010.0
20260503185553 18 324 9.7 30.6 0.00 0.00 0.00 26 1010.0
20260503185541 18 356 20.9 30.6 0.00 0.00 0.00 26 1010.0
20260503185521 18 337 19.3 27.4 0.00 0.00 0.00 26 1011.0
20260503185507 18 1 14.5 27.4 0.00 0.00 0.00 26 1011.0
20260503185436 18 296 9.7 27.4 0.00 0.00 0.00 26 1011.0
20260503185401 18 349 17.7 37.0 0.00 0.00 0.00 26 1011.0
20260503185346 19 13 19.3 37.0 0.00 0.00 0.00 25 1011.0
20260503185337 19 346 17.7 37.0 0.00 0.00 0.00 25 1011.0
20260503185321 19 313 17.7 37.0 0.00 0.00 0.00 25 1011.0
20260503185306 19 317 14.5 37.0 0.00 0.00 0.00 25 1011.0
20260503185257 19 317 14.5 37.0 0.00 0.00 0.00 25 1011.0
20260503185243 19 31 25.7 37.0 0.00 0.00 0.00 25 1011.0
20260503185202 19 357 9.7 27.4 0.00 0.00 0.00 25 1011.0
20260503185153 19 325 12.9 27.4 0.00 0.00 0.00 25 1011.0
20260503185140 19 329 14.5 27.4 0.00 0.00 0.00 25 1011.0
20260503185113 19 249 12.9 24.1 0.00 0.00 0.00 25 1011.0
20260503185058 19 7 17.7 24.1 0.00 0.00 0.00 25 1011.0
20260503185049 19 4 19.3 24.1 0.00 0.00 0.00 25 1011.0
20260503185034 20 16 17.7 24.1 0.00 0.00 0.00 26 1011.0
20260503185025 20 16 17.7 27.4 0.00 0.00 0.00 26 1011.0
20260503185009 20 16 17.7 27.4 0.00 0.00 0.00 26 1011.0
20260503184954 20 40 9.7 27.4 0.00 0.00 0.00 26 1011.0
20260503184945 20 331 8.0 27.4 0.00 0.00 0.00 26 1011.0
20260503184922 19 317 11.3 29.0 0.00 0.00 0.00 25 1011.0
20260503184905 19 349 20.9 29.0 0.00 0.00 0.00 25 1011.0
20260503184851 19 348 16.1 30.6 0.00 0.00 0.00 25 1011.0
20260503184843 19 66 17.7 30.6 0.00 0.00 0.00 25 1011.0
20260503184833 19 66 17.7 30.6 0.00 0.00 0.00 26 1011.0
20260503184820 19 306 11.3 30.6 0.00 0.00 0.00 26 1010.0
20260503184813 19 34 17.7 30.6 0.00 0.00 0.00 26 1010.0
20260503184740 19 24 19.3 30.6 0.00 0.00 0.00 26 1010.0
20260503184732 19 346 14.5 30.6 0.00 0.00 0.00 26 1011.0
20260503184713 19 327 20.9 27.4 0.00 0.00 0.00 26 1011.0
20260503184657 19 292 14.5 25.7 0.00 0.00 0.00 26 1011.0
20260503184643 19 347 3.2 25.7 0.00 0.00 0.00 26 1011.0
20260503184619 19 350 11.3 25.7 0.00 0.00 0.00 26 1011.0
20260503184601 19 301 12.9 25.7 0.00 0.00 0.00 26 1011.0
20260503184546 19 36 19.3 25.7 0.00 0.00 0.00 26 1011.0
20260503184537 19 46 11.3 16.1 0.00 0.00 0.00 26 1011.0
20260503184505 19 295 12.9 17.7 0.00 0.00 0.00 25 1011.0
20260503184441 19 338 9.7 22.5 0.00 0.00 0.00 25 1011.0
20260503184428 19 5 11.3 24.1 0.00 0.00 0.00 25 1011.0
20260503184421 19 345 9.7 24.1 0.00 0.00 0.00 26 1011.0
20260503184401 19 337 12.9 24.1 0.00 0.00 0.00 26 1011.0
20260503184343 19 35 9.7 24.1 0.00 0.00 0.00 26 1011.0
20260503184313 19 5 14.5 29.0 0.00 0.00 0.00 26 1011.0
20260503184300 19 23 17.7 29.0 0.00 0.00 0.00 26 1011.0
20260503184238 19 12 20.9 29.0 0.00 0.00 0.00 26 1011.0
20260503184201 19 3 20.9 29.0 0.00 0.00 0.00 26 1011.0
20260503184139 19 20 17.7 25.7 0.00 0.00 0.00 26 1011.0
20260503184121 19 351 11.3 29.0 0.00 0.00 0.00 26 1011.0
20260503184106 19 30 12.9 29.0 0.00 0.00 0.00 26 1011.0
20260503184057 19 4 17.7 29.0 0.00 0.00 0.00 26 1011.0
20260503184045 19 40 12.9 29.0 0.00 0.00 0.00 26 1011.0
20260503184025 19 15 17.7 29.0 0.00 0.00 0.00 26 1011.0
20260503184011 19 15 19.3 29.0 0.00 0.00 0.00 26 1011.0
20260503184002 19 15 19.3 29.0 0.00 0.00 0.00 27 1011.0
20260503183953 19 98 12.9 27.4 0.00 0.00 0.00 27 1011.0
20260503183938 19 22 17.7 27.4 0.00 0.00 0.00 27 1011.0
20260503183929 19 22 17.7 29.0 0.00 0.00 0.00 27 1011.0
20260503183915 19 337 19.3 29.0 0.00 0.00 0.00 27 1011.0
20260503183906 19 43 14.5 29.0 0.00 0.00 0.00 27 1011.0
20260503183857 18 43 14.5 29.0 0.00 0.00 0.00 26 1011.0
20260503183844 18 13 11.3 29.0 0.00 0.00 0.00 26 1011.0
20260503183819 18 3 11.3 29.0 0.00 0.00 0.00 26 1010.0
20260503183801 18 331 9.7 29.0 0.00 0.00 0.00 26 1010.0
20260503183745 18 334 20.9 29.0 0.00 0.00 0.00 27 1010.0
20260503183730 18 327 22.5 29.0 0.00 0.00 0.00 27 1011.0
20260503183721 18 328 14.5 24.1 0.00 0.00 0.00 27 1011.0
20260503183706 18 359 14.5 24.1 0.00 0.00 0.00 27 1011.0
20260503183657 18 359 14.5 24.1 0.00 0.00 0.00 27 1011.0
20260503183643 18 26 20.9 24.1 0.00 0.00 0.00 26 1011.0
20260503183634 18 42 14.5 22.5 0.00 0.00 0.00 26 1011.0
20260503183625 18 42 14.5 27.4 0.00 0.00 0.00 26 1011.0
20260503183610 18 9 9.7 27.4 0.00 0.00 0.00 26 1011.0
20260503183601 18 316 11.3 27.4 0.00 0.00 0.00 26 1011.0
20260503183537 18 324 16.1 27.4 0.00 0.00 0.00 26 1011.0
20260503183525 18 293 11.3 27.4 0.00 0.00 0.00 26 1010.0
20260503183517 18 337 17.7 27.4 0.00 0.00 0.00 26 1010.0
20260503183449 18 323 17.7 40.2 0.00 0.00 0.00 26 1010.0
20260503183433 18 309 14.5 40.2 0.00 0.00 0.00 26 1010.0
20260503183409 18 316 17.7 40.2 0.00 0.00 0.00 26 1010.0
20260503183354 18 336 22.5 40.2 0.00 0.00 0.00 26 1010.0
20260503183345 18 300 11.3 40.2 0.00 0.00 0.00 26 1010.0
20260503183325 18 1 24.1 40.2 0.00 0.00 0.00 26 1011.0
20260503183249 18 338 17.7 27.4 0.00 0.00 0.00 26 1011.0
20260503183235 18 304 17.7 27.4 0.00 0.00 0.00 27 1011.0
20260503183218 18 325 14.5 27.4 0.00 0.00 0.00 27 1010.0
20260503183202 18 306 9.7 25.7 0.00 0.00 0.00 27 1010.0
20260503183140 18 29 19.3 25.7 0.00 0.00 0.00 27 1010.0
20260503183121 18 12 16.1 29.0 0.00 0.00 0.00 26 1011.0
20260503183108 18 11 14.5 29.0 0.00 0.00 0.00 26 1011.0
20260503183044 18 34 14.5 29.0 0.00 0.00 0.00 26 1011.0
20260503183036 18 311 16.1 29.0 0.00 0.00 0.00 26 1011.0
20260503183001 18 13 14.5 29.0 0.00 0.00 0.00 26 1011.0
20260503182949 18 355 19.3 29.0 0.00 0.00 0.00 26 1011.0
20260503182942 18 17 11.3 20.9 0.00 0.00 0.00 26 1011.0
20260503182913 18 19 17.7 24.1 0.00 0.00 0.00 26 1011.0
20260503182858 18 5 12.9 24.1 0.00 0.00 0.00 26 1011.0
20260503182849 18 348 14.5 24.1 0.00 0.00 0.00 26 1011.0
20260503182836 18 287 14.5 24.1 0.00 0.00 0.00 26 1011.0
20260503182830 18 287 14.5 27.4 0.00 0.00 0.00 26 1010.0
20260503182753 18 311 14.5 27.4 0.00 0.00 0.00 26 1010.0
20260503182738 18 350 16.1 27.4 0.00 0.00 0.00 26 1010.0
20260503182729 18 17 11.3 27.4 0.00 0.00 0.00 26 1011.0
20260503182711 18 14 20.9 27.4 0.00 0.00 0.00 26 1011.0
20260503182635 18 8 16.1 22.5 0.00 0.00 0.00 26 1011.0
20260503182627 18 28 11.3 22.5 0.00 0.00 0.00 26 1010.0
20260503182601 18 35 11.3 22.5 0.00 0.00 0.00 25 1010.0
20260503182539 18 28 12.9 22.5 0.00 0.00 0.00 25 1010.0
20260503182531 18 288 16.1 25.7 0.00 0.00 0.00 25 1010.0
20260503182506 18 324 8.0 25.7 0.00 0.00 0.00 25 1010.0
20260503182457 18 1 6.4 25.7 0.00 0.00 0.00 25 1010.0
20260503182434 18 335 19.3 25.7 0.00 0.00 0.00 25 1010.0
20260503182425 18 25 11.3 27.4 0.00 0.00 0.00 25 1011.0
20260503182401 18 0 9.7 27.4 0.00 0.00 0.00 25 1011.0
20260503182351 18 340 12.9 27.4 0.00 0.00 0.00 25 1011.0
20260503182321 18 290 19.3 27.4 0.00 0.00 0.00 25 1011.0
20260503182312 18 333 17.7 27.4 0.00 0.00 0.00 25 1011.0
20260503182246 18 320 17.7 27.4 0.00 0.00 0.00 26 1011.0
20260503182217 18 6 20.9 27.4 0.00 0.00 0.00 26 1011.0
20260503182203 18 294 16.1 24.1 0.00 0.00 0.00 26 1011.0
20260503182154 18 294 16.1 24.1 0.00 0.00 0.00 27 1011.0
20260503182145 18 18 14.5 22.5 0.00 0.00 0.00 27 1011.0
20260503182131 18 269 9.7 27.4 0.00 0.00 0.00 27 1011.0
20260503182108 18 12 11.3 27.4 0.00 0.00 0.00 27 1011.0
20260503182049 18 41 11.3 27.4 0.00 0.00 0.00 25 1011.0
20260503182036 18 37 12.9 27.4 0.00 0.00 0.00 25 1011.0
20260503182028 18 37 12.9 27.4 0.00 0.00 0.00 25 1010.0
20260503182009 18 67 12.9 27.4 0.00 0.00 0.00 25 1010.0
20260503181955 18 353 22.5 27.4 0.00 0.00 0.00 25 1010.0
20260503181948 18 32 14.5 24.1 0.00 0.00 0.00 26 1010.0
20260503181922 18 26 16.1 27.4 0.00 0.00 0.00 26 1010.0
20260503181913 18 26 16.1 27.4 0.00 0.00 0.00 26 1010.0
20260503181850 18 31 12.9 35.4 0.00 0.00 0.00 26 1010.0
20260503181840 18 16 14.5 35.4 0.00 0.00 0.00 26 1010.0
20260503181817 18 33 9.7 35.4 0.00 0.00 0.00 26 1010.0
20260503181804 18 11 17.7 35.4 0.00 0.00 0.00 26 1010.0
20260503181756 18 16 20.9 35.4 0.00 0.00 0.00 26 1010.0
20260503181737 18 23 16.1 35.4 0.00 0.00 0.00 26 1010.0
20260503181721 18 39 17.7 29.0 0.00 0.00 0.00 26 1010.0
20260503181706 18 42 17.7 29.0 0.00 0.00 0.00 26 1010.0
20260503181657 18 42 17.7 29.0 0.00 0.00 0.00 26 1010.0
20260503181644 18 32 16.1 29.0 0.00 0.00 0.00 26 1010.0
20260503181617 18 25 12.9 29.0 0.00 0.00 0.00 25 1011.0
20260503181602 18 3 12.9 29.0 0.00 0.00 0.00 25 1011.0
20260503181553 18 28 20.9 29.0 0.00 0.00 0.00 25 1011.0
20260503181529 18 17 17.7 27.4 0.00 0.00 0.00 25 1011.0
20260503181513 18 37 12.9 27.4 0.00 0.00 0.00 25 1011.0
20260503181500 18 313 14.5 27.4 0.00 0.00 0.00 25 1011.0
20260503181453 18 343 14.5 22.5 0.00 0.00 0.00 25 1011.0
20260503181425 18 343 12.9 22.5 0.00 0.00 0.00 25 1011.0
20260503181409 18 31 11.3 22.5 0.00 0.00 0.00 25 1011.0
20260503181402 18 2 11.3 27.4 0.00 0.00 0.00 25 1011.0
20260503181322 18 2 14.5 27.4 0.00 0.00 0.00 25 1011.0
20260503181313 18 324 9.7 27.4 0.00 0.00 0.00 25 1011.0
20260503181252 18 1 11.3 27.4 0.00 0.00 0.00 25 1011.0
20260503181233 18 3 19.3 27.4 0.00 0.00 0.00 25 1011.0
20260503181211 18 49 16.1 27.4 0.00 0.00 0.00 25 1011.0
20260503181137 18 2 14.5 27.4 0.00 0.00 0.00 25 1011.0
20260503181123 18 357 19.3 27.4 0.00 0.00 0.00 25 1010.0
20260503181116 18 15 17.7 27.4 0.00 0.00 0.00 25 1010.0
20260503181049 18 348 20.9 27.4 0.00 0.00 0.00 25 1010.0
20260503181041 18 2 16.1 20.9 0.00 0.00 0.00 25 1010.0
20260503181017 18 358 12.9 20.9 0.00 0.00 0.00 25 1010.0
20260503181001 18 112 9.7 20.9 0.00 0.00 0.00 25 1010.0
20260503180945 18 41 12.9 20.9 0.00 0.00 0.00 25 1010.0
20260503180937 18 353 11.3 20.9 0.00 0.00 0.00 25 1010.0
20260503180913 18 318 12.9 24.1 0.00 0.00 0.00 25 1011.0
20260503180901 18 22 11.3 24.1 0.00 0.00 0.00 24 1011.0
20260503180853 18 336 11.3 24.1 0.00 0.00 0.00 24 1011.0
20260503180834 18 20 9.7 24.1 0.00 0.00 0.00 24 1011.0
20260503180825 18 20 9.7 27.4 0.00 0.00 0.00 24 1011.0
20260503180812 18 22 16.1 27.4 0.00 0.00 0.00 24 1011.0
20260503180748 18 336 12.9 29.0 0.00 0.00 0.00 24 1011.0
20260503180729 18 334 17.7 29.0 0.00 0.00 0.00 24 1011.0
20260503180713 18 308 19.3 29.0 0.00 0.00 0.00 24 1011.0
20260503180705 18 19 20.9 29.0 0.00 0.00 0.00 24 1011.0
20260503180641 18 15 17.7 29.0 0.00 0.00 0.00 25 1011.0
20260503180625 18 1 17.7 29.0 0.00 0.00 0.00 25 1011.0
20260503180611 18 33 16.1 27.4 0.00 0.00 0.00 25 1011.0
20260503180603 18 34 12.9 27.4 0.00 0.00 0.00 25 1011.0
20260503180538 18 3 17.7 27.4 0.00 0.00 0.00 24 1011.0
20260503180529 18 7 19.3 27.4 0.00 0.00 0.00 24 1011.0
20260503180505 18 35 12.9 24.1 0.00 0.00 0.00 24 1011.0
20260503180434 18 13 12.9 33.8 0.00 0.00 0.00 24 1011.0
20260503180425 18 9 14.5 33.8 0.00 0.00 0.00 24 1011.0
20260503180401 18 28 12.9 33.8 0.00 0.00 0.00 24 1011.0
20260503180345 18 334 16.1 33.8 0.00 0.00 0.00 24 1011.0
20260503180321 18 333 19.3 33.8 0.00 0.00 0.00 24 1010.0
20260503180306 18 5 16.1 25.7 0.00 0.00 0.00 24 1010.0
20260503180257 18 336 20.9 25.7 0.00 0.00 0.00 24 1010.0
20260503180241 18 357 17.7 22.5 0.00 0.00 0.00 25 1010.0
20260503180217 18 302 16.1 22.5 0.00 0.00 0.00 25 1011.0
20260503180203 18 34 14.5 25.7 0.00 0.00 0.00 25 1011.0
20260503180146 18 37 16.1 25.7 0.00 0.00 0.00 25 1011.0
20260503180130 18 11 12.9 25.7 0.00 0.00 0.00 26 1011.0
20260503180121 18 4 12.9 25.7 0.00 0.00 0.00 26 1011.0
20260503180109 18 313 12.9 25.7 0.00 0.00 0.00 26 1011.0
20260503180049 18 343 12.9 27.4 0.00 0.00 0.00 26 1011.0
20260503180025 18 4 19.3 27.4 0.00 0.00 0.00 25 1011.0
20260503180011 18 59 19.3 27.4 0.00 0.00 0.00 25 1011.0
20260503180004 18 292 16.1 27.4 0.00 0.00 0.00 25 1011.0
20260503175953 18 292 16.1 27.4 0.00 0.00 0.00 25 1011.0
20260503175939 18 321 19.3 27.4 0.00 0.00 0.00 25 1011.0
20260503175915 19 339 19.3 27.4 0.00 0.00 0.00 25 1011.0
20260503175907 19 328 9.7 25.7 0.00 0.00 0.00 25 1011.0
20260503175857 19 328 9.7 25.7 0.00 0.00 0.00 25 1011.0
20260503175844 19 242 12.9 25.7 0.00 0.00 0.00 25 1011.0
20260503175810 19 309 17.7 25.7 0.00 0.00 0.00 26 1010.0
20260503175801 19 308 17.7 25.7 0.00 0.00 0.00 26 1010.0
20260503175745 19 318 8.0 25.7 0.00 0.00 0.00 26 1010.0
20260503175730 19 296 12.9 25.7 0.00 0.00 0.00 26 1011.0
20260503175721 19 296 12.9 25.7 0.00 0.00 0.00 25 1011.0
20260503175706 19 318 16.1 25.7 0.00 0.00 0.00 25 1011.0
20260503175657 19 264 12.9 30.6 0.00 0.00 0.00 25 1011.0
20260503175634 19 340 11.3 30.6 0.00 0.00 0.00 25 1011.0
20260503175621 19 73 16.1 30.6 0.00 0.00 0.00 27 1011.0
20260503175601 19 21 12.9 30.6 0.00 0.00 0.00 27 1011.0
20260503175546 19 3 12.9 30.6 0.00 0.00 0.00 27 1011.0
20260503175537 19 7 24.1 30.6 0.00 0.00 0.00 27 1011.0
20260503175521 19 34 12.9 24.1 0.00 0.00 0.00 27 1011.0
20260503175506 19 22 11.3 24.1 0.00 0.00 0.00 25 1011.0
20260503175457 19 22 11.3 33.8 0.00 0.00 0.00 25 1011.0
20260503175436 19 354 12.9 33.8 0.00 0.00 0.00 25 1011.0
20260503175401 19 291 14.5 33.8 0.00 0.00 0.00 26 1011.0
20260503175347 19 352 19.3 33.8 0.00 0.00 0.00 26 1011.0
20260503175329 19 15 17.7 33.8 0.00 0.00 0.00 26 1011.0
20260503175316 19 263 17.7 33.8 0.00 0.00 0.00 26 1011.0
20260503175309 19 12 14.5 29.0 0.00 0.00 0.00 26 1011.0
20260503175249 19 325 9.7 24.1 0.00 0.00 0.00 26 1011.0
20260503175230 19 21 11.3 24.1 0.00 0.00 0.00 26 1011.0
20260503175210 19 28 12.9 24.1 0.00 0.00 0.00 26 1011.0
20260503175201 19 20 12.9 24.1 0.00 0.00 0.00 26 1011.0
20260503175137 19 10 17.7 24.1 0.00 0.00 0.00 26 1011.0
20260503175109 19 2 17.7 30.6 0.00 0.00 0.00 26 1011.0
20260503175025 19 53 12.9 30.6 0.00 0.00 0.00 26 1011.0
20260503175009 19 343 17.7 30.6 0.00 0.00 0.00 26 1011.0
20260503174955 19 32 17.7 30.6 0.00 0.00 0.00 26 1011.0
20260503174947 19 22 19.3 30.6 0.00 0.00 0.00 26 1011.0
20260503174924 19 27 14.5 27.4 0.00 0.00 0.00 26 1011.0
20260503174917 19 9 17.7 27.4 0.00 0.00 0.00 26 1011.0
20260503174857 19 33 11.3 24.1 0.00 0.00 0.00 26 1011.0
20260503174838 19 16 11.3 24.1 0.00 0.00 0.00 25 1011.0
20260503174801 19 27 16.1 24.1 0.00 0.00 0.00 25 1011.0
20260503174746 19 29 14.5 22.5 0.00 0.00 0.00 25 1011.0
20260503174737 19 357 11.3 22.5 0.00 0.00 0.00 25 1011.0
20260503174724 19 352 12.9 27.4 0.00 0.00 0.00 25 1011.0
20260503174700 19 50 14.5 27.4 0.00 0.00 0.00 25 1011.0
20260503174652 19 49 9.7 27.4 0.00 0.00 0.00 25 1011.0
20260503174633 19 334 9.7 27.4 0.00 0.00 0.00 26 1011.0
20260503174609 19 342 16.1 33.8 0.00 0.00 0.00 26 1011.0
20260503174553 19 25 19.3 33.8 0.00 0.00 0.00 26 1011.0
20260503174529 19 80 14.5 33.8 0.00 0.00 0.00 25 1011.0
20260503174514 19 303 9.7 33.8 0.00 0.00 0.00 25 1011.0
20260503174505 19 17 19.3 33.8 0.00 0.00 0.00 25 1011.0
20260503174449 19 29 20.9 33.8 0.00 0.00 0.00 25 1011.0
20260503174437 20 323 14.5 20.9 0.00 0.00 0.00 26 1011.0
20260503174429 20 323 14.5 22.5 0.00 0.00 0.00 26 1011.0
20260503174410 20 300 11.3 22.5 0.00 0.00 0.00 26 1011.0
20260503174401 20 267 12.9 25.7 0.00 0.00 0.00 26 1011.0
20260503174337 20 339 6.4 25.7 0.00 0.00 0.00 26 1011.0
20260503174324 20 334 6.4 29.0 0.00 0.00 0.00 26 1011.0
20260503174316 20 331 11.3 29.0 0.00 0.00 0.00 26 1011.0
20260503174257 20 341 14.5 29.0 0.00 0.00 0.00 26 1011.0
20260503174241 20 9 17.7 29.0 0.00 0.00 0.00 26 1011.0
20260503174217 20 289 11.3 29.0 0.00 0.00 0.00 26 1010.0
20260503174203 20 231 17.7 29.0 0.00 0.00 0.00 26 1010.0
20260503174139 20 352 22.5 27.4 0.00 0.00 0.00 26 1010.0
20260503174130 20 12 19.3 27.4 0.00 0.00 0.00 26 1011.0
20260503174121 20 12 19.3 27.4 0.00 0.00 0.00 27 1011.0
20260503174107 20 31 14.5 25.7 0.00 0.00 0.00 27 1011.0
20260503174100 20 16 16.1 25.7 0.00 0.00 0.00 27 1011.0
20260503174034 20 36 16.1 25.7 0.00 0.00 0.00 27 1011.0
20260503174025 20 25 6.4 14.5 0.00 0.00 0.00 27 1010.0
20260503174001 20 345 6.4 14.5 0.00 0.00 0.00 27 1010.0
20260503173947 20 341 11.3 14.5 0.00 0.00 0.00 27 1010.0
20260503173940 20 68 9.7 12.9 0.00 0.00 0.00 27 1010.0
20260503173914 19 32 4.8 16.1 0.00 0.00 0.00 27 1011.0
20260503173905 19 352 6.4 16.1 0.00 0.00 0.00 27 1011.0
20260503173842 19 24 8.0 20.9 0.00 0.00 0.00 27 1011.0
20260503173833 19 30 9.7 20.9 0.00 0.00 0.00 27 1011.0
20260503173819 19 359 8.0 20.9 0.00 0.00 0.00 27 1011.0
20260503173800 19 15 9.7 20.9 0.00 0.00 0.00 27 1011.0
20260503173732 19 334 6.4 16.1 0.00 0.00 0.00 27 1010.0
20260503173706 19 17 11.3 16.1 0.00 0.00 0.00 27 1010.0
20260503173657 19 17 11.3 17.7 0.00 0.00 0.00 27 1010.0
20260503173642 19 341 8.0 17.7 0.00 0.00 0.00 27 1010.0
20260503173633 19 258 12.9 17.7 0.00 0.00 0.00 27 1010.0
20260503173610 19 17 11.3 24.1 0.00 0.00 0.00 27 1010.0
20260503173601 19 3 9.7 24.1 0.00 0.00 0.00 27 1010.0
20260503173547 19 35 6.4 24.1 0.00 0.00 0.00 27 1010.0
20260503173524 19 30 11.3 24.1 0.00 0.00 0.00 27 1011.0
20260503173505 19 42 17.7 24.1 0.00 0.00 0.00 27 1011.0
20260503173450 19 26 9.7 20.9 0.00 0.00 0.00 27 1011.0
20260503173441 19 309 8.0 20.9 0.00 0.00 0.00 27 1011.0
20260503173431 19 351 12.9 29.0 0.00 0.00 0.00 27 1011.0
20260503173412 19 16 12.9 29.0 0.00 0.00 0.00 27 1011.0
20260503173353 18 44 16.1 29.0 0.00 0.00 0.00 27 1011.0
20260503173338 18 19 8.0 29.0 0.00 0.00 0.00 27 1011.0
20260503173329 18 19 8.0 29.0 0.00 0.00 0.00 27 1010.0
20260503173313 18 349 9.7 29.0 0.00 0.00 0.00 27 1010.0
20260503173249 18 26 20.9 29.0 0.00 0.00 0.00 27 1010.0
20260503173234 18 20 9.7 24.1 0.00 0.00 0.00 27 1010.0
20260503173225 18 317 9.7 24.1 0.00 0.00 0.00 27 1010.0
20260503173209 18 293 9.7 24.1 0.00 0.00 0.00 27 1010.0
20260503173149 18 27 14.5 24.1 0.00 0.00 0.00 27 1010.0
20260503173130 18 47 11.3 25.7 0.00 0.00 0.00 27 1011.0
20260503173121 18 330 11.3 25.7 0.00 0.00 0.00 27 1011.0
20260503173105 18 18 16.1 25.7 0.00 0.00 0.00 27 1011.0
20260503173058 18 18 16.1 25.7 0.00 0.00 0.00 27 1011.0
20260503173044 18 309 12.9 25.7 0.00 0.00 0.00 28 1011.0
20260503173036 18 330 9.7 25.7 0.00 0.00 0.00 28 1011.0
20260503173017 18 328 14.5 25.7 0.00 0.00 0.00 28 1011.0
20260503173001 18 340 19.3 25.7 0.00 0.00 0.00 28 1011.0
20260503172947 18 6 14.5 22.5 0.00 0.00 0.00 28 1011.0
20260503172938 18 6 14.5 22.5 0.00 0.00 0.00 27 1011.0
20260503172929 18 31 8.0 17.7 0.00 0.00 0.00 27 1010.0
20260503172913 18 356 12.9 17.7 0.00 0.00 0.00 27 1010.0
20260503172900 18 0 9.7 17.7 0.00 0.00 0.00 27 1010.0
20260503172852 18 0 9.7 17.7 0.00 0.00 0.00 27 1010.0
20260503172833 18 309 6.4 17.7 0.00 0.00 0.00 27 1010.0
20260503172809 18 276 12.9 22.5 0.00 0.00 0.00 27 1010.0
20260503172753 18 276 12.9 27.4 0.00 0.00 0.00 27 1010.0
20260503172738 18 299 12.9 27.4 0.00 0.00 0.00 27 1010.0
20260503172729 18 343 12.9 27.4 0.00 0.00 0.00 26 1011.0
20260503172705 18 355 12.9 27.4 0.00 0.00 0.00 26 1011.0
20260503172649 18 335 16.1 27.4 0.00 0.00 0.00 26 1011.0
20260503172635 18 359 16.1 27.4 0.00 0.00 0.00 26 1011.0
20260503172628 18 37 20.9 27.4 0.00 0.00 0.00 27 1011.0
20260503172603 18 350 9.7 20.9 0.00 0.00 0.00 27 1011.0
20260503172539 18 320 14.5 20.9 0.00 0.00 0.00 27 1011.0
20260503172530 18 320 14.5 22.5 0.00 0.00 0.00 27 1011.0
20260503172520 18 61 12.9 22.5 0.00 0.00 0.00 27 1011.0
20260503172506 18 341 14.5 22.5 0.00 0.00 0.00 27 1011.0
20260503172457 18 341 14.5 24.1 0.00 0.00 0.00 27 1011.0
20260503172443 18 12 12.9 24.1 0.00 0.00 0.00 27 1011.0
20260503172425 18 331 6.4 24.1 0.00 0.00 0.00 27 1011.0
20260503172409 18 322 11.3 24.1 0.00 0.00 0.00 27 1011.0
20260503172400 18 342 16.1 24.1 0.00 0.00 0.00 27 1011.0
20260503172341 18 1 11.3 24.1 0.00 0.00 0.00 27 1011.0
20260503172323 18 342 12.9 25.7 0.00 0.00 0.00 27 1010.0
20260503172256 18 333 16.1 33.8 0.00 0.00 0.00 27 1010.0
20260503172244 18 29 14.5 33.8 0.00 0.00 0.00 27 1010.0
20260503172235 18 345 12.9 33.8 0.00 0.00 0.00 27 1010.0
20260503172227 18 345 12.9 33.8 0.00 0.00 0.00 27 1011.0
20260503172203 18 20 14.5 33.8 0.00 0.00 0.00 26 1011.0
20260503172136 18 14 22.5 33.8 0.00 0.00 0.00 26 1011.0
20260503172122 18 35 17.7 27.4 0.00 0.00 0.00 26 1010.0
20260503172113 18 69 14.5 27.4 0.00 0.00 0.00 26 1010.0
20260503172050 18 6 16.1 27.4 0.00 0.00 0.00 26 1010.0
20260503172041 18 20 11.3 25.7 0.00 0.00 0.00 26 1010.0
20260503172016 18 12 19.3 25.7 0.00 0.00 0.00 26 1011.0
20260503172002 18 43 19.3 24.1 0.00 0.00 0.00 28 1011.0
20260503171945 18 349 17.7 24.1 0.00 0.00 0.00 28 1011.0
20260503171921 18 4 17.7 24.1 0.00 0.00 0.00 28 1010.0
20260503171907 18 345 16.1 24.1 0.00 0.00 0.00 28 1010.0
20260503171859 18 9 12.9 25.7 0.00 0.00 0.00 27 1010.0
20260503171834 18 320 12.9 25.7 0.00 0.00 0.00 27 1010.0
20260503171824 18 344 12.9 27.4 0.00 0.00 0.00 27 1011.0
20260503171812 18 359 12.9 27.4 0.00 0.00 0.00 27 1011.0
20260503171753 18 333 9.7 27.4 0.00 0.00 0.00 27 1011.0
20260503171737 18 320 12.9 27.4 0.00 0.00 0.00 27 1011.0
20260503171713 18 11 12.9 27.4 0.00 0.00 0.00 27 1010.0
20260503171658 18 307 16.1 27.4 0.00 0.00 0.00 27 1010.0
20260503171649 18 304 11.3 24.1 0.00 0.00 0.00 27 1010.0
20260503171635 18 0 11.3 24.1 0.00 0.00 0.00 27 1010.0
20260503171628 18 0 11.3 24.1 0.00 0.00 0.00 27 1011.0
20260503171602 18 3 14.5 24.1 0.00 0.00 0.00 27 1011.0
20260503171552 18 3 14.5 24.1 0.00 0.00 0.00 27 1011.0
20260503171539 18 32 17.7 24.1 0.00 0.00 0.00 26 1011.0
20260503171512 18 342 17.7 29.0 0.00 0.00 0.00 26 1011.0
20260503171459 18 342 17.7 29.0 0.00 0.00 0.00 26 1011.0
20260503171451 18 344 16.1 29.0 0.00 0.00 0.00 26 1011.0
20260503171424 18 357 11.3 29.0 0.00 0.00 0.00 27 1011.0
20260503171412 18 54 11.3 29.0 0.00 0.00 0.00 27 1011.0
20260503171404 18 17 20.9 29.0 0.00 0.00 0.00 27 1011.0
20260503171344 18 19 17.7 25.7 0.00 0.00 0.00 27 1011.0
20260503171321 18 61 17.7 24.1 0.00 0.00 0.00 29 1010.0
20260503171305 18 10 17.7 24.1 0.00 0.00 0.00 29 1010.0
20260503171250 18 45 17.7 24.1 0.00 0.00 0.00 29 1010.0
20260503171240 18 20 11.3 24.1 0.00 0.00 0.00 29 1010.0
20260503171218 18 17 6.4 24.1 0.00 0.00 0.00 29 1010.0
20260503171211 18 8 9.7 24.1 0.00 0.00 0.00 29 1010.0
20260503171145 18 347 12.9 24.1 0.00 0.00 0.00 29 1010.0
20260503171130 18 352 14.5 24.1 0.00 0.00 0.00 29 1010.0
20260503171121 18 343 16.1 24.1 0.00 0.00 0.00 29 1010.0
20260503171112 18 316 20.9 24.1 0.00 0.00 0.00 29 1010.0
20260503171043 18 279 12.9 22.5 0.00 0.00 0.00 29 1010.0
20260503171017 18 329 4.8 24.1 0.00 0.00 0.00 28 1010.0
20260503171009 18 288 9.7 24.1 0.00 0.00 0.00 28 1010.0
20260503170953 18 311 12.9 24.1 0.00 0.00 0.00 28 1010.0
20260503170928 18 328 16.1 24.1 0.00 0.00 0.00 28 1010.0
20260503170915 18 334 16.1 24.1 0.00 0.00 0.00 27 1010.0
20260503170848 18 299 12.9 20.9 0.00 0.00 0.00 27 1010.0
20260503170826 18 302 12.9 20.9 0.00 0.00 0.00 27 1010.0
20260503170816 18 355 9.7 20.9 0.00 0.00 0.00 27 1010.0
20260503170803 18 20 12.9 25.7 0.00 0.00 0.00 27 1010.0
20260503170757 18 20 12.9 25.7 0.00 0.00 0.00 27 1010.0
20260503170736 18 358 12.9 25.7 0.00 0.00 0.00 27 1010.0
20260503170723 18 343 12.9 25.7 0.00 0.00 0.00 27 1010.0
20260503170716 18 25 16.1 25.7 0.00 0.00 0.00 28 1010.0
20260503170657 18 25 16.1 25.7 0.00 0.00 0.00 28 1010.0
20260503170635 18 14 19.3 25.7 0.00 0.00 0.00 28 1010.0
20260503170610 18 39 19.3 24.1 0.00 0.00 0.00 27 1010.0
20260503170601 18 359 8.0 16.1 0.00 0.00 0.00 27 1010.0
20260503170538 18 358 8.0 16.1 0.00 0.00 0.00 27 1010.0
20260503170528 18 327 9.7 16.1 0.00 0.00 0.00 27 1010.0
20260503170516 18 16 11.3 16.1 0.00 0.00 0.00 27 1010.0
20260503170435 18 11 12.9 17.7 0.00 0.00 0.00 28 1010.0
20260503170426 18 45 12.9 17.7 0.00 0.00 0.00 28 1011.0
20260503170402 18 353 11.3 17.7 0.00 0.00 0.00 29 1011.0
20260503170353 18 45 14.5 17.7 0.00 0.00 0.00 29 1011.0
20260503170337 18 45 12.9 17.7 0.00 0.00 0.00 29 1011.0
20260503170313 18 4 9.7 20.9 0.00 0.00 0.00 29 1011.0
20260503170258 18 56 11.3 24.1 0.00 0.00 0.00 28 1011.0
20260503170249 18 2 9.7 24.1 0.00 0.00 0.00 28 1011.0
20260503170233 18 8 14.5 24.1 0.00 0.00 0.00 28 1011.0
20260503170220 18 9 14.5 24.1 0.00 0.00 0.00 28 1010.0
20260503170201 18 25 11.3 24.1 0.00 0.00 0.00 28 1010.0
20260503170145 18 25 11.3 24.1 0.00 0.00 0.00 29 1010.0
20260503170132 18 241 14.5 24.1 0.00 0.00 0.00 29 1010.0
20260503170125 18 324 6.4 20.9 0.00 0.00 0.00 29 1010.0
20260503170105 18 300 9.7 20.9 0.00 0.00 0.00 29 1010.0
20260503160216 16 340 8.0 16.1 0.00 0.00 0.00 36 1010.0
20260503160202 16 328 9.7 30.6 0.00 0.00 0.00 36 1010.0
20260503160153 16 328 9.7 30.6 0.00 0.00 0.00 36 1010.0
20260503160137 16 284 6.4 30.6 0.00 0.00 0.00 36 1010.0
20260503160129 16 359 6.4 30.6 0.00 0.00 0.00 36 1010.0
20260503160112 16 313 11.3 30.6 0.00 0.00 0.00 36 1010.0
20260503151012 15 5 9.7 25.7 0.00 0.00 0.00 39 1010.0
20260503151006 15 296 11.3 29.0 0.00 0.00 0.00 39 1010.0
20260503150921 15 0 16.1 29.0 0.00 0.00 0.00 39 1010.0
20260503150905 15 337 14.5 29.0 0.00 0.00 0.00 39 1010.0
20260503150851 15 319 8.0 29.0 0.00 0.00 0.00 39 1010.0
20260503150833 15 228 14.5 29.0 0.00 0.00 0.00 39 1010.0
20260503150817 15 325 24.1 29.0 0.00 0.00 0.00 39 1010.0
20260503150804 15 324 16.1 25.7 0.00 0.00 0.00 39 1010.0
20260503150757 15 358 11.3 20.9 0.00 0.00 0.00 39 1010.0
20260503150722 15 348 9.7 16.1 0.00 0.00 0.00 39 1010.0
20260503150713 15 350 11.3 16.1 0.00 0.00 0.00 39 1010.0
20260503150657 15 292 11.3 35.4 0.00 0.00 0.00 39 1010.0
20260503150635 15 344 12.9 35.4 0.00 0.00 0.00 39 1010.0
20260503150605 15 309 12.9 35.4 0.00 0.00 0.00 39 1010.0
20260503150545 15 349 9.7 35.4 0.00 0.00 0.00 39 1010.0
20260503150531 15 324 11.3 35.4 0.00 0.00 0.00 39 1010.0
20260503150513 15 320 19.3 35.4 0.00 0.00 0.00 39 1010.0
20260503150500 15 281 17.7 30.6 0.00 0.00 0.00 39 1010.0
20260503150451 15 315 9.7 30.6 0.00 0.00 0.00 39 1010.0
20260503150431 15 301 8.0 30.6 0.00 0.00 0.00 40 1010.0
20260503150412 15 318 17.7 30.6 0.00 0.00 0.00 40 1010.0
20260503150406 15 351 16.1 30.6 0.00 0.00 0.00 40 1010.0
20260503150345 15 339 16.1 30.6 0.00 0.00 0.00 40 1010.0
20260503150325 15 345 14.5 22.5 0.00 0.00 0.00 40 1010.0
20260503150244 15 300 12.9 17.7 0.00 0.00 0.00 40 1010.0
20260503150218 15 312 12.9 17.7 0.00 0.00 0.00 40 1010.0
20260503150201 15 358 9.7 16.1 0.00 0.00 0.00 40 1010.0
20260503150153 15 358 9.7 16.1 0.00 0.00 0.00 40 1010.0
20260503150139 15 351 9.7 16.1 0.00 0.00 0.00 40 1010.0
20260503150130 15 16 8.0 17.7 0.00 0.00 0.00 40 1010.0
20260503150122 15 16 8.0 17.7 0.00 0.00 0.00 39 1010.0
20260503150106 15 329 9.7 17.7 0.00 0.00 0.00 39 1010.0
20260503140257 14 318 9.7 17.7 0.00 0.00 0.00 40 1010.0
20260503140243 14 299 11.3 17.7 0.00 0.00 0.00 40 1010.0
20260503140219 14 305 12.9 17.7 0.00 0.00 0.00 40 1010.0
20260503140201 14 326 9.7 17.7 0.00 0.00 0.00 40 1010.0
20260503140146 14 305 12.9 17.7 0.00 0.00 0.00 40 1010.0
20260503140123 14 337 9.7 17.7 0.00 0.00 0.00 40 1010.0
20260503140105 14 328 16.1 17.7 0.00 0.00 0.00 40 1010.0
20260503131413 11 280 8.0 12.9 0.00 0.00 0.00 46 1010.0
20260503131354 11 254 6.4 12.9 0.00 0.00 0.00 46 1010.0
20260503131344 11 254 9.7 12.9 0.00 0.00 0.00 46 1010.0
20260503131321 11 272 11.3 12.9 0.00 0.00 0.00 46 1010.0
20260503131308 11 300 8.0 11.3 0.00 0.00 0.00 46 1010.0
20260503131303 11 259 9.7 11.3 0.00 0.00 0.00 46 1010.0
20260503131232 11 269 8.0 11.3 0.00 0.00 0.00 46 1010.0
20260503131209 11 290 6.4 14.5 0.00 0.00 0.00 46 1010.0
20260503131152 11 278 6.4 14.5 0.00 0.00 0.00 46 1010.0
20260503131138 11 302 4.8 14.5 0.00 0.00 0.00 46 1010.0
20260503131120 11 244 6.4 14.5 0.00 0.00 0.00 46 1010.0
20260503131105 11 279 9.7 14.5 0.00 0.00 0.00 46 1010.0
20260503131049 11 265 9.7 14.5 0.00 0.00 0.00 46 1010.0
20260503131040 11 288 9.7 12.9 0.00 0.00 0.00 46 1010.0
20260503131024 11 304 4.8 11.3 0.00 0.00 0.00 46 1010.0
20260503131016 11 304 6.4 11.3 0.00 0.00 0.00 46 1010.0
20260503130929 11 257 8.0 11.3 0.00 0.00 0.00 46 1010.0
20260503130920 11 283 6.4 11.3 0.00 0.00 0.00 46 1010.0
20260503130906 11 261 4.8 11.3 0.00 0.00 0.00 46 1010.0
20260503130859 11 261 4.8 14.5 0.00 0.00 0.00 46 1010.0
20260503130834 11 260 6.4 14.5 0.00 0.00 0.00 46 1010.0
20260503130824 11 251 6.4 14.5 0.00 0.00 0.00 46 1010.0
20260503130810 11 291 6.4 14.5 0.00 0.00 0.00 46 1010.0
20260503130803 11 291 6.4 16.1 0.00 0.00 0.00 46 1010.0
20260503130728 11 281 9.7 16.1 0.00 0.00 0.00 46 1010.0
20260503130716 11 267 11.3 16.1 0.00 0.00 0.00 46 1010.0
20260503130656 11 281 6.4 17.7 0.00 0.00 0.00 46 1010.0
20260503130641 11 263 6.4 17.7 0.00 0.00 0.00 46 1010.0
20260503130632 11 260 9.7 17.7 0.00 0.00 0.00 46 1010.0
20260503130612 11 276 9.7 17.7 0.00 0.00 0.00 46 1010.0
20260503130553 11 235 4.8 17.7 0.00 0.00 0.00 46 1010.0
20260503130536 11 248 9.7 17.7 0.00 0.00 0.00 46 1010.0
20260503130521 11 286 8.0 16.1 0.00 0.00 0.00 46 1010.0
20260503130512 11 287 6.4 16.1 0.00 0.00 0.00 46 1010.0
20260503130448 11 291 8.0 16.1 0.00 0.00 0.00 46 1010.0
20260503130432 11 281 9.7 16.1 0.00 0.00 0.00 46 1010.0
20260503130417 11 253 4.8 16.1 0.00 0.00 0.00 46 1010.0
20260503130400 11 296 9.7 16.1 0.00 0.00 0.00 46 1010.0
20260503130344 11 259 9.7 16.1 0.00 0.00 0.00 46 1010.0
20260503130333 11 298 4.8 16.1 0.00 0.00 0.00 46 1010.0
20260503130319 11 261 8.0 16.1 0.00 0.00 0.00 46 1010.0
20260503130251 11 288 6.4 16.1 0.00 0.00 0.00 46 1010.0
20260503130224 11 283 9.7 16.1 0.00 0.00 0.00 46 1010.0
20260503130200 11 276 11.3 14.5 0.00 0.00 0.00 46 1010.0
20260503130145 11 272 9.7 11.3 0.00 0.00 0.00 46 1010.0
20260503130136 11 253 4.8 11.3 0.00 0.00 0.00 46 1010.0
20260503130120 11 265 8.0 11.3 0.00 0.00 0.00 46 1010.0
20260503130105 11 279 9.7 11.3 0.00 0.00 0.00 46 1010.0
20260503120220 11 262 8.0 12.9 0.00 0.00 0.00 45 1010.0
20260503120208 11 279 8.0 12.9 0.00 0.00 0.00 45 1010.0
20260503120145 11 247 8.0 12.9 0.00 0.00 0.00 45 1010.0
20260503120129 11 288 8.0 12.9 0.00 0.00 0.00 45 1010.0
20260503120121 11 264 9.7 12.9 0.00 0.00 0.00 45 1010.0
20260503120104 11 301 6.4 12.9 0.00 0.00 0.00 45 1010.0
20260503110817 10 275 9.7 14.5 0.00 0.00 0.00 44 1010.0
20260503110805 10 256 6.4 14.5 0.00 0.00 0.00 44 1010.0
20260503110758 10 256 6.4 14.5 0.00 0.00 0.00 44 1010.0
20260503110739 10 261 4.8 14.5 0.00 0.00 0.00 44 1010.0
20260503110715 10 284 9.7 14.5 0.00 0.00 0.00 44 1010.0
20260503110652 10 268 12.9 16.1 0.00 0.00 0.00 44 1010.0
20260503110633 10 257 8.0 16.1 0.00 0.00 0.00 44 1010.0
20260503110617 10 283 3.2 16.1 0.00 0.00 0.00 44 1010.0
20260503110609 10 297 9.7 16.1 0.00 0.00 0.00 44 1010.0
20260503110550 10 293 6.4 16.1 0.00 0.00 0.00 44 1010.0
20260503110533 10 270 9.7 16.1 0.00 0.00 0.00 44 1010.0
20260503110513 10 279 14.5 16.1 0.00 0.00 0.00 44 1010.0
20260503110457 10 299 6.4 11.3 0.00 0.00 0.00 44 1010.0
20260503110433 10 275 6.4 11.3 0.00 0.00 0.00 44 1010.0
20260503110418 10 265 8.0 11.3 0.00 0.00 0.00 44 1010.0
20260503110400 10 265 6.4 9.7 0.00 0.00 0.00 44 1010.0
20260503110351 10 269 6.4 9.7 0.00 0.00 0.00 44 1010.0
20260503110332 10 270 6.4 14.5 0.00 0.00 0.00 44 1010.0
20260503110313 10 272 6.4 14.5 0.00 0.00 0.00 44 1010.0
20260503110304 10 260 6.4 14.5 0.00 0.00 0.00 44 1010.0
20260503110250 10 271 6.4 14.5 0.00 0.00 0.00 44 1010.0
20260503110226 10 266 6.4 14.5 0.00 0.00 0.00 44 1010.0
20260503110208 10 251 8.0 14.5 0.00 0.00 0.00 44 1010.0
20260503110153 10 251 8.0 14.5 0.00 0.00 0.00 44 1010.0
20260503110144 10 269 6.4 11.3 0.00 0.00 0.00 44 1010.0
20260503110122 10 272 6.4 11.3 0.00 0.00 0.00 44 1010.0
20260503110112 10 259 4.8 11.3 0.00 0.00 0.00 44 1010.0
20260503100242 11 267 4.8 11.3 0.00 0.00 0.00 42 1010.0
20260503100233 11 256 8.0 11.3 0.00 0.00 0.00 42 1010.0
20260503100208 11 292 4.8 9.7 0.00 0.00 0.00 42 1010.0
20260503100158 11 249 6.4 9.7 0.00 0.00 0.00 42 1010.0
20260503100140 11 263 8.0 9.7 0.00 0.00 0.00 42 1010.0
20260503100104 11 272 3.2 6.4 0.00 0.00 0.00 42 1010.0
20260503090512 11 299 4.8 11.3 0.00 0.00 0.00 40 1010.0
20260503090457 11 271 4.8 11.3 0.00 0.00 0.00 39 1010.0
20260503090448 11 262 6.4 11.3 0.00 0.00 0.00 39 1010.0
20260503090425 11 271 6.4 11.3 0.00 0.00 0.00 39 1010.0
20260503090408 11 276 6.4 11.3 0.00 0.00 0.00 39 1010.0
20260503090353 11 307 9.7 11.3 0.00 0.00 0.00 40 1010.0
20260503090344 11 274 8.0 11.3 0.00 0.00 0.00 40 1010.0
20260503090331 11 285 6.4 11.3 0.00 0.00 0.00 40 1010.0
20260503090304 11 280 6.4 11.3 0.00 0.00 0.00 40 1010.0
20260503090250 11 260 6.4 11.3 0.00 0.00 0.00 39 1010.0
20260503090233 11 285 6.4 11.3 0.00 0.00 0.00 39 1010.0
20260503090216 11 270 8.0 11.3 0.00 0.00 0.00 39 1010.0
20260503090205 11 283 6.4 11.3 0.00 0.00 0.00 39 1010.0
20260503090147 11 279 6.4 11.3 0.00 0.00 0.00 40 1010.0
20260503090121 11 280 6.4 11.3 0.00 0.00 0.00 40 1010.0
20260503090113 11 286 8.0 11.3 0.00 0.00 0.00 40 1010.0
20260503081616 12 268 8.0 9.7 0.00 0.00 0.00 38 1010.0
20260503081601 12 291 6.4 9.7 0.00 0.00 0.00 38 1010.0
20260503081552 12 259 6.4 9.7 0.00 0.00 0.00 38 1010.0
20260503081536 12 309 6.4 9.7 0.00 0.00 0.00 38 1010.0
20260503081515 12 244 3.2 12.9 0.00 0.00 0.00 38 1010.0
20260503081451 12 256 6.4 12.9 0.00 0.00 0.00 38 1010.0
20260503081429 12 275 8.0 12.9 0.00 0.00 0.00 38 1010.0
20260503081421 12 261 8.0 12.9 0.00 0.00 0.00 38 1010.0
20260503081403 12 275 9.7 12.9 0.00 0.00 0.00 38 1010.0
20260503081328 12 305 8.0 11.3 0.00 0.00 0.00 37 1010.0
20260503081313 12 264 6.4 9.7 0.00 0.00 0.00 37 1010.0
20260503081257 12 290 4.8 6.4 0.00 0.00 0.00 37 1010.0
20260503081248 12 258 4.8 6.4 0.00 0.00 0.00 37 1010.0
20260503081234 12 254 4.8 6.4 0.00 0.00 0.00 37 1010.0
20260503081208 12 246 4.8 9.7 0.00 0.00 0.00 37 1010.0
20260503081153 12 256 4.8 9.7 0.00 0.00 0.00 37 1010.0
20260503081140 12 271 4.8 9.7 0.00 0.00 0.00 37 1010.0
20260503081056 12 319 6.4 9.7 0.00 0.00 0.00 37 1010.0
20260503081033 12 262 6.4 9.7 0.00 0.00 0.00 37 1010.0
20260503081024 12 275 6.4 9.7 0.00 0.00 0.00 37 1010.0
20260503081000 12 281 6.4 9.7 0.00 0.00 0.00 37 1010.0
20260503080945 12 275 6.4 9.7 0.00 0.00 0.00 37 1010.0
20260503080930 12 285 6.4 9.7 0.00 0.00 0.00 37 1010.0
20260503080835 12 258 4.8 11.3 0.00 0.00 0.00 37 1010.0
20260503080828 12 279 6.4 11.3 0.00 0.00 0.00 37 1010.0
20260503080808 12 272 4.8 11.3 0.00 0.00 0.00 37 1010.0
20260503080748 12 264 6.4 11.3 0.00 0.00 0.00 37 1010.0
20260503080731 12 253 8.0 11.3 0.00 0.00 0.00 37 1010.0
20260503080705 12 250 4.8 4.8 0.00 0.00 0.00 37 1010.0
20260503080640 12 290 4.8 4.8 0.00 0.00 0.00 37 1010.0
20260503080627 12 292 3.2 6.4 0.00 0.00 0.00 37 1010.0
20260503080609 12 289 3.2 6.4 0.00 0.00 0.00 37 1010.0
20260503080553 12 283 4.8 9.7 0.00 0.00 0.00 37 1010.0
20260503080544 12 272 4.8 9.7 0.00 0.00 0.00 37 1010.0
20260503080521 12 285 3.2 9.7 0.00 0.00 0.00 37 1010.0
20260503080504 12 256 4.8 9.7 0.00 0.00 0.00 37 1010.0
20260503080453 12 264 4.8 9.7 0.00 0.00 0.00 37 1010.0
20260503080427 12 258 8.0 9.7 0.00 0.00 0.00 37 1010.0
20260503080357 12 283 3.2 6.4 0.00 0.00 0.00 37 1010.0
20260503080323 12 270 4.8 6.4 0.00 0.00 0.00 37 1010.0
20260503080316 12 272 4.8 6.4 0.00 0.00 0.00 37 1010.0
20260503080250 12 274 4.8 6.4 0.00 0.00 0.00 37 1010.0
20260503080240 12 327 3.2 6.4 0.00 0.00 0.00 37 1010.0
20260503080227 12 288 1.6 11.3 0.00 0.00 0.00 37 1010.0
20260503080201 12 275 6.4 11.3 0.00 0.00 0.00 37 1010.0
20260503080145 12 325 4.8 11.3 0.00 0.00 0.00 37 1010.0
20260503080136 12 278 3.2 11.3 0.00 0.00 0.00 37 1010.0
20260503080118 12 276 3.2 11.3 0.00 0.00 0.00 37 1010.0
20260503072944 13 300 3.2 4.8 0.00 0.00 0.00 35 1010.0
20260503072912 13 284 3.2 4.8 0.00 0.00 0.00 35 1011.0
20260503072857 13 284 4.8 9.7 0.00 0.00 0.00 35 1011.0
20260503072848 13 304 3.2 9.7 0.00 0.00 0.00 35 1011.0
20260503072824 13 275 1.6 9.7 0.00 0.00 0.00 35 1011.0
20260503072808 13 285 1.6 9.7 0.00 0.00 0.00 35 1011.0
20260503072754 13 294 3.2 9.7 0.00 0.00 0.00 35 1011.0
20260503072736 13 277 4.8 9.7 0.00 0.00 0.00 35 1011.0
20260503072720 13 293 6.4 9.7 0.00 0.00 0.00 35 1010.0
20260503072705 13 269 3.2 4.8 0.00 0.00 0.00 35 1010.0
20260503072656 13 312 4.8 9.7 0.00 0.00 0.00 35 1010.0
20260503072632 13 296 4.8 9.7 0.00 0.00 0.00 35 1010.0
20260503072618 13 294 3.2 9.7 0.00 0.00 0.00 35 1010.0
20260503072611 13 301 3.2 9.7 0.00 0.00 0.00 35 1010.0
20260503072545 13 278 3.2 9.7 0.00 0.00 0.00 35 1010.0
20260503072536 13 260 6.4 9.7 0.00 0.00 0.00 35 1010.0
20260503072504 13 301 3.2 6.4 0.00 0.00 0.00 35 1010.0
20260503072449 13 293 3.2 6.4 0.00 0.00 0.00 35 1010.0
20260503072440 13 301 3.2 6.4 0.00 0.00 0.00 35 1010.0
20260503072419 13 269 3.2 6.4 0.00 0.00 0.00 35 1011.0
20260503072344 13 309 4.8 6.4 0.00 0.00 0.00 35 1011.0
20260503072320 13 263 3.2 6.4 0.00 0.00 0.00 35 1011.0
20260503072308 13 320 3.2 6.4 0.00 0.00 0.00 35 1011.0
20260503072248 13 275 3.2 6.4 0.00 0.00 0.00 35 1011.0
20260503072224 13 290 4.8 6.4 0.00 0.00 0.00 35 1011.0
20260503072210 13 286 6.4 6.4 0.00 0.00 0.00 35 1011.0
20260503072203 13 300 3.2 6.4 0.00 0.00 0.00 35 1011.0
20260503072137 13 295 3.2 6.4 0.00 0.00 0.00 35 1011.0
20260503072128 13 300 4.8 6.4 0.00 0.00 0.00 35 1011.0
20260503072104 13 320 3.2 6.4 0.00 0.00 0.00 35 1011.0
20260503072048 13 268 1.6 6.4 0.00 0.00 0.00 35 1011.0
20260503072036 13 311 4.8 6.4 0.00 0.00 0.00 35 1011.0
20260503072000 13 308 3.2 4.8 0.00 0.00 0.00 35 1010.0
20260503071936 13 303 3.2 4.8 0.00 0.00 0.00 35 1010.0
20260503071922 13 320 3.2 4.8 0.00 0.00 0.00 35 1010.0
20260503071854 13 289 4.8 9.7 0.00 0.00 0.00 35 1010.0
20260503071816 13 321 3.2 11.3 0.00 0.00 0.00 35 1011.0
20260503071801 13 303 1.6 11.3 0.00 0.00 0.00 35 1011.0
20260503071752 13 312 4.8 11.3 0.00 0.00 0.00 35 1011.0
20260503071736 13 275 4.8 11.3 0.00 0.00 0.00 35 1011.0
20260503071713 13 292 6.4 11.3 0.00 0.00 0.00 35 1011.0
20260503071704 13 292 8.0 11.3 0.00 0.00 0.00 35 1011.0
20260503071648 13 311 6.4 16.1 0.00 0.00 0.00 35 1011.0
20260503071624 13 300 3.2 16.1 0.00 0.00 0.00 35 1011.0
20260503071601 13 316 3.2 16.1 0.00 0.00 0.00 35 1011.0
20260503071557 13 331 6.4 16.1 0.00 0.00 0.00 35 1011.0
20260503071529 13 307 9.7 16.1 0.00 0.00 0.00 35 1011.0
20260503071520 13 326 11.3 16.1 0.00 0.00 0.00 35 1011.0
20260503071505 13 327 6.4 14.5 0.00 0.00 0.00 35 1011.0
20260503071456 13 327 6.4 14.5 0.00 0.00 0.00 35 1011.0
20260503071448 13 323 11.3 14.5 0.00 0.00 0.00 35 1011.0
20260503071410 13 283 4.8 6.4 0.00 0.00 0.00 35 1010.0
20260503071337 13 291 4.8 6.4 0.00 0.00 0.00 35 1010.0
20260503071331 13 265 4.8 6.4 0.00 0.00 0.00 35 1010.0
20260503071304 13 273 4.8 6.4 0.00 0.00 0.00 35 1010.0
20260503071251 13 313 3.2 6.4 0.00 0.00 0.00 35 1010.0
20260503071233 13 251 3.2 6.4 0.00 0.00 0.00 35 1010.0
20260503071219 13 304 1.6 6.4 0.00 0.00 0.00 35 1011.0
20260503071211 13 325 4.8 6.4 0.00 0.00 0.00 35 1011.0
20260503071138 13 343 3.2 6.4 0.00 0.00 0.00 35 1011.0
20260503071125 13 295 3.2 12.9 0.00 0.00 0.00 35 1010.0
20260503071105 13 274 4.8 12.9 0.00 0.00 0.00 35 1010.0
20260503071056 13 270 3.2 12.9 0.00 0.00 0.00 35 1010.0
20260503071036 13 317 3.2 12.9 0.00 0.00 0.00 35 1010.0
20260503071030 13 285 3.2 12.9 0.00 0.00 0.00 35 1011.0
20260503071000 13 320 3.2 12.9 0.00 0.00 0.00 35 1011.0
20260503070950 13 280 8.0 12.9 0.00 0.00 0.00 35 1011.0
20260503070921 13 307 4.8 11.3 0.00 0.00 0.00 35 1010.0
20260503070904 13 307 6.4 9.7 0.00 0.00 0.00 35 1010.0
20260503070842 13 296 3.2 9.7 0.00 0.00 0.00 35 1010.0
20260503070833 13 264 6.4 9.7 0.00 0.00 0.00 35 1010.0
20260503070808 13 259 6.4 9.7 0.00 0.00 0.00 35 1011.0
20260503070756 13 305 6.4 9.7 0.00 0.00 0.00 35 1011.0
20260503070737 13 279 8.0 9.7 0.00 0.00 0.00 35 1011.0
20260503070716 13 304 4.8 9.7 0.00 0.00 0.00 35 1011.0
20260503070710 13 246 4.8 9.7 0.00 0.00 0.00 35 1011.0
20260503070640 13 323 4.8 9.7 0.00 0.00 0.00 35 1011.0
20260503070627 13 286 6.4 9.7 0.00 0.00 0.00 35 1011.0
20260503070609 13 287 6.4 6.4 0.00 0.00 0.00 35 1011.0
20260503070553 13 294 6.4 9.7 0.00 0.00 0.00 35 1011.0
20260503070537 13 281 4.8 9.7 0.00 0.00 0.00 35 1011.0
20260503070528 13 282 4.8 9.7 0.00 0.00 0.00 35 1011.0
20260503070508 13 301 4.8 9.7 0.00 0.00 0.00 35 1011.0
20260503070501 13 322 4.8 9.7 0.00 0.00 0.00 35 1011.0
20260503070441 13 290 4.8 9.7 0.00 0.00 0.00 35 1011.0
20260503070419 13 285 6.4 9.7 0.00 0.00 0.00 35 1010.0
20260503070400 13 309 4.8 11.3 0.00 0.00 0.00 35 1010.0
20260503070344 13 271 6.4 11.3 0.00 0.00 0.00 35 1010.0
20260503070330 13 280 6.4 11.3 0.00 0.00 0.00 35 1010.0
20260503070321 13 286 3.2 11.3 0.00 0.00 0.00 35 1010.0
20260503070306 13 292 3.2 11.3 0.00 0.00 0.00 35 1010.0
20260503070257 13 292 3.2 11.3 0.00 0.00 0.00 35 1010.0
20260503070241 13 297 4.8 11.3 0.00 0.00 0.00 35 1010.0
20260503070221 13 289 6.4 11.3 0.00 0.00 0.00 35 1011.0
20260503070202 13 277 6.4 11.3 0.00 0.00 0.00 35 1011.0
20260503070152 13 292 6.4 11.3 0.00 0.00 0.00 35 1011.0
20260503070137 13 306 6.4 9.7 0.00 0.00 0.00 35 1011.0
20260503070128 13 306 6.4 9.7 0.00 0.00 0.00 35 1010.0
20260503070118 13 297 4.8 6.4 0.00 0.00 0.00 35 1010.0
20260503060336 15 286 9.7 12.9 0.00 0.00 0.00 32 1010.0
20260503060314 15 282 6.4 12.9 0.00 0.00 0.00 32 1010.0
20260503060307 15 289 6.4 12.9 0.00 0.00 0.00 32 1010.0
20260503060243 15 282 9.7 12.9 0.00 0.00 0.00 32 1010.0
20260503060216 15 271 6.4 12.9 0.00 0.00 0.00 32 1010.0
20260503060202 15 239 3.2 12.9 0.00 0.00 0.00 32 1010.0
20260503060153 15 239 3.2 12.9 0.00 0.00 0.00 32 1010.0
20260503060144 15 268 3.2 12.9 0.00 0.00 0.00 32 1010.0
20260503060115 15 268 8.0 12.9 0.00 0.00 0.00 32 1010.0
20260503060106 15 265 8.0 12.9 0.00 0.00 0.00 32 1010.0
20260503055122 15 282 9.7 14.5 0.00 0.00 0.00 33 1010.0
20260503055032 15 281 4.8 12.9 0.00 0.00 0.00 33 1010.0
20260503055018 15 254 8.0 12.9 0.00 0.00 0.00 33 1010.0
20260503055000 15 284 8.0 12.9 0.00 0.00 0.00 33 1010.0
20260503054944 15 261 6.4 12.9 0.00 0.00 0.00 33 1010.0
20260503054929 15 250 9.7 12.9 0.00 0.00 0.00 33 1010.0
20260503054920 15 270 4.8 11.3 0.00 0.00 0.00 33 1010.0
20260503054905 15 274 6.4 11.3 0.00 0.00 0.00 33 1010.0
20260503054856 15 274 6.4 11.3 0.00 0.00 0.00 33 1010.0
20260503054841 15 260 6.4 11.3 0.00 0.00 0.00 33 1010.0
20260503054833 15 271 9.7 11.3 0.00 0.00 0.00 33 1010.0
20260503054816 15 232 6.4 9.7 0.00 0.00 0.00 33 1010.0
20260503054801 15 232 6.4 12.9 0.00 0.00 0.00 33 1010.0
20260503054752 15 262 4.8 12.9 0.00 0.00 0.00 33 1010.0
20260503054742 15 273 6.4 12.9 0.00 0.00 0.00 33 1010.0
20260503054706 15 296 4.8 12.9 0.00 0.00 0.00 33 1010.0
20260503054656 15 296 4.8 12.9 0.00 0.00 0.00 33 1010.0
20260503054645 15 240 6.4 12.9 0.00 0.00 0.00 33 1010.0
20260503054611 15 294 4.8 11.3 0.00 0.00 0.00 33 1010.0
20260503054548 15 273 6.4 11.3 0.00 0.00 0.00 33 1010.0
20260503054540 15 273 6.4 11.3 0.00 0.00 0.00 32 1010.0
20260503054523 15 258 6.4 11.3 0.00 0.00 0.00 32 1010.0
20260503054448 15 294 8.0 11.3 0.00 0.00 0.00 32 1010.0
20260503054433 15 279 4.8 9.7 0.00 0.00 0.00 33 1010.0
20260503054425 15 267 3.2 9.7 0.00 0.00 0.00 33 1010.0
20260503054408 15 328 4.8 9.7 0.00 0.00 0.00 33 1010.0
20260503054348 15 256 6.4 9.7 0.00 0.00 0.00 33 1010.0
20260503054328 15 312 6.4 11.3 0.00 0.00 0.00 33 1010.0
20260503054305 15 276 6.4 11.3 0.00 0.00 0.00 33 1010.0
20260503054256 15 270 8.0 11.3 0.00 0.00 0.00 33 1010.0
20260503054232 15 297 3.2 11.3 0.00 0.00 0.00 33 1010.0
20260503054220 15 264 6.4 11.3 0.00 0.00 0.00 33 1010.0
20260503054214 15 284 6.4 11.3 0.00 0.00 0.00 33 1010.0
20260503054144 15 270 6.4 11.3 0.00 0.00 0.00 33 1010.0
20260503054129 15 281 4.8 11.3 0.00 0.00 0.00 33 1010.0
20260503054104 15 261 4.8 11.3 0.00 0.00 0.00 33 1010.0
20260503054040 15 302 4.8 12.9 0.00 0.00 0.00 33 1010.0
20260503054025 15 307 6.4 17.7 0.00 0.00 0.00 33 1010.0
20260503054016 15 256 6.4 17.7 0.00 0.00 0.00 33 1010.0
20260503054000 15 283 6.4 17.7 0.00 0.00 0.00 33 1010.0
20260503053936 15 287 9.7 17.7 0.00 0.00 0.00 33 1010.0
20260503053913 15 285 6.4 17.7 0.00 0.00 0.00 33 1010.0
20260503053856 15 312 9.7 17.7 0.00 0.00 0.00 33 1010.0
20260503053841 15 276 6.4 11.3 0.00 0.00 0.00 33 1010.0
20260503053832 15 290 4.8 11.3 0.00 0.00 0.00 33 1010.0
20260503053820 15 291 8.0 11.3 0.00 0.00 0.00 33 1010.0
20260503053752 15 286 8.0 11.3 0.00 0.00 0.00 33 1010.0
20260503053739 15 271 8.0 11.3 0.00 0.00 0.00 33 1010.0
20260503053720 15 272 6.4 11.3 0.00 0.00 0.00 33 1010.0
20260503053704 15 289 6.4 11.3 0.00 0.00 0.00 33 1010.0
20260503053651 15 263 6.4 9.7 0.00 0.00 0.00 33 1010.0
20260503053616 15 294 4.8 9.7 0.00 0.00 0.00 33 1010.0
20260503053602 15 255 4.8 9.7 0.00 0.00 0.00 33 1010.0
20260503053544 15 265 4.8 9.7 0.00 0.00 0.00 33 1010.0
20260503053529 15 259 6.4 9.7 0.00 0.00 0.00 33 1010.0
20260503053520 15 276 6.4 9.7 0.00 0.00 0.00 33 1010.0
20260503053505 15 269 4.8 9.7 0.00 0.00 0.00 33 1010.0
20260503053456 15 269 4.8 9.7 0.00 0.00 0.00 33 1010.0
20260503053440 15 272 4.8 9.7 0.00 0.00 0.00 33 1010.0
20260503053428 15 255 6.4 11.3 0.00 0.00 0.00 33 1010.0
20260503053408 15 266 4.8 11.3 0.00 0.00 0.00 33 1010.0
20260503053352 15 273 6.4 11.3 0.00 0.00 0.00 33 1010.0
20260503053339 15 263 6.4 11.3 0.00 0.00 0.00 33 1010.0
20260503053313 15 257 8.0 11.3 0.00 0.00 0.00 33 1010.0
20260503053304 15 262 6.4 11.3 0.00 0.00 0.00 33 1010.0
20260503053242 15 257 6.4 11.3 0.00 0.00 0.00 33 1010.0
20260503053232 15 252 6.4 9.7 0.00 0.00 0.00 33 1010.0
20260503053208 15 261 6.4 9.7 0.00 0.00 0.00 33 1010.0
20260503053153 15 256 6.4 9.7 0.00 0.00 0.00 33 1010.0
20260503053144 15 250 6.4 9.7 0.00 0.00 0.00 33 1010.0
20260503053128 15 244 4.8 9.7 0.00 0.00 0.00 33 1010.0
20260503053104 15 256 6.4 9.7 0.00 0.00 0.00 33 1010.0
20260503053050 15 256 6.4 9.7 0.00 0.00 0.00 33 1010.0
20260503053024 15 265 6.4 9.7 0.00 0.00 0.00 34 1010.0
20260503053009 15 267 6.4 9.7 0.00 0.00 0.00 34 1010.0
20260503053000 15 228 4.8 9.7 0.00 0.00 0.00 34 1010.0
20260503052936 15 273 4.8 9.7 0.00 0.00 0.00 34 1010.0
20260503052922 15 257 4.8 9.7 0.00 0.00 0.00 34 1010.0
20260503052904 15 265 4.8 9.7 0.00 0.00 0.00 34 1010.0
20260503052849 15 283 6.4 9.7 0.00 0.00 0.00 34 1010.0
20260503052840 15 261 6.4 9.7 0.00 0.00 0.00 34 1010.0
20260503052827 15 246 6.4 11.3 0.00 0.00 0.00 33 1010.0
20260503052800 15 237 4.8 11.3 0.00 0.00 0.00 33 1010.0
20260503052746 15 271 6.4 11.3 0.00 0.00 0.00 33 1010.0
20260503052739 15 251 6.4 11.3 0.00 0.00 0.00 33 1010.0
20260503052716 15 272 6.4 11.3 0.00 0.00 0.00 33 1010.0
20260503052657 15 266 8.0 11.3 0.00 0.00 0.00 33 1010.0
20260503052648 15 257 8.0 11.3 0.00 0.00 0.00 33 1010.0
20260503052633 15 264 6.4 9.7 0.00 0.00 0.00 33 1010.0
20260503052624 15 264 6.4 9.7 0.00 0.00 0.00 34 1010.0
20260503052606 15 255 4.8 6.4 0.00 0.00 0.00 34 1010.0
20260503052539 15 266 4.8 6.4 0.00 0.00 0.00 34 1010.0
20260503052515 15 256 3.2 9.7 0.00 0.00 0.00 33 1010.0
20260503052508 15 265 4.8 9.7 0.00 0.00 0.00 33 1010.0
20260503052448 15 270 3.2 9.7 0.00 0.00 0.00 33 1010.0
20260503052434 15 265 4.8 9.7 0.00 0.00 0.00 33 1010.0
20260503052408 15 289 3.2 9.7 0.00 0.00 0.00 33 1010.0
20260503052354 15 262 6.4 9.7 0.00 0.00 0.00 33 1010.0
20260503052336 15 271 6.4 9.7 0.00 0.00 0.00 33 1010.0
20260503052320 15 269 4.8 6.4 0.00 0.00 0.00 33 1010.0
20260503052307 15 266 4.8 6.4 0.00 0.00 0.00 34 1010.0
20260503052259 15 273 3.2 6.4 0.00 0.00 0.00 34 1010.0
20260503052240 15 294 4.8 6.4 0.00 0.00 0.00 34 1010.0
20260503052216 15 232 3.2 9.7 0.00 0.00 0.00 34 1010.0
20260503052200 15 276 3.2 9.7 0.00 0.00 0.00 34 1010.0
20260503052147 15 264 3.2 9.7 0.00 0.00 0.00 34 1010.0
20260503052128 15 281 4.8 9.7 0.00 0.00 0.00 34 1010.0
20260503052104 15 272 4.8 9.7 0.00 0.00 0.00 34 1010.0
20260503052051 15 293 6.4 9.7 0.00 0.00 0.00 34 1010.0
20260503052043 15 245 8.0 9.7 0.00 0.00 0.00 34 1010.0
20260503052019 15 282 4.8 6.4 0.00 0.00 0.00 34 1010.0
20260503051952 14 308 3.2 6.4 0.00 0.00 0.00 34 1010.0
20260503051929 14 297 3.2 6.4 0.00 0.00 0.00 34 1010.0
20260503051920 14 277 4.8 6.4 0.00 0.00 0.00 34 1010.0
20260503051904 14 270 4.8 6.4 0.00 0.00 0.00 34 1010.0
20260503051842 14 268 3.2 6.4 0.00 0.00 0.00 34 1010.0
20260503051834 14 280 4.8 6.4 0.00 0.00 0.00 34 1010.0
20260503051809 14 275 4.8 11.3 0.00 0.00 0.00 34 1010.0
20260503051800 14 289 3.2 11.3 0.00 0.00 0.00 34 1010.0
20260503051744 14 292 3.2 11.3 0.00 0.00 0.00 35 1010.0
20260503051712 14 273 3.2 11.3 0.00 0.00 0.00 35 1010.0
20260503051657 14 299 4.8 11.3 0.00 0.00 0.00 35 1010.0
20260503051649 14 258 8.0 11.3 0.00 0.00 0.00 35 1010.0
20260503051633 14 262 4.8 9.7 0.00 0.00 0.00 35 1010.0
20260503051618 14 264 4.8 9.7 0.00 0.00 0.00 35 1010.0
20260503051556 14 268 4.8 11.3 0.00 0.00 0.00 35 1010.0
20260503051549 14 252 6.4 11.3 0.00 0.00 0.00 36 1010.0
20260503051520 14 280 4.8 11.3 0.00 0.00 0.00 36 1010.0
20260503051506 14 270 1.6 11.3 0.00 0.00 0.00 36 1010.0
20260503051459 14 286 3.2 11.3 0.00 0.00 0.00 36 1010.0
20260503051435 14 266 6.4 11.3 0.00 0.00 0.00 36 1010.0
20260503051418 14 267 6.4 11.3 0.00 0.00 0.00 36 1010.0
20260503051344 14 252 3.2 9.7 0.00 0.00 0.00 36 1010.0
20260503051328 14 265 3.2 9.7 0.00 0.00 0.00 36 1010.0
20260503051313 14 292 4.8 9.7 0.00 0.00 0.00 36 1010.0
20260503051304 14 272 6.4 9.7 0.00 0.00 0.00 36 1010.0
20260503051251 14 272 6.4 9.7 0.00 0.00 0.00 36 1010.0
20260503051244 14 256 3.2 4.8 0.00 0.00 0.00 36 1010.0
20260503051217 14 254 3.2 4.8 0.00 0.00 0.00 36 1010.0
20260503051208 14 279 3.2 4.8 0.00 0.00 0.00 36 1010.0
20260503051149 14 265 3.2 4.8 0.00 0.00 0.00 36 1010.0
20260503051142 14 253 3.2 4.8 0.00 0.00 0.00 36 1010.0
20260503051123 14 249 3.2 4.8 0.00 0.00 0.00 36 1010.0
20260503051104 14 272 4.8 4.8 0.00 0.00 0.00 36 1010.0
20260503051041 14 262 3.2 6.4 0.00 0.00 0.00 36 1010.0
20260503051024 13 299 3.2 6.4 0.00 0.00 0.00 36 1010.0
20260503051009 13 250 3.2 6.4 0.00 0.00 0.00 36 1010.0
20260503051000 13 257 3.2 6.4 0.00 0.00 0.00 36 1010.0
20260503050946 13 264 4.8 6.4 0.00 0.00 0.00 36 1010.0
20260503050920 13 270 6.4 6.4 0.00 0.00 0.00 36 1010.0
20260503050906 13 262 3.2 4.8 0.00 0.00 0.00 36 1010.0
20260503050848 13 297 3.2 4.8 0.00 0.00 0.00 36 1010.0
20260503050835 13 262 3.2 4.8 0.00 0.00 0.00 36 1010.0
20260503050810 13 279 3.2 4.8 0.00 0.00 0.00 36 1010.0
20260503050801 13 277 3.2 3.2 0.00 0.00 0.00 36 1010.0
20260503050744 13 285 0.0 1.6 0.00 0.00 0.00 36 1010.0
20260503050729 13 288 1.6 1.6 0.00 0.00 0.00 36 1010.0
20260503050717 13 289 1.6 1.6 0.00 0.00 0.00 37 1010.0
20260503050649 13 289 1.6 1.6 0.00 0.00 0.00 37 1010.0
20260503050633 13 287 1.6 1.6 0.00 0.00 0.00 37 1010.0
20260503050624 13 291 1.6 3.2 0.00 0.00 0.00 37 1010.0
20260503050612 13 279 1.6 3.2 0.00 0.00 0.00 37 1010.0
20260503050553 13 289 1.6 3.2 0.00 0.00 0.00 37 1010.0
20260503050537 13 284 0.0 3.2 0.00 0.00 0.00 37 1010.0
20260503050512 13 280 0.0 3.2 0.00 0.00 0.00 37 1010.0
20260503050500 13 285 1.6 3.2 0.00 0.00 0.00 37 1010.0
20260503050453 13 276 1.6 3.2 0.00 0.00 0.00 37 1010.0
20260503050425 13 297 3.2 3.2 0.00 0.00 0.00 37 1010.0
20260503050410 13 281 1.6 3.2 0.00 0.00 0.00 37 1010.0
20260503050344 13 303 0.0 3.2 0.00 0.00 0.00 37 1010.0
20260503050312 13 303 0.0 6.4 0.00 0.00 0.00 37 1010.0
20260503050258 13 303 0.0 9.7 0.00 0.00 0.00 38 1010.0
20260503050248 13 304 1.6 9.7 0.00 0.00 0.00 38 1010.0
20260503050228 13 302 1.6 9.7 0.00 0.00 0.00 38 1010.0
20260503050209 13 297 3.2 9.7 0.00 0.00 0.00 38 1010.0
20260503050152 13 299 3.2 9.7 0.00 0.00 0.00 38 1010.0
20260503050140 13 275 6.4 9.7 0.00 0.00 0.00 38 1010.0
20260503050121 13 276 6.4 6.4 0.00 0.00 0.00 38 1010.0
20260503050105 13 274 6.4 6.4 0.00 0.00 0.00 38 1010.0
20260503050057 13 279 4.8 6.4 0.00 0.00 0.00 38 1010.0
20260503050035 13 271 3.2 4.8 0.00 0.00 0.00 38 1010.0
20260503050009 13 271 0.0 3.2 0.00 0.00 0.00 38 1010.0
20260503050004 13 271 0.0 4.8 0.00 0.00 0.00 38 1010.0
20260503045938 13 279 0.0 4.8 0.00 0.00 0.00 38 1010.0
20260503045928 13 262 0.0 4.8 0.00 0.00 0.00 38 1010.0
20260503045907 13 289 1.6 4.8 0.00 0.00 0.00 38 1010.0
20260503045846 13 257 3.2 4.8 0.00 0.00 0.00 38 1010.0
20260503045817 13 271 3.2 4.8 0.00 0.00 0.00 38 1010.0
20260503045802 13 273 1.6 3.2 0.00 0.00 0.00 38 1010.0
20260503045756 13 288 3.2 3.2 0.00 0.00 0.00 38 1010.0
20260503045730 13 281 3.2 3.2 0.00 0.00 0.00 38 1010.0
20260503045720 13 305 3.2 3.2 0.00 0.00 0.00 38 1010.0
20260503045705 13 303 1.6 1.6 0.00 0.00 0.00 38 1010.0
20260503045641 13 303 1.6 1.6 0.00 0.00 0.00 38 1010.0
20260503045625 12 303 0.0 4.8 0.00 0.00 0.00 38 1010.0
20260503045605 12 306 0.0 4.8 0.00 0.00 0.00 38 1010.0
20260503045559 12 306 0.0 4.8 0.00 0.00 0.00 38 1010.0
20260503045505 12 306 0.0 4.8 0.00 0.00 0.00 38 1010.0
20260503045453 12 304 3.2 4.8 0.00 0.00 0.00 38 1010.0
20260503045432 12 303 3.2 3.2 0.00 0.00 0.00 38 1010.0
20260503045408 12 290 1.6 3.2 0.00 0.00 0.00 38 1010.0
20260503045338 12 223 0.0 1.6 0.00 0.00 0.00 38 1010.0
20260503045328 12 222 0.0 3.2 0.00 0.00 0.00 38 1010.0
20260503045318 12 221 0.0 3.2 0.00 0.00 0.00 39 1010.0
20260503045248 12 223 0.0 3.2 0.00 0.00 0.00 39 1010.0
20260503045232 12 246 0.0 3.2 0.00 0.00 0.00 39 1010.0
20260503045218 12 260 1.6 3.2 0.00 0.00 0.00 38 1010.0
20260503045208 12 267 1.6 3.2 0.00 0.00 0.00 38 1010.0
20260503045144 12 270 3.2 3.2 0.00 0.00 0.00 38 1010.0
20260503045128 12 263 1.6 3.2 0.00 0.00 0.00 38 1010.0
20260503045115 12 265 3.2 3.2 0.00 0.00 0.00 38 1010.0
20260503045106 12 265 0.0 0.0 0.00 0.00 0.00 38 1010.0
20260503045056 12 265 0.0 0.0 0.00 0.00 0.00 38 1010.0
20260503045041 12 262 0.0 0.0 0.00 0.00 0.00 38 1010.0
20260503045016 12 264 0.0 0.0 0.00 0.00 0.00 38 1010.0
20260503045002 12 242 0.0 0.0 0.00 0.00 0.00 38 1010.0
20260503044920 12 242 0.0 0.0 0.00 0.00 0.00 38 1010.0
20260503044905 12 242 0.0 0.0 0.00 0.00 0.00 37 1010.0
20260503044833 12 242 0.0 0.0 0.00 0.00 0.00 37 1010.0
20260503044803 12 242 0.0 1.6 0.00 0.00 0.00 37 1010.0
20260503044756 12 242 0.0 1.6 0.00 0.00 0.00 37 1010.0
20260503044743 12 243 0.0 1.6 0.00 0.00 0.00 37 1010.0
20260503044648 12 242 1.6 1.6 0.00 0.00 0.00 37 1010.0
20260503044635 12 265 0.0 0.0 0.00 0.00 0.00 37 1010.0
20260503044612 12 262 0.0 0.0 0.00 0.00 0.00 37 1010.0
20260503044605 12 258 0.0 0.0 0.00 0.00 0.00 37 1010.0
20260503044537 12 255 0.0 0.0 0.00 0.00 0.00 37 1010.0
20260503044520 12 254 0.0 0.0 0.00 0.00 0.00 37 1010.0
20260503044505 12 261 0.0 0.0 0.00 0.00 0.00 37 1010.0
20260503044433 12 261 0.0 0.0 0.00 0.00 0.00 37 1010.0
20260503044312 12 261 0.0 0.0 0.00 0.00 0.00 37 1010.0
20260503044257 12 261 0.0 0.0 0.00 0.00 0.00 37 1010.0
20260503044208 12 261 0.0 0.0 0.00 0.00 0.00 37 1010.0
20260503044137 12 261 0.0 0.0 0.00 0.00 0.00 37 1010.0
20260503044113 12 262 0.0 0.0 0.00 0.00 0.00 37 1010.0
20260503044105 12 261 0.0 0.0 0.00 0.00 0.00 37 1010.0
20260503044048 12 271 0.0 0.0 0.00 0.00 0.00 37 1010.0
20260503044036 12 279 0.0 0.0 0.00 0.00 0.00 36 1010.0
20260503044016 12 280 0.0 0.0 0.00 0.00 0.00 36 1010.0
20260503044000 12 281 0.0 0.0 0.00 0.00 0.00 36 1010.0
20260503043907 12 286 0.0 0.0 0.00 0.00 0.00 36 1010.0
20260503043841 12 286 0.0 0.0 0.00 0.00 0.00 36 1010.0
20260503043801 13 286 0.0 0.0 0.00 0.00 0.00 36 1010.0
20260503043712 13 286 0.0 0.0 0.00 0.00 0.00 36 1010.0
20260503043649 13 286 0.0 0.0 0.00 0.00 0.00 36 1010.0
20260503043608 13 286 0.0 0.0 0.00 0.00 0.00 36 1010.0
20260503043504 13 286 0.0 0.0 0.00 0.00 0.00 36 1010.0
20260503043400 13 286 0.0 0.0 0.00 0.00 0.00 36 1010.0
20260503043305 13 286 0.0 0.0 0.00 0.00 0.00 36 1010.0
20260503043242 13 286 0.0 0.0 0.00 0.00 0.00 36 1010.0
20260503043200 13 286 0.0 0.0 0.00 0.00 0.00 36 1010.0
20260503043104 13 286 0.0 0.0 0.00 0.00 0.00 36 1010.0
20260503043019 13 286 0.0 0.0 0.00 0.00 0.00 36 1010.0
20260503042923 13 286 0.0 0.0 0.00 0.00 0.00 35 1010.0
20260503042808 13 286 0.0 0.0 0.00 0.00 0.00 35 1010.0
20260503042744 13 286 0.0 0.0 0.00 0.00 0.00 35 1010.0
20260503042704 13 286 0.0 0.0 0.00 0.00 0.00 35 1010.0
20260503042649 13 286 0.0 0.0 0.00 0.00 0.00 35 1010.0
20260503042600 13 286 0.0 0.0 0.00 0.00 0.00 35 1010.0
20260503042513 13 286 0.0 0.0 0.00 0.00 0.00 35 1010.0
20260503042409 13 286 0.0 0.0 0.00 0.00 0.00 35 1010.0
20260503042307 13 286 0.0 0.0 0.00 0.00 0.00 35 1010.0
20260503042201 13 286 0.0 0.0 0.00 0.00 0.00 35 1010.0
20260503042139 13 286 0.0 0.0 0.00 0.00 0.00 35 1010.0
20260503042105 13 286 0.0 0.0 0.00 0.00 0.00 35 1010.0
20260503042001 13 286 0.0 0.0 0.00 0.00 0.00 35 1010.0
20260503041936 13 286 0.0 0.0 0.00 0.00 0.00 35 1010.0
20260503041912 13 287 0.0 0.0 0.00 0.00 0.00 35 1010.0
20260503041818 13 287 0.0 0.0 0.00 0.00 0.00 35 1010.0
20260503041809 14 287 0.0 0.0 0.00 0.00 0.00 35 1010.0
20260503041800 14 288 0.0 0.0 0.00 0.00 0.00 35 1010.0
20260503041704 14 288 0.0 0.0 0.00 0.00 0.00 35 1010.0
20260503041636 14 288 0.0 0.0 0.00 0.00 0.00 35 1010.0
20260503041612 14 288 0.0 1.6 0.00 0.00 0.00 35 1010.0
20260503041604 14 288 0.0 3.2 0.00 0.00 0.00 35 1010.0
20260503041515 14 288 0.0 3.2 0.00 0.00 0.00 35 1010.0
20260503041456 14 289 1.6 3.2 0.00 0.00 0.00 35 1010.0
20260503041433 14 290 1.6 3.2 0.00 0.00 0.00 35 1010.0
20260503041424 14 293 1.6 3.2 0.00 0.00 0.00 35 1010.0
20260503041400 14 293 1.6 1.6 0.00 0.00 0.00 35 1010.0
20260503041346 14 296 1.6 1.6 0.00 0.00 0.00 35 1010.0
20260503041328 14 296 0.0 1.6 0.00 0.00 0.00 35 1010.0
20260503041304 14 296 0.0 0.0 0.00 0.00 0.00 35 1010.0
20260503041231 14 296 0.0 0.0 0.00 0.00 0.00 35 1010.0
20260503041202 14 296 0.0 1.6 0.00 0.00 0.00 35 1010.0
20260503041105 14 296 0.0 1.6 0.00 0.00 0.00 35 1010.0
20260503041010 14 296 0.0 1.6 0.00 0.00 0.00 35 1010.0
20260503040938 14 296 1.6 1.6 0.00 0.00 0.00 35 1010.0
20260503040834 14 296 0.0 1.6 0.00 0.00 0.00 35 1010.0
20260503040801 14 296 1.6 1.6 0.00 0.00 0.00 35 1010.0
20260503040752 14 296 0.0 1.6 0.00 0.00 0.00 35 1010.0
20260503040737 14 293 0.0 0.0 0.00 0.00 0.00 35 1010.0
20260503040705 14 293 0.0 1.6 0.00 0.00 0.00 35 1010.0
20260503040632 14 293 0.0 1.6 0.00 0.00 0.00 35 1010.0
20260503040617 14 275 0.0 1.6 0.00 0.00 0.00 35 1010.0
20260503040608 14 273 0.0 1.6 0.00 0.00 0.00 35 1010.0
20260503040552 14 261 0.0 1.6 0.00 0.00 0.00 35 1010.0
20260503040528 14 260 0.0 1.6 0.00 0.00 0.00 35 1010.0
20260503040515 15 248 0.0 0.0 0.00 0.00 0.00 35 1010.0
20260503040400 15 248 0.0 0.0 0.00 0.00 0.00 35 1010.0
20260503040316 15 248 0.0 0.0 0.00 0.00 0.00 35 1010.0
20260503040242 15 248 0.0 0.0 0.00 0.00 0.00 35 1010.0
20260503040209 15 248 0.0 0.0 0.00 0.00 0.00 35 1010.0
20260503040133 15 248 0.0 0.0 0.00 0.00 0.00 35 1010.0
20260503040059 15 248 0.0 0.0 0.00 0.00 0.00 35 1010.0
20260503040029 15 248 0.0 0.0 0.00 0.00 0.00 35 1010.0
20260503035912 15 248 0.0 0.0 0.00 0.00 0.00 35 1010.0
20260503035802 15 248 0.0 0.0 0.00 0.00 0.00 35 1010.0
20260503035756 15 248 0.0 0.0 0.00 0.00 0.00 34 1010.0
20260503035700 15 247 0.0 0.0 0.00 0.00 0.00 34 1010.0